[[{"header":{"parameterUnit":"m.s-1","parameterCategory":1,"la1":30.6,"la2":28.766,"lo1":-90.7593,"lo2":-88.6598,"dy":0.0162,"dx":0.0183,"nx":116,"ny":114,"refTime":"2024-04-02T00:00:00:Z","depth":0,"parameterNumber":2,"parameterNumberName":"U-component_of_WINDS"},"data":[0.0,0.0,0.0,0.0,0.0,0.0,0.0,0.0,0.0,0.0,0.0,0.0,0.0,0.0,0.0,0.0,0.0,0.0,0.0,0.0,0.0,0.0,0.0,0.0,0.0,0.0,0.0,0.0,0.0,0.0,0.0,0.0,0.0,0.0,0.0,0.0,0.0,0.0,0.0,0.0,0.0,0.0,0.0,0.0,0.0,0.0,0.0,0.0,0.0,0.0,0.0,0.0,0.0,0.0,0.0,0.0,0.0,0.0,0.0,0.0,0.0,0.0,0.0,0.0,0.0,0.0,0.0,0.0,0.0,0.0,0.0,0.0,0.0,0.0,0.0,0.0,0.0,0.0,0.0,0.0,0.0,0.0,0.0,0.0,0.0,0.0,0.0,0.0,0.0,0.0,0.0,0.0,0.0,0.0,0.0,0.0,0.0,0.0,0.0,0.0,0.0,0.0,0.0,0.0,0.0,0.0,0.0,0.0,0.0,0.0,0.0,0.0,0.0,0.0,0.0,0.0,0.0,0.0,0.0,0.0,0.0,0.0,0.0,0.0,0.0,0.0,0.0,0.0,0.0,0.0,0.0,0.0,0.0,0.0,0.0,0.0,0.0,0.0,0.0,0.0,0.0,0.0,0.0,0.0,0.0,0.0,0.0,0.0,0.0,0.0,0.0,0.0,0.0,0.0,0.0,0.0,0.0,0.0,0.0,0.0,0.0,0.0,0.0,0.0,0.0,0.0,0.0,0.0,0.0,0.0,0.0,0.0,0.0,0.0,0.0,0.0,0.0,0.0,0.0,0.0,0.0,0.0,0.0,0.0,0.0,0.0,0.0,0.0,0.0,0.0,0.0,0.0,0.0,0.0,0.0,0.0,0.0,0.0,0.0,0.0,0.0,0.0,0.0,0.0,0.0,0.0,0.0,0.0,0.0,0.0,0.0,0.0,0.0,0.0,0.0,0.0,0.0,0.0,0.0,0.0,0.0,0.0,0.0,0.0,0.0,0.0,0.0,0.0,0.0,0.0,0.0,0.0,0.0,0.0,0.0,0.0,0.0,0.0,0.0,0.0,0.0,0.0,0.0,0.0,0.0,0.0,0.0,0.0,0.0,0.0,0.0,0.0,0.0,0.0,0.0,0.0,0.0,0.0,0.0,0.0,0.0,0.0,0.0,0.0,0.0,0.0,0.0,0.0,0.0,0.0,0.0,0.0,0.0,0.0,0.0,0.0,0.0,0.0,0.0,0.0,0.0,0.0,0.0,0.0,0.0,0.0,0.0,0.0,0.0,0.0,0.0,0.0,0.0,0.0,0.0,0.0,0.0,0.0,0.0,0.0,0.0,0.0,0.0,0.0,0.0,0.0,0.0,0.0,0.0,0.0,0.0,0.0,0.0,0.0,0.0,0.0,0.0,0.0,0.0,0.0,0.0,0.0,0.0,0.0,0.0,0.0,0.0,0.0,0.0,0.0,0.0,0.0,0.0,0.0,0.0,0.0,0.0,0.0,0.0,0.0,0.0,0.0,0.0,0.0,0.0,0.0,0.0,0.0,0.0,0.0,0.0,0.0,0.0,0.0,0.0,0.0,0.0,0.0,0.0,0.0,0.0,0.0,0.0,0.0,0.0,0.0,0.0,0.0,0.0,0.0,0.0,0.0,0.0,0.0,0.0,0.0,0.0,0.0,0.0,0.0,0.0,0.0,0.0,0.0,0.0,0.0,0.0,0.0,0.0,0.0,0.0,0.0,0.0,0.0,0.0,0.0,0.0,0.0,0.0,0.0,0.0,0.0,0.0,0.0,0.0,0.0,0.0,0.0,0.0,0.0,0.0,0.0,0.0,0.0,0.0,0.0,0.0,0.0,0.0,0.0,0.0,0.0,0.0,0.0,0.0,0.0,0.0,0.0,0.0,0.0,0.0,0.0,0.0,0.0,0.0,0.0,0.0,0.0,0.0,0.0,0.0,0.0,0.0,0.0,0.0,0.0,0.0,0.0,0.0,0.0,0.0,0.0,0.0,0.0,0.0,0.0,0.0,0.0,0.0,0.0,0.0,0.0,0.0,0.0,0.0,0.0,0.0,0.0,0.0,0.0,0.0,0.0,0.0,0.0,0.0,0.0,0.0,0.0,0.0,0.0,0.0,0.0,0.0,0.0,0.0,0.0,0.0,0.0,0.0,0.0,0.0,0.0,0.0,0.0,0.0,0.0,0.0,0.0,0.0,0.0,0.0,0.0,0.0,0.0,0.0,0.0,0.0,0.0,0.0,0.0,0.0,0.0,0.0,0.0,0.0,0.0,0.0,0.0,0.0,0.0,0.0,0.0,0.0,0.0,0.0,0.0,0.0,0.0,0.0,0.0,0.0,0.0,0.0,0.0,0.0,0.0,0.0,0.0,0.0,0.0,0.0,0.0,0.0,0.0,0.0,0.0,0.0,0.0,0.0,0.0,0.0,0.0,0.0,0.0,0.0,0.0,0.0,0.0,0.0,0.0,0.0,0.0,0.0,0.0,0.0,0.0,0.0,0.0,0.0,0.0,0.0,0.0,0.0,0.0,0.0,0.0,0.0,0.0,0.0,0.0,0.0,0.0,0.0,0.0,0.0,0.0,0.0,0.0,0.0,0.0,0.0,0.0,0.0,0.0,0.0,0.0,0.0,0.0,0.0,0.0,0.0,0.0,0.0,0.0,0.0,0.0,0.0,0.0,0.0,0.0,0.0,0.0,0.0,0.0,0.0,0.0,0.0,0.0,0.0,0.0,0.0,0.0,0.0,0.0,0.0,0.0,0.0,0.0,0.0,0.0,0.0,0.0,0.0,0.0,0.0,0.0,0.0,0.0,0.0,0.0,0.0,0.0,0.0,0.0,0.0,0.0,0.0,0.0,0.0,0.0,0.0,0.0,0.0,0.0,0.0,0.0,0.0,0.0,0.0,0.0,0.0,0.0,0.0,0.0,0.0,0.0,0.0,0.0,0.0,0.0,0.0,0.0,0.0,0.0,0.0,0.0,0.0,0.0,0.0,0.0,0.0,0.0,0.0,0.0,0.0,0.0,0.0,0.0,0.0,0.0,0.0,0.0,0.0,0.0,0.0,0.0,0.0,0.0,0.0,0.0,0.0,0.0,0.0,0.0,0.0,0.0,0.0,0.0,0.0,0.0,0.0,0.0,0.0,0.0,0.0,0.0,0.0,0.0,0.0,0.0,0.0,0.0,0.0,0.0,0.0,0.0,0.0,0.0,0.0,0.0,0.0,0.0,0.0,0.0,0.0,0.0,0.0,0.0,0.0,0.0,0.0,0.0,0.0,0.0,0.0,0.0,0.0,0.0,0.0,0.0,0.0,0.0,0.0,0.0,0.0,0.0,0.0,0.0,0.0,0.0,0.0,0.0,0.0,0.0,0.0,0.0,0.0,0.0,0.0,0.0,0.0,0.0,0.0,0.0,0.0,0.0,0.0,0.0,0.0,0.0,0.0,0.0,0.0,0.0,0.0,0.0,0.0,0.0,0.0,0.0,0.0,0.0,0.0,0.0,0.0,0.0,0.0,0.0,0.0,0.0,0.0,0.0,0.0,0.0,0.0,0.0,0.0,0.0,0.0,0.0,0.0,0.0,0.0,0.0,0.0,0.0,0.0,0.0,0.0,0.0,0.0,0.0,0.0,0.0,0.0,0.0,0.0,0.0,0.0,0.0,0.0,0.0,0.0,0.0,0.0,0.0,0.0,0.0,0.0,0.0,0.0,0.0,0.0,0.0,0.0,0.0,0.0,0.0,0.0,0.0,0.0,0.0,0.0,0.0,0.0,0.0,0.0,0.0,0.0,0.0,0.0,0.0,0.0,0.0,0.0,0.0,0.0,0.0,0.0,0.0,0.0,0.0,0.0,0.0,0.0,0.0,0.0,0.0,0.0,0.0,0.0,0.0,0.0,0.0,0.0,0.0,0.0,0.0,0.0,0.0,0.0,0.0,0.0,0.0,0.0,0.0,0.0,0.0,0.0,0.0,0.0,0.0,0.0,0.0,0.0,0.0,0.0,0.0,0.0,0.0,0.0,0.0,0.0,0.0,0.0,0.0,0.0,0.0,0.0,0.0,0.0,0.0,0.0,0.0,0.0,0.0,0.0,0.0,0.0,0.0,0.0,0.0,0.0,0.0,0.0,0.0,0.0,0.0,0.0,0.0,0.0,0.0,0.0,0.0,0.0,0.0,0.0,0.0,0.0,0.0,0.0,0.0,0.0,0.0,0.0,0.0,0.0,0.0,0.0,0.0,0.0,0.0,0.0,0.0,0.0,0.0,0.0,0.0,0.0,0.0,0.0,0.0,0.0,0.0,0.0,0.0,0.0,0.0,0.0,0.0,0.0,0.0,0.0,0.0,0.0,0.0,0.0,0.0,0.0,0.0,0.0,0.0,0.0,0.0,0.0,0.0,0.0,0.0,0.0,0.0,0.0,0.0,0.0,0.0,0.0,0.0,0.0,0.0,0.0,0.0,0.0,0.0,0.0,0.0,0.0,0.0,0.0,0.0,0.0,0.0,0.0,0.0,0.0,0.0,0.0,0.0,0.0,0.0,0.0,0.0,0.0,0.0,0.0,0.0,0.0,0.0,0.0,0.0,0.0,0.0,0.0,0.0,0.0,0.0,0.0,0.0,0.0,0.0,0.0,0.0,0.0,0.0,0.0,0.0,0.0,0.0,0.0,0.0,0.0,0.0,0.0,0.0,0.0,0.0,0.0,0.0,0.0,0.0,0.0,0.0,0.0,0.0,0.0,0.0,0.0,0.0,0.0,0.0,0.0,0.0,0.0,0.0,0.0,0.0,0.0,0.0,0.0,0.0,0.0,0.0,0.0,0.0,0.0,0.0,0.0,0.0,0.0,0.0,0.0,0.0,0.0,0.0,0.0,0.0,0.0,0.0,0.0,0.0,0.0,0.0,0.0,0.0,0.0,0.0,0.0,0.0,0.0,0.0,0.0,0.0,0.0,0.0,0.0,0.0,0.0,0.0,0.0,0.0,0.0,0.0,0.0,0.0,0.0,0.0,0.0,0.0,0.0,0.0,0.0,0.0,0.0,0.0,0.0,0.0,0.0,0.0,0.0,0.0,0.0,0.0,0.0,0.0,0.0,0.0,0.0,0.0,0.0,0.0,0.0,0.0,0.0,0.0,0.0,0.0,0.0,0.0,0.0,0.0,0.0,0.0,0.0,0.0,0.0,0.0,0.0,0.0,0.0,0.0,0.0,0.0,0.0,0.0,0.0,0.0,0.0,0.0,0.0,0.0,0.0,0.0,0.0,0.0,0.0,0.0,0.0,0.0,0.0,0.0,0.0,0.0,0.0,0.0,0.0,0.0,0.0,0.0,0.0,0.0,0.0,0.0,0.0,0.0,0.0,0.0,0.0,0.0,0.0,0.0,0.0,0.0,0.0,0.0,0.0,0.0,0.0,0.0,0.0,0.0,0.0,0.0,0.0,0.0,0.0,0.0,0.0,0.0,0.0,0.0,0.0,0.0,0.0,0.0,0.0,0.0,0.0,0.0,0.0,0.0,0.0,0.0,0.0,0.0,0.0,0.0,0.0,0.0,0.0,0.0,0.0,0.0,0.0,0.0,0.0,0.0,0.0,0.0,0.0,0.0,0.0,0.0,0.0,0.0,0.0,0.0,0.0,0.0,0.0,0.0,0.0,0.0,0.0,0.0,0.0,0.0,0.0,0.0,0.0,0.0,0.0,0.0,0.0,0.0,0.0,0.0,0.0,0.0,0.0,0.0,0.0,0.0,0.0,0.0,0.0,0.0,0.0,0.0,0.0,0.0,0.0,0.0,0.0,0.0,0.0,0.0,0.0,0.0,0.0,0.0,0.0,0.0,0.0,0.0,0.0,0.0,0.0,0.0,0.0,0.0,0.0,0.0,0.0,0.0,0.0,0.0,0.0,0.0,0.0,0.0,0.0,0.0,0.0,0.0,0.0,0.0,0.0,0.0,0.0,0.0,0.0,0.0,0.0,0.0,0.0,0.0,0.0,0.0,0.0,0.0,0.0,0.0,0.0,0.0,0.0,0.0,0.0,0.0,0.0,0.0,0.0,0.0,0.0,0.0,0.0,0.0,0.0,0.0,0.0,0.0,0.0,0.0,-0.883,-0.8368,0.0,0.0,0.0,0.0,0.0,0.0,0.0,0.0,0.0,0.0,0.0,0.0,0.0,0.0,0.0,0.0,0.0,0.0,0.0,0.0,0.0,0.0,0.0,-1.9083,-1.8924,-1.8924,-1.8922,-1.8764,-1.8488,0.0,0.0,0.0,0.0,0.0,-1.819,-1.8711,-1.8841,-1.853,-1.8733,-1.868,-1.8382,-1.8382,-1.8122,-1.7709,0.0,0.0,0.0,0.0,0.0,0.0,0.0,0.0,0.0,0.0,0.0,0.0,0.0,0.0,0.0,0.0,0.0,0.0,0.0,0.0,0.0,0.0,0.0,0.0,0.0,0.0,0.0,0.0,0.0,0.0,0.0,0.0,0.0,0.0,0.0,0.0,0.0,0.0,0.0,0.0,0.0,0.0,0.0,0.0,0.0,0.0,0.0,0.0,0.0,0.0,0.0,0.0,0.0,0.0,0.0,0.0,0.0,0.0,0.0,0.0,0.0,0.0,0.0,0.0,0.0,0.0,0.0,0.0,0.0,0.0,-0.9137,-0.8474,0.0,0.0,0.0,0.0,0.0,0.0,0.0,0.0,0.0,0.0,0.0,0.0,0.0,0.0,0.0,0.0,0.0,0.0,0.0,0.0,0.0,-1.9811,-1.9811,-1.9886,-1.9962,-1.9962,-2.0035,-2.0051,-1.9941,-1.9356,0.0,0.0,-1.9006,-1.902,-1.9108,-2.003,-2.0257,-1.9695,-2.0092,-1.9998,-1.9462,-1.9462,-1.8964,0.0,0.0,0.0,0.0,0.0,0.0,0.0,0.0,0.0,0.0,0.0,0.0,0.0,0.0,0.0,0.0,0.0,0.0,0.0,0.0,0.0,0.0,0.0,0.0,0.0,0.0,0.0,0.0,0.0,0.0,0.0,0.0,0.0,0.0,0.0,0.0,0.0,0.0,0.0,0.0,0.0,0.0,0.0,0.0,0.0,0.0,0.0,0.0,0.0,0.0,0.0,0.0,0.0,0.0,0.0,0.0,0.0,0.0,0.0,0.0,0.0,0.0,0.0,0.0,0.0,-1.1891,-1.1891,-1.1891,-1.1807,-1.1752,-1.1663,-0.9765,-0.8965,-0.8938,-0.8736,0.0,0.0,0.0,0.0,0.0,0.0,0.0,0.0,0.0,0.0,0.0,0.0,0.0,0.0,0.0,0.0,0.0,0.0,0.0,-1.9811,-1.9811,-2.0289,-2.0591,-2.0591,-2.1011,-2.1061,-2.0532,-2.038,-2.0294,-2.0167,-2.0183,-2.0388,-2.076,-2.0923,-2.0968,-2.0873,-2.0942,-2.0933,-2.0837,-2.0837,-2.045,-1.976,0.0,0.0,0.0,0.0,0.0,0.0,0.0,0.0,0.0,0.0,0.0,0.0,0.0,0.0,0.0,0.0,0.0,0.0,0.0,0.0,0.0,0.0,0.0,0.0,0.0,0.0,0.0,0.0,0.0,0.0,0.0,0.0,0.0,0.0,0.0,0.0,0.0,0.0,0.0,0.0,0.0,0.0,0.0,0.0,-1.4631,-1.4022,0.0,0.0,0.0,0.0,0.0,0.0,0.0,0.0,0.0,0.0,0.0,0.0,0.0,-1.3086,-1.3086,-1.3086,-1.3086,-1.3086,-1.3086,-1.3086,-1.3059,-1.2602,-1.2363,-1.2336,-1.1543,0.0,-1.0392,-0.9766,0.0,0.0,0.0,0.0,0.0,0.0,0.0,0.0,0.0,0.0,0.0,0.0,0.0,0.0,0.0,0.0,0.0,0.0,0.0,0.0,0.0,-2.0817,-2.1144,-2.1144,-2.1644,-2.1831,-2.1576,-2.1496,-2.1434,-2.1367,-2.1682,-2.1966,-2.217,-2.2807,-2.3007,-2.2628,-2.2236,-2.2072,-2.2072,-2.2072,-2.1675,-2.0938,-2.1107,-2.0398,-1.9098,-1.9098,0.0,0.0,0.0,0.0,0.0,0.0,0.0,0.0,0.0,0.0,0.0,0.0,0.0,0.0,0.0,0.0,0.0,0.0,0.0,0.0,0.0,0.0,0.0,0.0,0.0,0.0,0.0,0.0,0.0,0.0,0.0,0.0,0.0,0.0,0.0,0.0,0.0,0.0,0.0,-1.5766,-1.5546,-1.4956,-1.4872,-1.4638,0.0,0.0,0.0,0.0,0.0,0.0,0.0,0.0,0.0,-1.4304,-1.4524,-1.4634,-1.4634,-1.4634,-1.4634,-1.4634,-1.4634,-1.4634,-1.4634,-1.4424,-1.4285,-1.4255,-1.3617,-1.2972,-1.2212,-1.0828,-1.0264,-1.0221,0.0,0.0,0.0,0.0,-0.9486,-0.9472,0.0,0.0,0.0,0.0,0.0,0.0,0.0,0.0,0.0,0.0,0.0,0.0,-2.111,-2.1591,-2.1891,-2.1722,-2.2196,-2.2493,-2.2493,-2.2578,-2.2659,-2.2659,-2.3228,-2.3553,-2.3585,-2.4421,-2.4613,-2.4067,-2.3547,-2.3313,-2.3313,-2.3313,-2.2785,-2.1885,-2.248,-2.1531,-1.945,-1.9528,-1.9452,0.0,0.0,0.0,0.0,0.0,0.0,0.0,0.0,0.0,0.0,0.0,0.0,0.0,0.0,0.0,0.0,0.0,0.0,0.0,0.0,0.0,0.0,0.0,0.0,0.0,0.0,0.0,0.0,0.0,0.0,0.0,0.0,0.0,0.0,0.0,0.0,0.0,0.0,-1.6765,-1.6539,-1.5911,-1.5853,-1.5642,0.0,0.0,0.0,0.0,0.0,0.0,-1.5091,-1.5186,-1.5258,-1.5258,-1.5533,-1.5735,-1.5845,-1.5845,-1.59,-1.601,-1.601,-1.601,-1.601,-1.601,-1.5955,-1.5812,-1.5322,-1.4726,-1.3999,-1.1997,-1.1004,-1.0723,-1.023,-1.001,-0.993,-0.982,-0.9793,-0.978,0.0,0.0,0.0,0.0,0.0,0.0,0.0,0.0,0.0,0.0,0.0,-2.1747,-2.2271,-2.2792,-2.2879,-2.23,-2.2744,-2.307,-2.307,-2.3725,-2.4064,-2.4064,-2.4678,-2.5046,-2.5179,-2.5135,-2.4968,-2.4768,-2.4711,-2.4678,-2.4678,-2.4678,-2.3911,-2.2559,-2.2593,-2.1749,-2.0363,-2.0663,-2.0424,-1.972,0.0,0.0,0.0,0.0,0.0,0.0,0.0,0.0,0.0,0.0,0.0,0.0,0.0,0.0,0.0,0.0,0.0,0.0,0.0,0.0,0.0,0.0,0.0,0.0,0.0,0.0,0.0,0.0,0.0,0.0,0.0,0.0,0.0,0.0,0.0,0.0,0.0,0.0,0.0,-1.7185,-1.7107,0.0,0.0,0.0,0.0,-1.6965,-1.6777,-1.6672,-1.6672,-1.6027,-1.5661,-1.5661,-1.568,-1.5881,-1.6285,-1.6251,-1.6468,-1.6835,-1.6835,-1.6835,-1.6835,-1.6835,-1.6633,-1.6251,-1.6218,-1.5999,-1.5422,-1.3357,-1.1902,-1.0994,-1.0961,-1.0787,-1.0519,-1.0194,-1.01,-1.006,0.0,0.0,0.0,0.0,0.0,-2.2263,-2.1983,-2.2073,-2.2232,-2.2274,-2.2826,-2.3178,-2.3119,-2.3507,-2.3615,-2.3174,-2.3234,-2.333,-2.342,-2.4019,-2.4387,-2.4387,-2.5307,-2.6005,-2.6396,-2.633,-2.6289,-2.6222,-2.6222,-2.6155,-2.603,-2.603,-2.5432,-2.4341,-2.4341,-2.3497,-2.2033,-2.0991,-2.0428,-2.0162,-1.9996,-1.9934,0.0,0.0,0.0,0.0,0.0,0.0,0.0,0.0,0.0,0.0,0.0,0.0,0.0,0.0,0.0,0.0,0.0,0.0,0.0,0.0,0.0,0.0,0.0,0.0,0.0,0.0,0.0,0.0,0.0,0.0,0.0,0.0,0.0,0.0,0.0,0.0,0.0,-1.8247,-1.8159,0.0,-1.7331,-1.7437,-1.7551,-1.7551,-1.7802,-1.7954,-1.7954,-1.8246,-1.8415,-1.8415,-1.8149,-1.8104,-1.8222,-1.7727,-1.7514,-1.7661,-1.7661,-1.7661,-1.7661,-1.7661,-1.7569,-1.7441,-1.7441,-1.7099,-1.6491,-1.5719,-1.463,-1.3295,-1.2369,-1.1964,-1.185,-1.1736,-1.1288,-1.0725,0.0,0.0,0.0,0.0,-2.2955,-2.2952,-2.2924,-2.3079,-2.3336,-2.3582,-2.4132,-2.4502,-2.445,-2.4496,-2.4452,-2.4247,-2.3776,-2.3675,-2.4183,-2.4606,-2.4957,-2.5138,-2.6097,-2.676,-2.6977,-2.7079,-2.7079,-2.6977,-2.7216,-2.719,-2.7018,-2.6993,-2.6507,-2.5564,-2.5396,-2.4587,-2.3268,-2.1867,-2.1021,-2.0602,-2.0457,-2.0395,-2.0354,0.0,0.0,0.0,0.0,0.0,0.0,0.0,0.0,0.0,0.0,0.0,0.0,0.0,0.0,0.0,0.0,0.0,0.0,0.0,0.0,0.0,0.0,0.0,0.0,0.0,0.0,0.0,0.0,0.0,0.0,0.0,0.0,0.0,0.0,-1.97,-1.9529,-1.9097,-1.9037,-1.8931,-1.8711,-1.8831,-1.9014,-1.9187,-1.9447,-1.9606,-1.9606,-1.991,-2.0087,-2.0087,-1.9584,-1.9389,-1.949,-1.8714,-1.8356,-1.8484,-1.8484,-1.8484,-1.8484,-1.8484,-1.8411,-1.8283,-1.8283,-1.7947,-1.7353,-1.7353,-1.6756,-1.5686,-1.4013,-1.3199,-1.2934,-1.2699,-1.2131,-1.1561,0.0,0.0,0.0,-2.3074,-2.3119,-2.3398,-2.4181,-2.3891,-2.4206,-2.5957,-2.5778,-2.5647,-2.6252,-2.5797,-2.5439,-2.5412,-2.4363,-2.4187,-2.5335,-2.5572,-2.5921,-2.6408,-2.711,-2.7348,-2.7011,-2.7214,-2.724,-2.7037,-2.7635,-2.7847,-2.7637,-2.7646,-2.7126,-2.613,-2.5588,-2.4933,-2.4095,-2.3372,-2.2333,-2.1167,-2.0638,-2.0436,-2.0436,0.0,0.0,0.0,0.0,0.0,0.0,0.0,0.0,0.0,0.0,0.0,0.0,0.0,0.0,0.0,0.0,0.0,0.0,0.0,0.0,0.0,0.0,0.0,0.0,0.0,0.0,0.0,0.0,0.0,0.0,0.0,0.0,0.0,-1.9815,-1.9746,-1.9769,-1.9769,-1.9769,-1.9975,-2.0435,-2.0948,-2.1454,-2.1871,-2.1743,-2.1664,-2.1664,-2.0977,-2.0623,-2.0623,-1.9857,-1.9583,-1.9995,-1.9202,-1.9003,-1.9371,-1.9371,-1.9371,-1.9332,-1.9332,-1.9091,-1.8724,-1.8724,-1.8522,-1.8118,-1.8118,-1.8118,-1.7915,-1.5719,-1.4429,-1.3699,-1.2979,-1.2695,-1.2511,0.0,0.0,-2.3023,-2.2955,-2.3522,-2.4017,-2.4147,-2.4892,-2.5648,-2.6125,-2.6491,-2.6637,-2.6469,-2.6203,-2.596,-2.5715,-2.5742,-2.5757,-2.5686,-2.6593,-2.7168,-2.7196,0.0,0.0,-2.7382,-2.784,-2.8082,-2.8014,-2.8612,-2.8827,-2.8624,-2.8624,-2.8313,-2.7737,-2.7042,-2.6311,-2.549,-2.4756,-2.3979,-2.3178,-2.1893,-2.1424,-2.1383,0.0,0.0,0.0,0.0,0.0,0.0,0.0,0.0,0.0,0.0,0.0,0.0,0.0,0.0,0.0,0.0,0.0,0.0,0.0,0.0,0.0,0.0,0.0,0.0,0.0,0.0,0.0,0.0,0.0,0.0,0.0,-2.1261,-2.133,-2.0856,-2.1078,-2.1307,-2.1307,-2.1629,-2.1904,-2.2042,-2.2213,-2.2351,-2.2455,-2.273,-2.2898,-2.2898,-2.3095,-2.3167,-2.3167,-2.2403,-2.2025,-2.2152,-2.1343,-2.0986,-2.1106,-2.1106,-2.076,-2.0157,-2.0157,-1.9788,-1.9146,-1.9146,-1.9072,-1.8981,-1.8981,-1.8815,-1.839,-1.6951,-1.6272,-1.6015,-1.5549,-1.4695,-1.3629,0.0,-2.3269,-2.334,-2.3786,-2.4177,-2.4599,-2.5077,-2.5829,-2.6471,-2.6738,-2.7123,-2.7255,-2.6997,-2.6683,-2.6496,-2.6549,-2.6606,-2.6749,-2.6944,-2.7629,-2.7873,0.0,0.0,-2.762,-2.7889,-2.8203,-2.849,-2.8786,-2.9353,-2.9506,-2.9362,-2.9362,-2.9181,-2.8828,-2.8087,-2.7495,-2.6992,-2.6019,-2.5355,-2.4831,-2.3453,-2.2644,-2.2268,-2.1993,-2.1702,-2.1379,-2.1229,-2.0988,-2.0638,-2.0182,0.0,0.0,0.0,0.0,0.0,0.0,0.0,0.0,0.0,0.0,0.0,0.0,0.0,0.0,0.0,0.0,0.0,0.0,0.0,0.0,0.0,0.0,0.0,0.0,-2.172,-2.1871,-2.1845,-2.2065,-2.2249,-2.2249,-2.2501,-2.2754,-2.2983,-2.3006,-2.3098,-2.3305,-2.3603,-2.3728,-2.3728,-2.4039,-2.42,-2.42,-2.3409,-2.3001,-2.3001,-2.2193,-2.1603,-2.126,-2.126,-2.0991,-2.0508,-2.0157,-1.9923,-1.9766,-1.945,-1.9292,-1.9292,-1.9292,-1.9164,-1.8887,0.0,0.0,0.0,0.0,-1.5903,-1.4712,-2.3614,-2.3563,-2.3666,-2.4791,-2.4853,-2.511,-2.6287,-2.6637,-2.6926,-2.7525,-2.7585,-2.7585,-2.7585,-2.7126,-2.7052,-2.7654,-2.735,-2.7598,-2.874,-2.8669,0.0,-2.7656,-2.7623,-2.7852,-2.8394,-2.8472,-2.8778,-2.9379,-2.9954,-3.0105,-2.9958,-2.9958,-2.9848,-2.9599,-2.8941,-2.8613,-2.8439,-2.7149,-2.6505,-2.6154,-2.4991,-2.395,-2.3113,-2.3113,-2.2681,-2.2113,-2.2389,-2.1983,-2.1224,-2.0767,0.0,0.0,0.0,0.0,0.0,0.0,0.0,0.0,0.0,0.0,0.0,0.0,0.0,0.0,0.0,0.0,0.0,0.0,0.0,0.0,0.0,0.0,0.0,0.0,-2.2032,-2.2249,-2.2708,-2.2823,-2.2857,-2.2811,-2.2823,-2.3029,-2.3453,-2.3499,-2.3682,-2.4154,-2.42,-2.42,-2.42,-2.42,0.0,0.0,0.0,-2.326,-2.3304,-2.2606,-2.1845,-2.1112,-2.1112,-2.0976,-2.0683,-1.9998,-1.9921,-2.0313,-1.9608,-1.9292,-1.9292,-1.9292,-1.9292,-1.9256,-1.8926,-1.854,-1.808,-1.7424,-1.6653,-1.5803,-2.3151,-2.333,-2.3485,-2.364,-2.4699,-2.5553,-2.5749,-2.6697,-2.7435,-2.7585,-2.7585,-2.7585,-2.7585,-2.7484,-2.7697,-2.8338,-2.8809,-2.9337,-3.0074,0.0,-2.903,-2.8352,-2.832,-2.8352,-2.8394,-2.8891,-2.9405,-2.9944,-3.0529,-3.0817,-3.0779,-3.0779,-3.0667,-3.0441,-3.03,-2.9879,-2.9207,-2.8366,-2.7717,-2.7157,-2.5729,-2.4636,-2.3913,-2.3913,-2.3804,-2.3672,-2.3727,-2.3267,-2.2561,-2.2085,-2.1479,-2.0907,-2.0498,0.0,0.0,0.0,0.0,0.0,0.0,0.0,0.0,0.0,0.0,0.0,0.0,0.0,0.0,0.0,0.0,0.0,0.0,0.0,0.0,-2.2625,-2.2857,-2.3155,-2.3247,-2.3649,-2.3741,-2.3316,-2.3649,-2.3948,-2.4039,-2.4062,-2.4085,-2.4177,-2.42,-2.42,-2.42,-2.42,-2.4384,-2.4751,-2.4625,-2.4755,-2.5188,-2.5011,-2.4857,-2.4703,-2.4703,0.0,-2.2119,-2.1963,-2.1017,-1.9529,-1.9371,-1.9292,-1.9292,-1.9292,-1.9292,-1.9292,-1.9219,-1.8944,-1.8557,-1.8404,-1.7693,-1.675,-2.3202,-2.3407,-2.374,-2.4339,-2.5177,-2.5745,-2.5721,-2.6762,-2.7484,-2.7178,-2.7408,-2.7585,-2.7585,-2.7914,-2.8218,-2.8577,-2.9475,-3.018,0.0,-3.0208,-2.9563,-2.8546,-2.8514,-2.8618,-2.8839,-2.9153,-2.9693,-3.0555,-3.0843,-3.0973,-3.0973,-3.0973,-3.0962,-3.0849,-3.0736,-3.0467,-3.0057,-2.9098,-2.8451,-2.7881,-2.6627,-2.5791,-2.524,-2.485,-2.4456,-2.4145,-2.4564,-2.4204,-2.3526,-2.3257,-2.2681,-2.1998,-2.1764,-2.1276,-2.0726,0.0,0.0,0.0,0.0,0.0,0.0,0.0,0.0,0.0,0.0,0.0,0.0,0.0,0.0,-2.3968,-2.326,0.0,-2.3715,-2.3121,-2.3247,-2.3499,-2.3751,-2.4039,-2.4108,-2.382,-2.4039,-2.42,-2.42,-2.4407,-2.4545,-2.4545,-2.4797,-2.4958,-2.4958,-2.4958,-2.5073,-2.5302,-2.5302,-2.544,-2.5716,-2.5716,-2.5499,-2.5088,-2.5088,-2.4525,-2.3502,-2.3068,-2.2309,-2.1172,-2.079,-2.0233,-1.9604,-1.9384,-1.9292,-1.9292,-1.9292,-1.9182,-1.8999,-1.8999,-1.8638,-1.8089,-2.339,-2.3569,-2.3985,-2.5077,-2.5495,-2.5632,-2.5632,-2.6654,-2.7203,-2.6575,-2.7152,-2.756,-2.7433,-2.8136,-2.8697,-2.8936,-3.0043,-3.0626,0.0,-3.0628,-3.0025,-2.8578,-2.8771,-2.9017,-2.9284,-2.9416,-2.9968,-3.0973,-3.0973,-3.0973,-3.0973,-3.0973,-3.0973,-3.0973,-3.0849,-3.0773,-3.0696,-2.9481,-2.881,-2.8431,-2.7403,-2.6841,-2.6533,-2.5886,-2.5205,-2.4707,-2.53,-2.5028,-2.4397,-2.4348,-2.3841,-2.3276,-2.3202,-2.2533,-2.1733,-2.1718,-2.1443,0.0,0.0,0.0,0.0,0.0,0.0,0.0,0.0,0.0,-2.3742,-2.4302,-2.4835,-2.4939,-2.4198,-2.4454,-2.4595,-2.3968,-2.3792,-2.386,-2.4276,-2.4342,-2.4338,-2.4338,-2.4338,-2.4338,-2.4338,-2.4774,-2.5073,-2.5073,-2.5463,-2.5716,-2.5716,-2.5716,-2.5761,-2.5853,-2.5853,-2.5899,-2.6014,-2.6014,-2.5678,-2.5001,-2.5001,-2.4878,-2.4609,-2.3972,-2.3487,-2.3081,-2.2247,-2.1208,-1.9966,-1.9677,-1.9494,-1.9421,-1.9421,-1.9366,-1.9292,-1.9292,-1.9292,-1.9173,0.0,-2.3717,-2.392,-2.4041,-2.4622,-2.5076,-2.5076,-2.6041,-2.6575,-2.5987,-2.689,-2.7382,-2.6867,-2.7876,-2.9056,-3.0193,-3.0943,0.0,-3.0539,-3.1073,-3.0539,-2.8578,-2.9656,-2.9963,-2.9319,-2.988,-3.0468,-3.0973,-3.0973,-3.0973,-3.0973,-3.0973,-3.0973,-3.0973,-3.0999,-3.0999,-3.0884,-2.9564,-2.8964,-2.8825,-2.7541,-2.6977,-2.6943,-2.6841,-2.6645,-2.6405,-2.6371,-2.5965,-2.5417,-2.5229,-2.4743,-2.4204,-2.4036,-2.4013,-2.4003,-2.3822,0.0,-2.3695,-2.3804,-2.3948,-2.4341,-2.5467,-2.5118,-2.4884,0.0,0.0,-2.5906,-2.6536,-2.6925,-2.6958,-2.6205,-2.6255,-2.6236,-2.5693,-2.5168,-2.4838,-2.4909,-2.4875,-2.4843,-2.4843,-2.4843,-2.4843,-2.4843,-2.5302,-2.5624,-2.5624,-2.567,-2.5716,-2.5716,-2.5716,-2.5922,-2.6398,-2.6421,-2.6588,-2.7007,-2.703,-2.6966,-2.6885,-2.6885,-2.6269,-2.5135,-2.5054,-2.4371,-2.3243,-2.2288,-2.132,-2.0448,-2.0351,-2.0173,-1.982,-1.982,-1.9582,-1.9292,-1.9292,-1.9292,-1.9311,0.0,-2.3747,-2.392,-2.4008,-2.4563,-2.4877,-2.4534,-2.5439,-2.596,-2.5384,-2.6041,-2.6575,-2.6709,-2.8175,-2.9426,-2.9981,-3.092,0.0,-3.1102,-3.0955,-3.0359,-2.9156,-2.9251,-2.9154,-2.876,-2.9064,-2.9645,-3.0503,-3.0503,-3.066,-3.0973,-3.0973,-3.0973,-3.0973,-3.0634,-3.0503,-3.0424,-2.9177,-2.8577,-2.8394,-2.7524,0.0,-2.6977,-2.6977,-2.7011,-2.7019,-2.6841,-2.6543,0.0,0.0,-2.5652,-2.5063,-2.485,-2.4528,-2.4217,-2.4108,-2.4108,0.0,-2.4791,-2.5346,-2.5931,0.0,-2.6414,-2.6277,-2.7222,-2.7087,-2.6884,-2.7222,-2.739,-2.7323,-2.6679,-2.6645,-2.6543,0.0,-2.5687,-2.5502,-2.548,-2.5426,-2.5424,-2.5386,-2.5624,-2.5693,-2.5417,-2.5853,-2.6152,-2.6152,-2.6427,-2.6548,-2.6548,-2.6548,-2.6703,-2.6909,-2.6909,-2.7024,-2.719,-2.719,-2.719,-2.719,-2.719,-2.6912,-2.6359,-2.6359,-2.5776,-2.4675,-2.3267,-2.2291,-2.164,-2.1118,-2.0662,-2.0223,-2.0223,-2.0173,-1.9952,-1.9476,-1.9292,-1.9292,0.0,-2.3776,-2.3979,-2.4096,-2.4447,-2.4591,-2.4184,-2.4935,-2.5384,-2.4793,-2.5356,-2.6098,-2.6888,-2.8084,-2.9046,-2.9609,-3.0309,0.0,0.0,-3.048,-3.0025,-2.9504,-2.903,-2.8752,-2.8667,-2.8667,-2.9065,-2.9902,-2.9902,-3.0111,-3.0529,-3.0529,-3.0529,-3.0503,-3.0085,-2.9902,-2.9787,-2.8804,-2.8317,-2.8127,0.0,0.0,-2.7146,-2.7146,-2.7214,-2.7281,-2.7079,-2.6909,0.0,0.0,-2.644,-2.5965,-2.5756,-2.5311,-2.4886,-2.4814,-2.4791,-2.4992,-2.5767,-2.6414,0.0,-2.7255,-2.7248,-2.7214,-2.7423,-2.7423,-2.7356,-2.749,-2.749,-2.739,-2.6985,-2.6918,-2.6782,-2.6414,-2.6367,-2.63,-2.6069,-2.616,-2.6156,-2.5954,-2.6358,-2.6542,-2.6175,-2.6473,-2.668,-2.668,-2.7024,-2.719,-2.719,-2.719,-2.719,-2.719,-2.719,-2.719,-2.719,-2.719,-2.719,-2.719,-2.719,-2.719,-2.719,-2.7067,-2.6569,-2.5714,-2.4346,-2.3422,-2.2788,-2.2028,-2.1372,-2.0837,-2.0644,-2.0486,-2.0364,-1.9779,-1.9487,-1.9457,0.0,0.0,-2.4096,-2.4096,-2.4125,-2.4125,-2.4096,-2.462,-2.482,-2.4187,-2.5077,-2.6268,-2.7523,-2.7198,-2.7598,-2.9348,-2.9052,0.0,-2.9538,-2.9535,-2.9504,-2.9504,-2.9473,-2.9434,-2.9381,-2.9375,-2.9334,-2.9301,-2.9301,-2.9301,-2.9362,-2.9362,-2.9362,-2.9362,-2.9301,-2.9301,-2.9274,-2.8682,-2.842,0.0,0.0,0.0,-2.749,-2.749,-2.739,-2.7281,-2.7079,0.0,0.0,0.0,-2.6977,-2.6909,-2.6714,-2.6773,0.0,-2.6533,-2.6508,-2.6679,-2.6909,0.0,-2.7315,-2.7456,-2.749,-2.749,-2.749,-2.749,-2.749,-2.749,-2.749,-2.749,-2.749,-2.749,-2.7456,-2.7456,-2.7516,-2.7314,-2.6672,-2.7021,-2.7113,-2.6569,-2.6887,-2.7167,0.0,-2.7144,-2.7167,-2.7167,-2.719,-2.719,-2.719,-2.719,-2.719,-2.719,-2.719,-2.719,-2.719,-2.719,-2.719,-2.719,-2.719,-2.719,-2.719,-2.6757,-2.6257,-2.5777,-2.5337,-2.4616,-2.3737,-2.324,-2.2553,-2.1693,-2.1046,-2.0569,-2.0201,-2.0165,-2.0038,-1.982,0.0,0.0,0.0,0.0,0.0,-2.4096,-2.4096,-2.4274,-2.4332,-2.4125,-2.4765,0.0,0.0,0.0,0.0,0.0,0.0,0.0,-3.009,-2.9345,-2.9251,-3.0117,-2.8903,-2.8595,-2.9434,-2.8616,-2.8545,-2.9368,-2.8916,-2.8917,-2.931,-2.931,-2.931,-2.9284,-2.8856,-2.8673,-2.8647,-2.8072,-2.7811,0.0,0.0,0.0,-2.749,-2.749,-2.7456,-2.7423,0.0,0.0,0.0,0.0,-2.7214,-2.718,-2.6977,-2.6943,-2.6977,-2.6841,-2.6875,-2.6943,-2.7146,0.0,-2.7348,-2.7456,-2.749,-2.749,-2.749,-2.749,-2.749,-2.749,-2.749,-2.749,-2.749,-2.749,-2.762,-2.802,-2.7773,-2.7555,-2.7631,-2.7478,-2.7239,-2.7013,-2.7075,0.0,0.0,0.0,-2.7369,-2.7713,-2.7736,-2.7874,-2.8195,-2.8218,-2.8218,-2.8218,-2.8218,-2.8218,-2.8218,-2.7898,-2.7898,-2.8195,-2.7856,-2.757,-2.7273,-2.7063,-2.6548,-2.5884,-2.5717,-2.5338,-2.468,-2.3907,-2.3114,-2.2351,-2.1995,-2.1394,-2.0721,-2.0627,-2.0447,-2.02,0.0,0.0,0.0,0.0,0.0,0.0,0.0,0.0,0.0,0.0,0.0,0.0,0.0,0.0,0.0,0.0,0.0,-2.8185,0.0,0.0,-2.8744,-3.0086,-2.8454,-2.8026,-2.9125,-2.8059,-2.7907,-2.8719,-2.8309,-2.8281,-2.8647,-2.8647,-2.8647,-2.8647,-2.8255,-2.8072,-2.8046,-2.7646,-2.749,0.0,0.0,0.0,-2.749,-2.749,-2.749,0.0,0.0,0.0,0.0,0.0,-2.7348,-2.7281,-2.7146,-2.7045,-2.6977,-2.6977,-2.7045,-2.7146,-2.7281,-2.7348,-2.739,-2.749,-2.749,-2.749,-2.749,-2.749,-2.749,-2.749,-2.749,-2.749,-2.749,-2.749,-2.7673,-2.8281,-2.8256,-2.8231,-2.8512,-2.8366,-2.8168,-2.7931,-2.7859,-2.7929,0.0,0.0,0.0,-2.8218,-2.8241,-2.8379,-2.8677,-2.87,-2.8614,-2.8485,-2.8441,-2.8355,-2.8181,-2.7853,-2.7876,-2.8158,-2.7876,-2.7567,-2.7256,-2.7062,-2.6779,-2.6344,-2.6195,-2.598,-2.5657,-2.4874,-2.4071,-2.3296,-2.2961,-2.2154,-2.123,-2.1155,-2.0801,-2.0333,0.0,0.0,0.0,0.0,0.0,0.0,0.0,0.0,0.0,0.0,0.0,0.0,0.0,0.0,0.0,0.0,0.0,0.0,0.0,0.0,0.0,-2.9442,-2.8222,-2.7855,-2.8546,-2.7855,-2.7523,-2.7556,-2.7523,-2.749,-2.749,-2.749,-2.749,-2.749,-2.749,-2.749,-2.749,-2.749,-2.749,-2.749,-2.749,0.0,-2.749,-2.749,0.0,0.0,0.0,0.0,0.0,0.0,0.0,-2.7315,-2.7315,-2.718,-2.7011,-2.7011,-2.7146,-2.7315,-2.7315,-2.739,-2.749,-2.749,-2.749,-2.749,-2.749,-2.749,-2.749,-2.749,-2.749,-2.749,0.0,0.0,-2.7699,-2.8333,-2.8908,-2.9269,-2.9249,-2.9669,-2.9729,0.0,0.0,0.0,0.0,0.0,0.0,-2.8726,-2.8703,-2.8703,-2.8726,-2.8726,-2.8509,-2.803,-2.8074,-2.7811,-2.7259,-2.7259,-2.7259,-2.7215,-2.7215,-2.7215,-2.7193,-2.6815,-2.6793,-2.7106,-2.6749,-2.6615,-2.657,-2.61,-2.5358,-2.45,-2.3854,-2.2865,-2.1794,-2.175,-2.1167,-2.0359,0.0,0.0,0.0,0.0,0.0,0.0,0.0,0.0,0.0,0.0,0.0,0.0,0.0,0.0,0.0,0.0,0.0,0.0,0.0,0.0,0.0,0.0,0.0,0.0,0.0,0.0,0.0,0.0,0.0,-2.749,-2.749,-2.749,-2.749,0.0,-2.749,-2.749,-2.749,-2.749,-2.749,-2.749,0.0,-2.749,-2.749,0.0,0.0,0.0,0.0,0.0,0.0,0.0,0.0,0.0,0.0,-2.739,-2.7356,-2.7356,-2.739,-2.7456,-2.7456,-2.7456,-2.749,-2.749,-2.749,-2.749,-2.749,-2.749,-2.749,-2.749,-2.749,-2.749,0.0,0.0,0.0,-2.8882,-2.8779,0.0,-2.9682,-2.9513,0.0,-2.8514,0.0,-2.8875,-2.8746,-2.8692,0.0,-2.9263,-2.8947,-2.8858,-2.9263,-2.9286,-2.9059,-2.8536,-2.8923,-2.8877,-2.8307,-2.8307,-2.8123,-2.7822,-2.7822,-2.7629,-2.7286,-2.7126,-2.6753,-2.6235,-2.6481,-2.6615,-2.657,-2.61,-2.5632,-2.5193,-2.4877,-2.416,-2.3194,-2.2797,-2.2198,-2.1496,0.0,0.0,0.0,0.0,0.0,0.0,0.0,0.0,0.0,0.0,0.0,0.0,0.0,0.0,0.0,0.0,0.0,0.0,0.0,0.0,0.0,0.0,0.0,0.0,0.0,0.0,0.0,0.0,0.0,0.0,0.0,-2.749,-2.749,-2.749,-2.749,-2.749,-2.749,0.0,0.0,0.0,0.0,0.0,0.0,0.0,0.0,0.0,0.0,0.0,0.0,0.0,0.0,-2.749,-2.749,-2.749,-2.749,-2.749,0.0,-2.749,-2.749,-2.749,-2.749,-2.749,-2.749,-2.749,-2.749,-2.749,-2.749,-2.749,-2.749,0.0,-2.749,-2.749,-2.7915,0.0,0.0,0.0,-3.0265,-3.0152,-2.9868,0.0,-2.9472,0.0,-2.9452,-2.8992,-2.8807,-2.9141,-2.908,-2.9103,-2.9141,-2.9393,-2.9163,-2.8398,-2.8699,-2.8606,-2.8092,-2.8092,-2.7951,-2.7668,-2.7668,-2.7542,-2.7268,-2.7243,-2.6956,-2.6542,-2.6773,-2.6911,-2.6911,-2.6614,-2.6305,-2.5982,-2.5844,-2.5171,-2.421,-2.3886,-2.315,-2.2204,0.0,0.0,0.0,0.0,0.0,0.0,0.0,0.0,0.0,0.0,-2.4096,0.0,0.0,0.0,0.0,0.0,0.0,0.0,0.0,0.0,0.0,0.0,0.0,0.0,0.0,0.0,0.0,0.0,0.0,0.0,0.0,0.0,0.0,0.0,0.0,0.0,0.0,0.0,0.0,0.0,0.0,0.0,0.0,0.0,0.0,0.0,0.0,0.0,0.0,0.0,-2.749,-2.749,-2.749,-2.749,-2.749,-2.749,-2.749,-2.749,-2.749,-2.749,-2.749,-2.749,-2.749,-2.749,-2.749,-2.749,-2.749,-2.749,0.0,-2.749,-2.749,-2.749,-2.7915,-2.9091,0.0,-2.9702,-3.0817,-3.0973,-3.1095,-3.128,-3.0466,-2.9976,-3.0178,-2.9217,-2.8585,-2.8585,-2.9071,-2.9117,-2.8631,-2.9071,-2.8885,-2.8045,-2.7951,-2.7715,-2.7309,-2.7309,-2.7309,-2.7309,-2.7309,-2.7309,-2.7309,-2.7309,-2.7309,-2.7309,-2.7309,-2.7309,-2.7309,-2.7309,-2.7061,-2.6708,-2.6708,-2.6023,-2.5125,-2.5033,-2.4113,-2.295,0.0,0.0,0.0,0.0,0.0,0.0,0.0,0.0,0.0,0.0,-2.3923,-2.4096,0.0,0.0,0.0,0.0,0.0,0.0,0.0,0.0,0.0,0.0,0.0,0.0,0.0,0.0,0.0,0.0,0.0,0.0,0.0,0.0,0.0,0.0,0.0,0.0,0.0,0.0,0.0,0.0,0.0,0.0,0.0,0.0,0.0,0.0,0.0,0.0,0.0,0.0,-2.749,-2.749,-2.749,-2.749,-2.749,-2.749,-2.749,-2.749,-2.749,-2.749,-2.749,-2.749,-2.749,-2.749,-2.749,-2.739,0.0,0.0,-2.739,-2.7356,-2.749,-2.749,-2.7915,-2.9091,-2.931,-2.9702,-3.0817,-3.0973,-3.0803,0.0,-3.0014,-2.9678,-2.9058,-2.8462,0.0,-2.8139,-2.8233,-2.8233,-2.8139,-2.8233,-2.8186,-2.7998,-2.762,-2.7404,-2.7309,-2.7309,-2.7309,-2.7309,-2.7309,-2.7309,-2.7309,-2.7309,-2.7309,-2.7309,-2.7309,-2.7309,-2.7309,-2.7309,-2.7247,-2.7185,-2.7185,-2.7049,-2.6777,-2.6112,-2.5492,-2.4828,0.0,0.0,0.0,0.0,0.0,0.0,0.0,-2.3509,-2.3509,-2.3599,-2.3747,-2.3865,-2.3979,-2.4067,-2.4096,0.0,0.0,0.0,0.0,0.0,0.0,0.0,0.0,0.0,0.0,0.0,0.0,0.0,0.0,0.0,0.0,0.0,0.0,0.0,0.0,0.0,0.0,0.0,0.0,0.0,0.0,0.0,0.0,0.0,0.0,0.0,0.0,0.0,0.0,0.0,-2.749,-2.749,-2.749,-2.749,-2.749,-2.749,-2.749,-2.749,-2.749,-2.749,-2.749,-2.749,-2.749,-2.749,-2.739,0.0,0.0,0.0,-2.7348,-2.7348,-2.749,-2.749,0.0,-2.8673,-2.9021,-2.9444,-3.0251,-3.0566,-3.0714,-3.0829,-2.9952,-2.9386,-2.9488,-2.8361,-2.762,-2.762,-2.762,-2.762,-2.762,-2.762,-2.762,-2.762,-2.7404,-2.7309,-2.7309,-2.7309,-2.7309,-2.7309,-2.7309,-2.7309,-2.7309,-2.7309,-2.7309,-2.7309,-2.7309,-2.7309,-2.7309,-2.7309,-2.7309,-2.7309,-2.7309,-2.7309,-2.7262,-2.688,-2.6355,-2.5726,0.0,0.0,0.0,0.0,0.0,0.0,0.0,-2.312,-2.3155,-2.3245,-2.345,-2.3628,-2.3772,-2.392,-2.4008,0.0,0.0,0.0,0.0,0.0,0.0,0.0,0.0,0.0,0.0,0.0,0.0,0.0,0.0,0.0,0.0,0.0,0.0,0.0,0.0,0.0,0.0,0.0,0.0,0.0,0.0,0.0,0.0,0.0,0.0,0.0,0.0,0.0,0.0,0.0,-2.749,-2.749,-2.749,-2.749,-2.749,-2.749,-2.749,-2.749,-2.749,-2.749,-2.749,-2.749,-2.749,-2.7456,-2.7348,-2.7281,0.0,0.0,-2.7281,-2.7281,-2.7423,-2.7456,-2.7639,0.0,-2.8672,-2.9161,-2.9667,-3.016,-3.0701,0.0,-3.0097,0.0,-2.9988,-2.8585,0.0,-2.7309,-2.7309,-2.7309,-2.7309,-2.7309,-2.7309,-2.7309,-2.7309,-2.7309,-2.7309,-2.7309,-2.7309,-2.7309,-2.7309,-2.7309,-2.7309,-2.7309,-2.7309,-2.7309,-2.7309,-2.7309,-2.7309,-2.7309,-2.7309,-2.7309,-2.7309,-2.7309,-2.7309,-2.7309,-2.6928,-2.6332,0.0,0.0,0.0,0.0,0.0,0.0,0.0,-2.2194,-2.2224,-2.2224,-2.2944,-2.3445,-2.342,-2.3569,-2.3658,0.0,0.0,0.0,0.0,0.0,0.0,0.0,0.0,0.0,0.0,0.0,0.0,0.0,0.0,0.0,0.0,0.0,0.0,0.0,0.0,0.0,0.0,0.0,0.0,0.0,0.0,0.0,0.0,0.0,0.0,0.0,0.0,0.0,0.0,0.0,0.0,-2.749,-2.749,-2.749,-2.749,-2.749,0.0,0.0,-2.749,-2.749,-2.749,-2.749,-2.749,-2.7456,-2.7348,0.0,0.0,-2.7281,-2.7146,-2.7079,-2.7281,-2.7315,-2.7462,-2.7859,0.0,-2.9135,-2.9483,-3.0186,-3.0765,-3.1032,0.0,0.0,-2.9602,-2.8956,-2.8211,-2.7357,-2.7309,-2.7309,-2.7309,-2.7309,-2.7309,-2.7309,-2.7309,-2.7309,-2.7309,-2.7309,-2.7309,-2.7309,-2.7309,-2.7309,-2.7309,-2.7309,-2.7309,-2.7309,-2.7309,-2.7309,-2.7309,-2.7309,-2.7309,-2.7309,-2.7309,-2.7309,-2.7309,-2.7309,-2.7262,-2.7071,0.0,0.0,0.0,0.0,0.0,0.0,-2.1565,-2.1502,-2.1502,-2.1502,-2.1815,-2.2002,-2.2002,-2.2433,-2.2919,-2.3569,0.0,0.0,0.0,0.0,0.0,0.0,0.0,0.0,0.0,0.0,-2.6878,-2.7214,-2.7315,0.0,0.0,0.0,0.0,0.0,0.0,0.0,0.0,0.0,0.0,0.0,0.0,0.0,0.0,0.0,0.0,0.0,0.0,0.0,0.0,0.0,0.0,0.0,-2.7281,-2.7348,0.0,0.0,-2.749,-2.749,-2.749,-2.749,-2.749,-2.749,-2.7423,-2.7348,-2.7146,0.0,-2.6841,-2.6918,-2.6884,-2.6875,-2.7079,-2.7113,-2.7156,0.0,0.0,0.0,-2.8828,-2.9885,-3.0795,-3.1163,-3.0873,0.0,0.0,-2.9187,-2.8305,-2.7357,-2.7309,-2.7309,-2.7309,-2.7309,-2.7309,-2.7309,-2.7309,-2.7309,-2.7309,-2.7309,-2.7309,-2.7309,-2.7309,-2.7309,-2.7309,-2.7309,-2.7309,-2.7309,-2.7309,-2.7309,-2.7309,-2.7309,-2.7309,-2.7309,-2.7309,-2.7309,-2.7309,-2.7309,-2.7309,-2.7262,0.0,0.0,0.0,0.0,0.0,-2.1854,-2.1187,-2.1092,-2.1028,-2.0837,-2.0965,-2.1092,-2.1092,-2.1534,-2.2187,-2.3095,-2.3335,0.0,0.0,0.0,0.0,0.0,0.0,0.0,0.0,0.0,-2.6627,-2.6977,-2.7146,-2.7248,0.0,0.0,-2.7456,-2.749,0.0,0.0,0.0,0.0,0.0,0.0,0.0,0.0,0.0,0.0,0.0,0.0,0.0,0.0,0.0,0.0,0.0,0.0,0.0,0.0,0.0,0.0,-2.7423,-2.749,-2.7456,-2.7456,-2.749,-2.749,-2.739,-2.7248,0.0,0.0,-2.6679,-2.6679,-2.6679,-2.6748,-2.6875,-2.6909,-2.6909,0.0,0.0,-2.8304,-2.7987,-2.9515,-3.0768,-3.0984,0.0,-3.0937,-3.0259,-2.9048,-2.7998,-2.7357,-2.7309,-2.7309,-2.7309,-2.7309,-2.7309,-2.7309,-2.7309,-2.7309,-2.7309,-2.7309,-2.7309,-2.7309,-2.7309,-2.7309,-2.7309,-2.7309,-2.7309,-2.7309,-2.7309,-2.7309,-2.7309,-2.7309,-2.7309,-2.7309,-2.7309,-2.7309,-2.7309,-2.7309,-2.7309,-2.7309,0.0,0.0,0.0,0.0,0.0,0.0,-2.1187,-2.1092,-2.0869,-2.0193,-2.0677,-2.1092,-2.1092,-2.1092,-2.1376,-2.2039,-2.2707,0.0,0.0,0.0,0.0,0.0,0.0,0.0,0.0,0.0,-2.6977,-2.6977,-2.6977,-2.7113,-2.7315,-2.7315,-2.7356,-2.749,0.0,0.0,0.0,0.0,0.0,0.0,0.0,0.0,0.0,0.0,0.0,0.0,0.0,0.0,0.0,0.0,0.0,0.0,0.0,0.0,0.0,0.0,-2.7248,-2.7456,-2.7348,-2.739,-2.749,-2.749,-2.739,-2.7248,0.0,0.0,-2.6679,-2.6679,-2.6679,-2.6679,-2.6679,-2.6679,-2.6645,-2.6533,-2.7546,0.0,-2.6975,-2.9156,-3.0703,0.0,-3.1363,-3.1669,-3.035,-2.8445,-2.7309,-2.7309,-2.7309,-2.7309,-2.7309,-2.7309,-2.7309,-2.7309,-2.7309,-2.7309,-2.7309,-2.7309,-2.7309,-2.7309,-2.7309,-2.7309,-2.7309,-2.7309,-2.7309,-2.7309,-2.7309,-2.7309,-2.7309,-2.7309,-2.7309,-2.7309,-2.7309,-2.7309,-2.7309,-2.7309,-2.7309,-2.7309,0.0,0.0,0.0,0.0,0.0,0.0,0.0,-2.042,-2.0161,-1.9495,-1.9594,-1.9704,-1.9704,-2.0128,-2.0677,-2.1376,-2.2032,0.0,0.0,0.0,0.0,0.0,0.0,0.0,0.0,0.0,-2.6232,-2.6671,-2.6773,-2.6816,-2.6884,-2.7045,-2.7113,-2.7146,-2.7146,0.0,0.0,0.0,0.0,0.0,0.0,0.0,0.0,0.0,0.0,0.0,0.0,0.0,0.0,0.0,0.0,0.0,0.0,0.0,0.0,-2.6739,-2.6909,-2.7146,-2.7113,-2.7113,-2.7146,-2.7146,-2.7045,-2.685,-2.6782,0.0,-2.6568,-2.6568,-2.6568,-2.6568,-2.6568,-2.6568,-2.6568,-2.6499,-2.744,0.0,0.0,0.0,0.0,-3.0121,-2.9896,-2.9625,-2.9211,-2.8045,-2.7309,-2.7309,-2.7309,-2.7309,-2.7309,-2.7309,-2.7309,-2.7309,-2.7309,-2.7309,-2.7309,-2.7309,-2.7309,-2.7309,-2.7309,-2.7309,-2.7309,-2.7309,-2.7309,-2.7309,-2.7309,-2.7309,-2.7309,-2.7309,-2.7309,-2.7309,-2.7309,-2.7309,-2.7309,-2.7309,-2.7309,-2.7214,0.0,0.0,0.0,0.0,0.0,0.0,0.0,-2.0979,-2.0456,-1.9615,-1.9264,-1.9098,-1.9098,-1.9462,-2.0096,-2.1028,-2.125,0.0,0.0,0.0,0.0,0.0,0.0,0.0,-2.5076,-2.5636,-2.6122,-2.6499,-2.6602,-2.6645,-2.6679,-2.6841,-2.6943,-2.6977,-2.6977,-2.6977,0.0,0.0,0.0,0.0,0.0,0.0,-2.6807,0.0,0.0,0.0,0.0,0.0,0.0,0.0,0.0,0.0,0.0,0.0,0.0,0.0,-2.6636,-2.6807,0.0,-2.6943,-2.6977,-2.6977,-2.6841,-2.6679,0.0,0.0,-2.6499,-2.6499,-2.6499,-2.6499,-2.6499,-2.6499,-2.6575,-2.6776,-2.7243,-2.7743,0.0,0.0,0.0,-3.0633,-2.9488,-2.8678,-2.8678,-2.7857,-2.7309,-2.7309,-2.7309,-2.7309,-2.7309,-2.7309,-2.7309,-2.7309,-2.7309,-2.7309,-2.7309,-2.7309,-2.7309,-2.7309,-2.7309,-2.7309,-2.7309,-2.7309,-2.7309,-2.7309,-2.7309,-2.7309,0.0,-2.7309,-2.7309,-2.7309,-2.7309,-2.7309,-2.7309,-2.7309,-2.7309,-2.7214,0.0,0.0,0.0,0.0,0.0,0.0,0.0,-2.2329,-2.1426,-2.0249,-1.958,-1.9202,-1.9202,-1.9202,-1.9712,-2.1014,0.0,0.0,0.0,0.0,0.0,0.0,0.0,0.0,-2.5486,-2.6163,-2.6499,-2.6499,-2.6499,-2.6568,-2.6679,-2.6679,-2.6807,-2.6943,-2.6909,-2.6875,-2.6875,0.0,0.0,0.0,-2.6499,-2.6499,0.0,0.0,0.0,0.0,0.0,0.0,0.0,0.0,0.0,0.0,0.0,0.0,0.0,0.0,0.0,0.0,0.0,-2.6841,-2.6943,-2.6943,-2.6841,-2.6679,-2.6679,0.0,0.0,-2.6499,-2.6499,-2.6499,-2.6499,-2.6499,-2.664,-2.7122,-2.7042,-2.7262,-2.8345,-2.9412,-3.0428,-3.1372,-2.9761,-2.8631,-2.8678,-2.7857,-2.7309,-2.7351,-2.7351,-2.7351,-2.7351,-2.7351,-2.733,-2.7309,-2.7309,-2.7309,-2.7309,-2.7309,-2.7309,-2.7309,-2.7309,-2.7309,-2.7309,-2.7309,-2.7309,-2.7309,-2.7309,-2.7309,-2.7309,-2.7309,-2.7309,-2.7309,-2.7309,-2.7309,-2.7309,-2.7309,-2.7309,-2.7309,0.0,0.0,0.0,0.0,0.0,0.0,0.0,0.0,0.0,0.0,-2.0205,-2.01,-2.01,-2.01,-2.0449,0.0,0.0,0.0,0.0,0.0,0.0,0.0,0.0,0.0,-2.4745,-2.589,-2.6499,-2.6499,-2.6499,-2.6533,-2.6568,-2.6568,-2.6568,-2.6602,-2.599,-2.5687,-2.5746,-2.6302,0.0,0.0,-2.6499,-2.6499,0.0,0.0,0.0,0.0,-2.6499,-2.6499,0.0,0.0,0.0,0.0,0.0,0.0,0.0,0.0,-2.6499,-2.6499,-2.6533,0.0,-2.6636,-2.6636,-2.6602,-2.6568,0.0,0.0,0.0,0.0,0.0,-2.6499,-2.6499,-2.6499,-2.6467,-2.6311,-2.7139,-2.7952,-2.8424,-2.9075,-2.9767,-3.0461,-2.8817,-2.7904,-2.8631,-2.7857,-2.7455,-2.7738,-2.7759,-2.7759,-2.7759,-2.7759,-2.7614,-2.7309,-2.7309,-2.7309,-2.7309,-2.7309,-2.7309,-2.7309,-2.7309,-2.7309,-2.7309,-2.7309,-2.7309,-2.7309,-2.7309,-2.7309,-2.7309,-2.7309,-2.7309,-2.7309,-2.7309,-2.7309,-2.7309,-2.7309,-2.7309,-2.7214,0.0,0.0,0.0,0.0,0.0,0.0,0.0,0.0,0.0,0.0,0.0,-2.0395,-2.0395,-2.0395,0.0,0.0,0.0,0.0,0.0,0.0,0.0,0.0,0.0,-2.3954,-2.4284,-2.5026,-2.5406,-2.5406,-2.5406,-2.5406,-2.5406,-2.5406,-2.5406,-2.5406,-2.5335,-2.5535,-2.5886,-2.6327,-2.6499,-2.6499,-2.6499,0.0,0.0,0.0,0.0,0.0,-2.6499,-2.6499,0.0,-2.6499,-2.6499,-2.6499,0.0,0.0,0.0,0.0,-2.6499,-2.6499,-2.6499,-2.6499,-2.6499,-2.6499,-2.6499,-2.6499,-2.6499,0.0,0.0,0.0,0.0,-2.6499,-2.6499,-2.67,-2.6876,-2.6931,-2.7729,-2.8456,-2.8887,-2.9396,-2.9669,-2.9555,-2.8211,-2.7499,-2.7998,-2.7762,-2.7655,-2.7903,-2.811,-2.8152,-2.7875,-2.7924,-2.7717,-2.7309,-2.7309,-2.7309,-2.7309,-2.7309,-2.7309,-2.7309,-2.7309,-2.7309,-2.7309,-2.7309,-2.7309,-2.7309,-2.7309,-2.7309,-2.7309,-2.7309,-2.7309,-2.7309,-2.7309,-2.7309,-2.7309,-2.7309,-2.7309,-2.7262,0.0,0.0,0.0,0.0,0.0,0.0,0.0,0.0,0.0,0.0,0.0,0.0,0.0,0.0,0.0,0.0,0.0,0.0,0.0,0.0,0.0,0.0,-2.3018,-2.3276,-2.3913,-2.4036,-2.4108,-2.4108,-2.4108,-2.4108,-2.4108,-2.4108,-2.4108,-2.4145,-2.5087,-2.5781,-2.6302,-2.6465,-2.6499,-2.6499,-2.6499,0.0,0.0,0.0,0.0,0.0,0.0,0.0,0.0,-2.6499,-2.6499,-2.6499,-2.6499,0.0,0.0,0.0,0.0,0.0,-2.6465,-2.6499,-2.6499,-2.6499,-2.6499,-2.6499,-2.6499,0.0,0.0,0.0,0.0,0.0,-2.659,-2.6972,0.0,-2.8063,-2.8441,-2.8775,-2.9185,-2.9669,-2.9669,-2.8817,-2.7857,-2.7378,-2.7583,-2.7793,-2.7986,-2.8131,-2.8504,-2.8524,-2.8048,-2.8028,-2.78,-2.733,-2.7309,-2.7309,-2.7309,-2.7309,-2.7309,-2.7309,-2.7309,-2.7309,-2.7309,-2.7309,-2.7309,-2.7309,-2.7309,-2.7309,-2.7309,-2.7309,-2.7309,-2.7309,-2.7309,-2.7309,-2.7309,-2.7309,-2.7262,-2.7214,0.0,0.0,0.0,0.0,0.0,0.0,0.0,0.0,0.0,0.0,0.0,0.0,0.0,0.0,0.0,0.0,0.0,0.0,0.0,0.0,0.0,-2.2033,-2.266,-2.3038,-2.3165,-2.3768,-2.4108,-2.4108,-2.4108,-2.4108,-2.4108,-2.4108,-2.4108,-2.4145,-2.5652,-2.6025,-2.5535,-2.6198,-2.6499,-2.6499,-2.6499,0.0,0.0,0.0,0.0,0.0,0.0,0.0,0.0,-2.6499,-2.6499,-2.6499,-2.6499,0.0,0.0,0.0,0.0,0.0,-2.6302,-2.6499,-2.6499,-2.6499,-2.6499,-2.6499,-2.6499,0.0,0.0,0.0,0.0,0.0,0.0,-2.7028,-2.7206,-2.8261,-2.8964,-2.9049,-2.8275,-2.8602,-2.8863,-2.8724,-2.7857,-2.7788,-2.8981,-2.8368,-2.8255,-2.9042,-2.9166,-2.9001,-2.8524,-2.8504,-2.8131,-2.733,-2.7309,-2.7309,-2.7309,-2.7309,-2.7309,-2.7309,-2.7309,-2.7309,-2.7309,-2.7309,-2.7309,-2.7309,-2.7309,-2.7309,-2.7309,-2.7309,-2.7309,-2.7309,-2.7309,-2.7309,-2.7309,-2.7309,-2.7167,-2.6948,0.0,0.0,0.0,0.0,0.0,0.0,0.0,0.0,0.0,0.0,0.0,0.0,0.0,0.0,0.0,0.0,0.0,0.0,0.0,0.0,-2.1797,-2.1797,-2.2138,-2.2365,-2.2365,-2.2681,-2.2846,-2.2846,-2.329,-2.329,-2.2846,-2.2846,-2.329,-2.4108,-2.4886,-2.5264,-2.5335,-2.6164,-2.6499,-2.6499,0.0,0.0,0.0,0.0,0.0,0.0,0.0,0.0,0.0,0.0,-2.6198,-2.5921,-2.6336,0.0,0.0,0.0,0.0,0.0,-2.5886,-2.6164,-2.6267,-2.5417,-2.5861,-2.6499,0.0,0.0,0.0,0.0,0.0,0.0,0.0,0.0,-2.6987,-2.838,-2.9071,-2.9148,-2.8444,-2.8547,-2.8491,-2.7998,-2.7756,-2.789,-2.8534,-2.8627,-2.8856,-2.927,-2.9539,-2.9373,-2.8649,-2.8607,-2.8193,-2.733,-2.7309,-2.7309,-2.7309,-2.7309,-2.7309,-2.7309,-2.7309,-2.7309,-2.7309,-2.7309,-2.7309,-2.7309,-2.7309,-2.7309,-2.7309,-2.7309,-2.7309,-2.7309,-2.7119,-2.7071,-2.7071,-2.6928,-2.688,-2.6853,0.0,0.0,0.0,0.0,0.0,0.0,0.0,0.0,0.0,0.0,0.0,0.0,0.0,0.0,0.0,0.0,0.0,0.0,0.0,-2.1797,-2.1797,-2.1797,-2.1797,-2.1797,-2.1797,-2.1797,-2.1797,-2.1797,-2.2402,-2.2402,-2.1797,-2.1987,-2.2718,-2.3841,-2.4,-2.4456,-2.5052,-2.5687,-2.606,-2.6198,0.0,0.0,0.0,0.0,0.0,0.0,0.0,0.0,0.0,0.0,0.0,0.0,0.0,0.0,0.0,-2.5791,-2.5955,-2.5791,-2.5194,-2.5476,-2.5652,-2.4397,-2.517,0.0,0.0,0.0,0.0,0.0,0.0,0.0,0.0,-2.6969,-2.7607,-2.8396,-2.8899,-2.8992,-2.8448,-2.8351,-2.8113,-2.7502,-2.7717,-2.8007,-2.8235,-2.8897,-2.9352,-2.9456,-2.9787,-2.9601,-2.8669,-2.8607,-2.8193,-2.733,-2.7309,-2.7309,-2.7309,-2.7309,-2.7309,-2.7309,-2.7214,-2.7214,-2.7214,-2.7119,-2.7119,-2.7119,-2.7119,-2.7119,-2.7119,-2.7119,-2.7167,-2.7167,-2.69,-2.6805,-2.6757,-2.6496,-2.6544,-2.664,0.0,0.0,0.0,0.0,0.0,0.0,0.0,0.0,0.0,0.0,0.0,0.0,0.0,0.0,0.0,0.0,0.0,0.0,-2.1797,-2.1797,-2.1797,-2.1797,-2.1797,-2.1797,-2.1797,-2.1797,-2.1797,-2.1797,-2.1835,-2.1835,-2.1797,-2.2553,-2.2964,-2.3113,-2.3804,-2.4108,-2.4181,-2.4253,-2.4707,-2.5394,-2.5394,0.0,0.0,0.0,0.0,0.0,0.0,0.0,0.0,0.0,0.0,0.0,0.0,0.0,-2.5158,-2.4469,-2.4253,-2.4253,-2.4181,-2.4217,-2.4217,-2.4108,-2.4743,0.0,-2.5394,-2.5756,0.0,-2.7055,0.0,0.0,0.0,-3.0016,-2.995,-2.8253,-2.8399,-2.8402,-2.7526,-2.7404,-2.7502,-2.7821,-2.7903,-2.8255,-2.9125,-2.927,-2.9477,-2.9911,-2.9973,-2.9601,-2.8669,-2.8607,-2.8193,-2.733,-2.7309,-2.7309,-2.7309,-2.7309,-2.7309,-2.7309,-2.7044,-2.6948,-2.69,-2.664,-2.6544,-2.6544,-2.6544,-2.6544,-2.6544,-2.6544,-2.6688,-2.69,-2.664,-2.6544,-2.6496,-2.6255,-2.6139,-2.5994,0.0,0.0,0.0,0.0,0.0,0.0,0.0,0.0,0.0,0.0,0.0,0.0,0.0,0.0,0.0,0.0,0.0,0.0,-2.1797,-2.1797,-2.1797,-2.1797,-2.1703,-2.1665,-2.1797,-2.1797,-2.1797,-2.1797,-2.1797,-2.2268,-2.3217,-2.2569,-2.2515,-2.3001,-2.3276,-2.3423,-2.3497,-2.442,-2.5016,-2.5335,-2.5851,-2.6233,0.0,0.0,0.0,0.0,0.0,0.0,0.0,0.0,-2.5441,-2.4957,-2.4636,-2.4263,-2.39,-2.4059,-2.4108,-2.4,-2.3534,-2.4095,-2.4562,-2.3388,-2.4056,0.0,0.0,-2.5749,-2.592,-2.6529,-2.605,0.0,0.0,-2.7612,-2.7958,-2.7204,-2.7514,-2.7773,-2.7683,-2.7676,-2.7841,-2.8297,-2.8607,-2.8918,-2.927,-2.9559,-2.9808,-2.9973,-2.9837,-2.9425,-2.8669,-2.8428,-2.8017,-2.733,-2.7119,-2.7044,-2.7044,-2.7044,-2.6976,-2.6784,-2.69,-2.69,-2.69,-2.6592,-2.6496,-2.6496,-2.6496,-2.6496,-2.6496,-2.6496,-2.6544,-2.6592,-2.6352,-2.6235,-2.6207,-2.5965,-2.5965,-2.5897,0.0,0.0,0.0,0.0,0.0,0.0,0.0,0.0,0.0,0.0,0.0,0.0,0.0,0.0,0.0,0.0,0.0,0.0,-2.1606,-2.1627,-2.1627,-2.1627,-2.155,-2.155,-2.1703,-2.1759,-2.1797,-2.1797,-2.1797,-2.2344,-2.3364,-2.2268,-2.2101,-2.2628,-2.2628,-2.2628,-2.2703,-2.3754,-2.4335,-2.4623,-2.5158,-2.5511,0.0,0.0,0.0,0.0,0.0,0.0,0.0,0.0,-2.4564,-2.4108,-2.4108,-2.3768,-2.3423,-2.3658,-2.3913,-2.395,-2.3202,-2.3754,-2.4305,-2.317,0.0,0.0,-2.5553,-2.5608,-2.5599,-2.6177,-2.6247,-2.6037,-2.5725,0.0,-2.7138,-2.6879,-2.7226,-2.7572,-2.7883,-2.8048,-2.8317,-2.8773,-2.9104,-2.9352,-2.9497,-2.9756,-2.9889,-2.9889,-2.9606,-2.9114,-2.8419,-2.8177,-2.7769,-2.7044,-2.688,-2.6757,-2.6757,-2.6757,-2.6709,-2.6496,-2.6592,-2.6661,-2.664,-2.6352,-2.6255,-2.6255,-2.6255,-2.6255,-2.6255,-2.6255,-2.6255,-2.6255,-2.6159,-2.6062,-2.5965,-2.5791,-2.582,-2.5752,0.0,0.0,0.0,0.0,0.0,0.0,0.0,0.0,-2.1436,-2.1205,-2.1205,0.0,0.0,0.0,0.0,0.0,-2.1512,-2.1397,-2.1205,-2.1205,-2.1205,-2.1205,-2.1397,-2.1512,-2.1512,-2.1703,-2.1797,-2.1797,-2.1797,-2.1797,-2.1797,-2.1797,-2.1797,-2.1797,-2.1797,-2.1797,-2.1797,-2.1818,-2.2252,-2.3001,-2.3001,-2.346,-2.4108,0.0,0.0,0.0,0.0,0.0,0.0,0.0,-2.4072,-2.4108,-2.4072,-2.4072,-2.395,-2.3202,-2.3511,-2.3913,-2.3187,-2.3001,-2.311,-2.3569,0.0,0.0,-2.4911,-2.5182,-2.5426,-2.6149,-2.758,-2.825,-2.6844,-2.7772,-2.8351,-2.7452,-2.7634,-2.7924,-2.7924,-2.8338,-2.8794,-2.9249,-2.9311,-2.9497,-2.9953,-2.9764,-2.9606,-2.9606,-2.929,-2.8697,-2.7864,-2.7824,-2.7422,-2.6536,-2.6496,-2.6496,-2.6496,-2.6496,-2.6496,-2.6496,-2.6255,-2.6091,-2.6091,-2.582,-2.5693,-2.5693,-2.5693,-2.5693,-2.5693,-2.5693,-2.5693,-2.5742,-2.6014,-2.5917,-2.5693,-2.5693,-2.5693,-2.5382,0.0,0.0,0.0,0.0,0.0,0.0,0.0,0.0,-2.1051,-2.0994,-2.0974,0.0,0.0,0.0,0.0,0.0,0.0,-2.1244,-2.1205,-2.132,-2.1359,-2.1205,-2.1397,-2.1512,-2.1512,-2.155,-2.1645,-2.1797,-2.1797,-2.1797,-2.1797,-2.1797,-2.1797,-2.1797,-2.1797,-2.1797,-2.1835,-2.2268,-2.2569,-2.2809,-2.3364,-2.3672,-2.3891,0.0,0.0,0.0,0.0,0.0,0.0,0.0,0.0,0.0,-2.2809,-2.2868,-2.3165,-2.2402,-2.2327,-2.2419,-2.2214,-2.2942,-2.3713,-2.342,0.0,0.0,0.0,-2.4956,0.0,0.0,-2.6685,-2.7126,-2.6676,-2.7212,-2.762,-2.7357,-2.7634,-2.8028,-2.8359,-2.8814,-2.927,-2.9746,-2.9631,-2.9568,-2.9711,-2.9448,-2.9237,-2.9237,-2.8993,-2.8508,-2.7864,-2.7602,-2.7202,-2.6516,-2.6304,-2.6207,-2.6207,-2.6207,-2.611,-2.5936,-2.6062,-2.6091,-2.6091,-2.582,-2.5693,-2.5693,-2.5693,-2.5693,-2.5693,-2.5693,-2.5693,-2.5693,-2.5771,-2.5791,-2.5693,-2.5693,-2.5693,-2.5382,0.0,0.0,0.0,0.0,0.0,0.0,0.0,0.0,-2.0858,-2.078,-2.078,-2.0819,0.0,0.0,0.0,0.0,-2.1012,-2.1051,-2.0974,-2.1167,-2.1167,-2.0974,-2.1244,-2.1397,-2.1397,-2.1397,-2.1436,-2.155,-2.155,-2.155,-2.155,-2.155,-2.155,-2.155,-2.155,-2.155,-2.1589,-2.1928,-2.2155,-2.2268,-2.2622,-2.2809,-2.2883,0.0,0.0,0.0,0.0,0.0,0.0,0.0,0.0,0.0,-2.2478,-2.2402,-2.2553,-2.2681,-2.2697,-2.2793,-2.3106,-2.3756,-2.4317,-2.4146,-2.4494,-2.4889,-2.5035,0.0,0.0,0.0,-2.6418,-2.6667,-2.6853,-2.7123,-2.7372,-2.7489,-2.7806,-2.8161,-2.8633,-2.9034,-2.93,-2.9586,-2.9501,-2.9396,-2.9396,-2.9132,-2.892,-2.892,-2.8569,-2.8048,-2.7509,-2.719,-2.6725,-2.6179,-2.6014,-2.5965,-2.5965,-2.5965,-2.5868,-2.5693,-2.5868,-2.5965,-2.5965,-2.5771,-2.5693,-2.5693,-2.5693,-2.5693,-2.5693,-2.5693,-2.5693,-2.5693,-2.5693,-2.5693,-2.5645,-2.5216,-2.5333,-2.5382,0.0,0.0,-2.0896,-2.0877,0.0,0.0,0.0,0.0,-2.0819,-2.0605,-2.0605,-2.0644,0.0,0.0,0.0,0.0,-2.0858,-2.0819,-2.0605,-2.078,-2.0819,-2.0605,-2.0974,-2.1167,-2.1167,-2.1167,-2.1167,-2.1167,-2.1167,-2.1205,-2.1205,-2.1205,-2.1205,-2.1205,-2.1205,-2.1205,-2.1205,-2.1167,-2.1282,-2.1436,-2.1244,-2.1282,-2.1436,-2.1244,0.0,0.0,0.0,0.0,0.0,0.0,0.0,0.0,-2.2665,-2.244,-2.2176,-2.3475,-2.3927,-2.4131,-2.4802,-2.4865,-2.4891,-2.5202,-2.4613,-2.4323,-2.5585,-2.5564,-2.5544,-2.6455,-2.662,-2.6765,-2.7179,-2.7262,-2.7359,-2.7765,-2.802,-2.834,-2.8808,-2.9027,-2.9079,-2.9079,-2.9079,-2.9079,-2.9079,-2.8834,-2.8674,-2.8674,-2.8068,-2.748,-2.7031,-2.6621,-2.6191,-2.5693,-2.5693,-2.5693,-2.5693,-2.5693,-2.5693,-2.5693,-2.5693,-2.5693,-2.5693,-2.5693,-2.5693,-2.5693,-2.5693,-2.5693,-2.5693,-2.5693,-2.5693,-2.5693,-2.5693,-2.5645,-2.543,-2.4442,-2.4658,-2.5137,0.0,0.0,-2.0858,-2.0683,0.0,0.0,0.0,0.0,0.0,-2.0605,0.0,0.0,0.0,0.0,0.0,0.0,-2.0644,-2.0644,-2.0605,-2.078,-2.0819,-2.0605,-2.0819,-2.0955,-2.0955,-2.0955,-2.0896,-2.0722,-2.1051,-2.1205,-2.1205,-2.1205,-2.1205,-2.1205,-2.1205,-2.1205,-2.1167,-2.1012,-2.0974,-2.1032,-2.0994,-2.0974,-2.1012,-2.1167,-2.1244,0.0,0.0,0.0,0.0,0.0,0.0,0.0,-2.2214,-2.2365,-2.2665,-2.2193,-2.2606,-2.3091,-2.2494,-2.3533,-2.4627,-2.3877,-2.4033,-2.4654,-2.5647,-2.5813,-2.5999,-2.6978,-2.6975,-2.6873,-2.6976,-2.6784,-2.6782,-2.7227,-2.7622,-2.8066,-2.8531,-2.887,-2.9079,-2.9079,-2.894,-2.8781,-2.8781,-2.8568,-2.8408,-2.8408,-2.7963,-2.748,-2.7031,-2.6621,-2.6191,-2.5693,-2.5693,-2.5693,-2.5693,-2.5693,-2.5693,-2.5693,-2.5693,-2.5693,-2.5693,-2.5693,-2.5693,-2.5693,-2.5693,-2.5693,-2.5693,-2.5693,-2.5693,-2.5693,-2.5693,-2.5167,-2.4393,-2.4196,-2.3683,-2.3103,0.0,0.0,0.0,0.0,0.0,0.0,0.0,0.0,0.0,0.0,0.0,0.0,0.0,-2.0605,0.0,0.0,-2.0605,-2.0605,-2.0605,-2.078,-2.0858,-2.0741,-2.0741,-2.078,-2.078,-2.078,-2.0683,-2.0605,-2.0799,-2.0915,-2.0915,-2.0915,-2.0915,-2.0915,-2.0915,-2.0915,-2.0935,-2.0819,-2.0819,-2.0896,-2.0819,-2.0819,-2.0916,-2.0896,-2.0974,-2.1051,0.0,0.0,0.0,0.0,0.0,0.0,0.0,0.0,-2.2101,-2.1966,-2.2306,-2.2762,-2.2924,-2.3656,-2.4337,-2.3948,0.0,-2.4691,-2.5509,-2.5715,-2.5915,-2.6744,-2.69,-2.6853,-2.6757,-2.6592,-2.6718,-2.7312,-2.7563,-2.7841,-2.8501,-2.8675,-2.8708,-2.8708,-2.8621,-2.8514,-2.8514,-2.8408,-2.8301,-2.8301,-2.7715,-2.7266,-2.7031,-2.6426,-2.5977,-2.5693,-2.5693,-2.5693,-2.5693,-2.5693,-2.5693,-2.5693,-2.5693,-2.5693,-2.5693,-2.5693,-2.5693,-2.5693,-2.5693,-2.5693,-2.5693,-2.5693,-2.5382,-2.4971,-2.5479,-2.502,-2.4048,-2.3534,-2.3285,-2.3135,0.0,0.0,0.0,0.0,0.0,0.0,0.0,0.0,0.0,0.0,0.0,0.0,0.0,-2.0605,-2.0605,0.0,0.0,0.0,-2.0605,-2.078,-2.0858,-2.0858,-2.0683,-2.0605,-2.0605,-2.0605,-2.0605,-2.0605,-2.0605,-2.0605,-2.0605,-2.0605,-2.0605,-2.0605,-2.0683,-2.0684,-2.0723,-2.0801,-2.0919,-2.1056,-2.0879,-2.0919,-2.1056,-2.0879,0.0,0.0,0.0,-2.1093,-2.1228,-2.1148,0.0,0.0,0.0,0.0,-2.1422,-2.207,-2.2438,-2.2831,-2.3831,-2.4098,-2.4124,-2.4407,-2.4529,0.0,-2.5374,-2.5442,-2.566,-2.6315,-2.6592,-2.6688,-2.6448,-2.64,-2.6612,-2.7432,-2.741,-2.7625,-2.8404,-2.8422,-2.8301,-2.8301,-2.8301,-2.8301,-2.8301,-2.8301,-2.8301,-2.8301,-2.75,-2.7012,-2.7012,-2.6161,-2.5693,-2.5693,-2.5693,-2.5693,-2.5693,-2.5693,-2.5693,-2.5693,-2.5693,-2.5693,-2.5693,-2.5693,-2.5693,-2.5693,-2.5693,-2.5693,-2.5693,-2.5693,-2.5069,-2.4196,-2.5069,-2.4756,-2.3683,-2.2634,-2.2785,-2.3285,0.0,0.0,0.0,0.0,0.0,0.0,0.0,0.0,0.0,0.0,-2.0605,-2.0605,-2.0605,-2.0605,-2.0605,-2.0605,-2.0605,-2.0605,-2.0605,0.0,0.0,-2.0644,-2.0605,-2.0605,-2.0605,-2.0605,-2.0605,-2.0605,-2.0605,-2.0605,-2.0605,-2.0605,-2.0605,-2.0625,-2.0977,-2.1112,-2.1132,-2.1543,-2.176,-2.176,-2.176,-2.176,-2.176,0.0,0.0,0.0,0.0,0.0,-2.1412,-2.1074,-2.1051,0.0,0.0,0.0,-2.1729,-2.165,-2.2487,-2.3316,-2.2676,0.0,-2.4406,0.0,-2.4658,-2.5188,0.0,-2.5371,-2.543,-2.6008,-2.6187,-2.6187,-2.6139,-2.5965,-2.5996,-2.6486,-2.6878,-2.7239,-2.778,-2.8119,-2.8301,-2.8301,-2.8301,-2.8301,-2.8301,-2.8301,-2.8301,-2.8301,-2.75,-2.7012,-2.7012,-2.6161,-2.5693,-2.5693,-2.5693,-2.5693,-2.5693,-2.5693,-2.5693,-2.5693,-2.5693,-2.5693,-2.5693,-2.5693,-2.5693,-2.5693,-2.5693,-2.5693,-2.5693,-2.5693,-2.5069,-2.4079,-2.4245,-2.3651,-2.2584,-2.1489,-2.1183,-2.1285,0.0,0.0,0.0,0.0,0.0,0.0,0.0,0.0,0.0,0.0,0.0,-2.0605,-2.0605,-2.0605,-2.0605,-2.0605,-2.0605,-2.0605,-2.0605,-2.0605,-2.0605,-2.0605,-2.0605,-2.0605,-2.0605,-2.0605,-2.0605,-2.0605,-2.0605,-2.0742,-2.0937,-2.0937,-2.0937,-2.0957,-2.1112,-2.1327,-2.1621,-2.1797,-2.1894,-2.1894,-2.1894,-2.1894,0.0,0.0,0.0,0.0,0.0,0.0,0.0,-2.1508,-2.1529,-2.159,-2.159,0.0,0.0,0.0,-2.2169,-2.2655,-2.2585,-2.3343,-2.4091,0.0,-2.4186,-2.4541,-2.5013,-2.5031,-2.5152,-2.574,-2.5868,-2.5868,-2.5868,-2.5771,-2.583,-2.6309,-2.6543,-2.6894,-2.763,-2.7832,-2.8027,-2.8262,-2.8301,-2.8301,-2.8301,-2.8301,-2.8203,-2.7949,-2.7363,-2.6914,-2.668,-2.6025,-2.5693,-2.5693,-2.5693,-2.5693,-2.5693,-2.5693,-2.5693,-2.5693,-2.5693,-2.5693,-2.5693,-2.5693,-2.5693,-2.5693,-2.5069,-2.5118,-2.5645,-2.5069,-2.4146,-2.3235,-2.3899,-2.3085,-2.154,-2.1081,-2.0877,-2.0826,0.0,0.0,0.0,0.0,0.0,0.0,0.0,0.0,0.0,0.0,0.0,-2.0605,-2.0605,0.0,0.0,0.0,-2.0605,-2.0605,-2.0605,-2.0605,-2.0605,-2.0605,-2.0605,-2.0605,-2.0605,-2.0605,-2.0605,-2.0605,-2.0723,-2.0898,-2.119,-2.1307,-2.1424,0.0,-2.1522,-2.1738,-2.2051,-2.2168,-2.2207,-2.2207,0.0,0.0,0.0,0.0,0.0,0.0,0.0,0.0,0.0,0.0,-2.1894,-2.1894,-2.1894,-2.1953,0.0,0.0,0.0,-2.2308,-2.2811,0.0,-2.3927,-2.3754,-2.3841,-2.4106,0.0,-2.4756,-2.492,-2.5547,-2.5693,-2.5693,-2.5693,-2.5693,-2.5791,-2.6172,-2.6309,-2.6602,-2.7297,-2.7493,-2.7617,-2.793,-2.7969,-2.8008,-2.8125,-2.8027,-2.7891,-2.7728,-2.7168,-2.6719,-2.6406,-2.5977,-2.5693,-2.5693,-2.5693,-2.5693,-2.5693,-2.5693,-2.5577,-2.5284,-2.5577,-2.5577,-2.5314,-2.5577,-2.5528,-2.5265,-2.4442,-2.4412,-2.4873,-2.4295,-2.3285,-2.2181,-2.3285,-2.2534,-2.0893,-2.0585,-2.0688,-2.0739,0.0,0.0,0.0,0.0,0.0,0.0,0.0,0.0,0.0,0.0,0.0,-2.0605,-2.0605,-2.0605,-2.0605,-2.0605,-2.0605,-2.0605,-2.0605,-2.0605,-2.0605,-2.0605,-2.0605,0.0,-2.0605,-2.0605,-2.0605,-2.0605,-2.0996,-2.1171,-2.121,-2.166,-2.207,-2.2441,-2.2441,-2.2461,-2.25,0.0,0.0,0.0,0.0,0.0,0.0,0.0,0.0,0.0,0.0,0.0,0.0,0.0,-2.1894,-2.1894,-2.1894,-2.2168,-2.248,0.0,0.0,0.0,0.0,-2.3757,0.0,-2.3667,-2.3993,-2.452,-2.474,-2.4598,-2.4668,-2.5499,-2.5693,-2.5693,-2.5693,-2.5693,-2.5693,-2.5713,-2.6113,-2.6406,-2.6445,-2.6797,-2.7051,-2.709,-2.709,-2.7246,-2.7708,-2.7324,-2.7246,-2.7689,-2.6894,-2.6406,-2.6387,-2.5977,-2.5693,-2.5693,-2.5693,-2.5693,-2.5693,-2.5693,-2.5167,-2.4196,-2.5216,-2.5167,-2.4245,-2.5216,-2.5167,-2.4196,-2.4146,-2.3534,-2.2735,-2.3683,-2.2885,-2.1081,-2.2131,-2.1878,-2.079,-1.9776,-2.0034,-2.0739,0.0,0.0,0.0,0.0,0.0,0.0,0.0,0.0,0.0,0.0,0.0,0.0,0.0,-2.0996,-2.0879,-2.0625,-2.0605,-2.0605,-2.0605,-2.0605,-2.0605,-2.0605,-2.0605,-2.0605,-2.0605,-2.084,-2.0996,-2.0996,-2.1426,-2.1797,-2.2051,-2.2207,-2.2519,-2.2867,-2.2637,-2.2656,-2.2886,-2.3042,0.0,0.0,0.0,0.0,0.0,0.0,0.0,0.0,0.0,0.0,0.0,0.0,0.0,-2.2695,-2.2695,-2.275,-2.2867,-2.2867,-2.2984,0.0,0.0,0.0,0.0,-2.3319,-2.343,-2.372,-2.4067,-2.4264,-2.459,-2.5176,-2.5527,-2.5693,-2.5693,-2.5693,-2.5693,-2.5693,-2.581,-2.6074,-2.6348,-2.6523,-2.6719,-2.6973,-2.7012,-2.707,-2.7226,-2.7109,-2.6973,-2.6855,-2.6562,-2.6269,-2.5996,-2.5771,-2.5693,-2.5693,-2.5693,-2.5693,-2.5693,-2.5693,-2.5167,-2.4097,-2.4492,-2.4097,-2.3085,-2.4196,-2.3701,-2.208,-2.2785,-2.2835,-2.2484,-2.2181,-2.1591,-2.0928,-2.1336,-2.0842,-1.9828,-1.9428,-1.9428,-1.9583,0.0,0.0,0.0,0.0,0.0,-2.1894,-2.1894,-2.1894,-2.1894,-2.1894,0.0,0.0,0.0,0.0,-2.1328,-2.1075,-2.1055,-2.1055,-2.1055,-2.1055,-2.1055,-2.1055,-2.1055,-2.1055,-2.1055,-2.1152,-2.1268,-2.1405,-2.1738,-2.2109,0.0,-2.2656,-2.2828,-2.3081,-2.2808,-2.2828,0.0,0.0,0.0,-2.3101,0.0,0.0,-2.3101,0.0,0.0,0.0,-2.3101,-2.3101,-2.3101,-2.3101,0.0,-2.3101,-2.3101,-2.3101,-2.3101,-2.3101,-2.3101,0.0,-2.3101,0.0,0.0,0.0,-2.3101,-2.3198,-2.3691,-2.4121,-2.4531,-2.498,-2.543,-2.5693,-2.5693,-2.5693,-2.5693,-2.5693,-2.5693,-2.5791,-2.6133,-2.6172,-2.6269,-2.6543,-2.6582,-2.6641,-2.6797,-2.668,-2.6523,-2.6406,-2.625,-2.6055,-2.5713,-2.5693,-2.5693,-2.5693,-2.5693,-2.5693,-2.5693,-2.5333,-2.4609,-2.3534,-2.3534,-2.2985,-2.1979,-2.3085,-2.2584,-2.0928,-2.1641,-2.1743,-2.1387,-2.0944,-2.0534,-2.0277,-2.0637,-2.0138,-1.9182,-1.9182,-1.9078,-1.8921,0.0,0.0,-2.1914,-2.1914,-2.1914,-2.1914,-2.1914,-2.1914,-2.1914,-2.1914,0.0,0.0,0.0,0.0,0.0,-2.1894,-2.1894,-2.1894,-2.1894,-2.1894,-2.1894,-2.1894,-2.1894,-2.1894,-2.1894,-2.1484,-2.1444,-2.1894,-2.1914,-2.2129,0.0,0.0,-2.3101,-2.312,-2.312,-2.312,-2.314,-2.312,-2.312,-2.314,0.0,-2.314,-2.314,0.0,0.0,-2.314,-2.312,-2.312,-2.312,-2.3101,0.0,0.0,-2.3101,-2.3101,-2.3101,-2.3101,0.0,0.0,0.0,0.0,0.0,0.0,-2.3101,-2.3198,-2.3672,-2.4102,-2.4531,-2.4961,-2.541,-2.5674,-2.5693,-2.5693,-2.5693,-2.5693,-2.5693,-2.5693,-2.5693,-2.5693,-2.5693,-2.5693,-2.5693,-2.5898,-2.6328,-2.5996,-2.5869,-2.6328,-2.5977,-2.5693,-2.5693,-2.5693,-2.5693,-2.5693,-2.5693,-2.5693,-2.5693,-2.4658,-2.3534,-2.2484,-2.2484,-2.1895,-2.0877,-2.1929,-2.1828,-2.0826,-2.0893,-2.0292,-1.9338,-2.0153,-1.9843,-1.8988,-2.005,-1.9843,-1.8883,-1.8869,-1.8869,-1.8817,0.0,0.0,-2.275,-2.275,-2.275,-2.275,-2.275,-2.275,-2.275,0.0,0.0,0.0,0.0,0.0,-2.1894,-2.1894,-2.1894,-2.1894,-2.1894,-2.1894,-2.1894,-2.1894,-2.1894,-2.1894,-2.1894,-2.207,-2.2207,-2.2344,0.0,0.0,0.0,0.0,0.0,0.0,-2.3613,-2.3769,-2.3997,-2.373,0.0,-2.4062,-2.4062,-2.4062,-2.4062,-2.4062,-2.4062,-2.4023,-2.3711,-2.3613,-2.3555,-2.3198,-2.3101,-2.3101,0.0,0.0,0.0,0.0,0.0,0.0,-2.3101,0.0,0.0,0.0,0.0,0.0,-2.3257,-2.3652,-2.4082,-2.4512,-2.4941,-2.5352,-2.5635,-2.5693,-2.5693,-2.5693,-2.5693,-2.5693,-2.5693,-2.5693,-2.5693,-2.5693,-2.5693,-2.5732,-2.5898,-2.5752,-2.5732,-2.5849,-2.5752,-2.5693,-2.5693,-2.5693,-2.5693,-2.5693,-2.5693,-2.5693,-2.5693,-2.4658,-2.3534,-2.2484,-2.1743,-2.0688,-1.948,-2.0585,-2.0313,-1.9153,-2.0158,-2.0001,-1.9025,-1.9449,-1.9343,-1.8932,-1.9237,-1.9184,-1.8851,-1.8626,-1.8436,-1.8279,-2.3101,-2.3101,-2.3101,-2.3101,-2.3101,-2.3101,-2.3101,-2.3101,-2.3101,0.0,0.0,0.0,0.0,0.0,0.0,-2.2402,-2.2402,-2.2402,-2.2402,-2.2402,-2.2402,-2.2402,-2.2402,-2.2402,-2.2402,-2.248,0.0,0.0,0.0,0.0,0.0,0.0,0.0,0.0,-2.4043,-2.4297,-2.4668,-2.4434,-2.4355,-2.4414,-2.4414,-2.4414,-2.4414,-2.4414,-2.4414,-2.4375,-2.4141,-2.4043,-2.4004,-2.3705,-2.3627,0.0,0.0,0.0,0.0,0.0,0.0,0.0,0.0,0.0,0.0,0.0,0.0,0.0,-2.3101,-2.3477,-2.3906,-2.4336,-2.4766,-2.5215,-2.5615,-2.5693,-2.5693,-2.5693,-2.5693,-2.5693,-2.5693,-2.5693,-2.5693,-2.5693,-2.5693,-2.5693,-2.5693,-2.5693,-2.5693,-2.5693,-2.5693,-2.5693,-2.5693,-2.5693,-2.5479,-2.5069,-2.502,-2.4824,-2.4362,-2.3302,-2.2433,-2.1844,-2.0637,-1.9687,-1.8921,-1.9413,-1.9263,-1.8618,-1.9478,-1.9477,-1.8931,-1.9166,-1.9152,-1.8917,-1.8917,-1.8917,-1.889,-1.8571,-1.8367,-1.8194,0.0,-2.3101,-2.3101,-2.3101,-2.3101,-2.3101,-2.3101,-2.3101,-2.3101,0.0,0.0,0.0,0.0,0.0,0.0,0.0,-2.3101,-2.3101,-2.3101,-2.3101,-2.3101,-2.3101,-2.3101,-2.3101,-2.3101,-2.2812,0.0,0.0,0.0,0.0,0.0,0.0,0.0,0.0,-2.4492,-2.4727,-2.5184,-2.5184,-2.4922,-2.4524,-2.4524,-2.4524,-2.4524,-2.4524,-2.4524,-2.4551,-2.4512,-2.4492,-2.4473,-2.4434,-2.4414,0.0,0.0,0.0,0.0,0.0,-2.416,0.0,0.0,0.0,0.0,0.0,-2.314,0.0,-2.3101,-2.3437,-2.3848,-2.4258,-2.4648,-2.5059,-2.546,-2.5538,-2.5557,-2.5596,-2.5615,-2.5635,-2.5674,-2.5693,-2.5693,-2.5693,-2.5693,-2.5693,-2.5693,-2.5693,-2.5693,-2.5693,-2.5693,-2.5693,-2.5693,-2.5693,-2.5216,-2.4146,-2.4079,-2.3534,-2.2484,-2.1336,-2.0775,-2.0775,-1.948,-1.8817,-1.8764,-1.8517,-1.8579,-1.8791,-1.8846,-1.8878,-1.8932,-1.9176,-1.9122,-1.8919,-1.8919,-1.8919,-1.8878,-1.8578,-1.8509,-1.8387,-2.3101,-2.3101,-2.3101,-2.3101,-2.3101,-2.3101,-2.3101,-2.3101,-2.3101,-2.3101,-2.3101,0.0,0.0,0.0,0.0,0.0,0.0,-2.3101,-2.3101,-2.3101,-2.3101,-2.3101,-2.3101,-2.3101,-2.3101,-2.3398,-2.3574,0.0,0.0,0.0,0.0,0.0,0.0,0.0,-2.4941,-2.5176,-2.5557,-2.5557,-2.5499,-2.544,-2.544,-2.544,-2.544,-2.544,-2.544,-2.5382,-2.5078,-2.4941,-2.493,-2.4531,-2.4414,-2.4414,0.0,0.0,0.0,-2.4414,0.0,0.0,0.0,0.0,0.0,0.0,-2.3398,0.0,-2.3101,-2.3159,-2.3379,-2.3828,-2.3984,-2.418,-2.459,-2.4621,-2.4785,-2.5137,-2.5195,-2.5332,-2.5635,-2.5693,-2.5693,-2.5693,-2.5693,-2.5693,-2.5693,-2.5693,-2.5693,-2.5693,-2.5693,-2.5693,-2.5693,-2.5693,-2.5216,-2.4146,-2.3881,-2.3235,-2.2181,-2.0861,-2.0195,-2.0143,-1.9034,-1.8384,-1.8188,-1.8383,-1.8359,-1.8171,-1.871,-1.8897,-1.8921,-1.9273,-1.9219,-1.8894,-1.8894,-1.8894,-1.8854,-1.8615,-1.8305,-1.809,-2.3725,-2.3725,-2.3725,-2.3725,-2.3725,-2.3725,-2.3725,-2.3725,-2.3725,-2.3725,-2.3725,0.0,0.0,0.0,0.0,0.0,0.0,0.0,0.0,0.0,-2.3725,-2.3725,-2.3725,-2.3725,-2.3725,-2.3984,-2.4102,0.0,0.0,0.0,0.0,0.0,0.0,0.0,0.0,0.0,-2.5693,-2.5693,-2.5693,-2.5693,-2.5693,-2.5693,-2.5693,-2.5693,-2.5693,-2.5654,-2.5488,-2.541,-2.5371,-2.5156,-2.5031,-2.5031,-2.5031,-2.5031,-2.5031,0.0,-2.4922,-2.4746,0.0,0.0,0.0,-2.4102,-2.3945,0.0,0.0,-2.3457,-2.3516,-2.375,-2.3789,-2.3926,-2.4336,-2.4414,-2.4492,-2.4707,-2.4969,-2.5078,-2.5078,-2.5421,-2.5693,-2.5693,-2.5693,-2.5693,-2.5693,-2.5693,-2.5693,-2.5693,-2.5693,-2.5693,-2.5693,-2.5167,-2.4362,-2.3135,-2.2433,-2.1523,-2.0261,-1.9539,-1.9176,-1.9176,-1.8527,-1.8204,-1.8249,-1.8252,-1.8306,-1.8448,-1.8798,-1.9011,-1.9158,-1.9305,-1.9279,-1.9145,-1.9145,-1.9145,-1.9105,-1.8811,-1.8611,-1.8382,-2.4453,-2.4414,-2.4414,-2.4414,-2.4414,-2.4414,-2.4414,-2.4414,-2.4414,-2.4414,0.0,0.0,0.0,0.0,0.0,0.0,0.0,0.0,0.0,0.0,-2.4414,-2.4414,-2.4414,-2.4414,-2.4414,-2.4492,-2.4531,-2.4531,0.0,0.0,0.0,0.0,0.0,0.0,0.0,0.0,0.0,0.0,-2.5693,-2.5693,-2.5771,-2.581,-2.583,-2.5908,-2.5927,-2.5927,-2.5927,-2.5927,-2.5927,-2.5927,-2.5927,-2.5927,-2.5849,-2.581,0.0,0.0,0.0,0.0,0.0,0.0,0.0,0.0,-2.4473,-2.4316,0.0,0.0,0.0,-2.3906,-2.3848,-2.3887,-2.4238,-2.4219,-2.4199,-2.4277,-2.459,-2.4727,-2.4453,-2.5039,-2.544,-2.544,-2.5577,-2.5654,-2.5557,-2.5635,-2.5693,-2.5693,-2.5645,-2.5645,-2.5645,-2.4559,-2.3335,-2.203,-2.0928,-1.9657,-1.8318,-1.8265,-1.8265,-1.8265,-1.8016,-1.8075,-1.8428,-1.8211,-1.8368,-1.8931,-1.8985,-1.9145,-1.943,-1.943,-1.943,-1.943,-1.943,-1.943,-1.939,-1.9092,-1.8971,-1.8851,-2.457,-2.4414,-2.4414,-2.4414,-2.4414,-2.4414,-2.4414,-2.4414,0.0,0.0,0.0,0.0,0.0,0.0,0.0,0.0,0.0,0.0,-2.4414,-2.4414,0.0,-2.4414,-2.4414,-2.4414,-2.4414,-2.4805,-2.5047,-2.5047,0.0,0.0,0.0,0.0,0.0,0.0,-2.5693,0.0,0.0,0.0,-2.5693,-2.5732,-2.6152,-2.6309,-2.6348,-2.6719,-2.6875,-2.6875,-2.6875,-2.6875,-2.6875,-2.6875,-2.6875,-2.6797,0.0,-2.6309,-2.625,-2.581,0.0,0.0,0.0,0.0,0.0,-2.4953,-2.4707,-2.4414,-2.4355,0.0,-2.4355,-2.4355,0.0,-2.3809,-2.3848,0.0,0.0,-2.3789,-2.3906,-2.4043,-2.4375,-2.4512,-2.457,-2.457,-2.5206,-2.5586,-2.5176,-2.5508,-2.5693,-2.5693,-2.5479,-2.5333,-2.5333,-2.4097,-2.2885,-2.1794,-2.04,-1.9176,-1.8069,-1.7793,-1.7687,-1.7687,-1.7635,-1.7795,-1.805,-1.8317,-1.8611,-1.8945,-1.9199,-1.9332,-1.943,-1.943,-1.943,-1.943,-1.943,-1.943,-1.9417,-1.939,-1.9145,-1.8918,-2.5206,-2.5128,-2.5128,-2.5128,-2.5128,-2.5128,-2.5128,-2.5128,0.0,0.0,0.0,0.0,-2.5128,-2.5128,-2.5128,-2.5128,-2.5128,-2.5128,-2.5128,-2.5128,0.0,-2.5128,-2.5128,-2.5128,-2.5128,-2.5371,-2.5449,-2.5449,-2.5644,0.0,0.0,0.0,0.0,0.0,-2.5693,-2.5693,-2.5713,-2.6016,-2.6113,-2.6172,-2.6855,-2.7129,-2.7129,-2.7051,-2.7012,-2.7012,-2.7012,-2.7012,-2.7012,-2.7012,-2.7012,-2.6992,0.0,0.0,0.0,-2.62,0.0,0.0,0.0,0.0,0.0,-2.4967,-2.4977,-2.4832,-2.4439,-2.4476,-2.4465,-2.4074,0.0,0.0,0.0,0.0,0.0,0.0,-2.3699,-2.3769,-2.3647,-2.4102,-2.4414,-2.4414,-2.4746,-2.5,-2.5106,-2.4925,-2.4957,-2.5441,-2.5005,-2.453,-2.4146,-2.3003,-2.1777,-2.0503,-1.928,-1.837,-1.7753,-1.7635,-1.7582,-1.7582,-1.7582,-1.7836,-1.8303,-1.8437,-1.8744,-1.9185,-1.9319,-1.943,-1.943,-1.943,-1.943,-1.943,-1.943,-1.943,-1.943,-1.943,-1.9292,-1.9158,-2.6044,0.0,-2.5693,-2.5693,-2.5693,-2.5693,-2.5693,-2.5693,-2.5732,-2.5898,-2.5869,-2.5908,-2.6025,-2.6044,-2.6044,-2.6044,-2.6044,-2.6044,-2.6044,-2.6044,-2.5986,-2.5918,-2.5869,-2.581,-2.5693,-2.5693,-2.5693,-2.5693,-2.5693,0.0,0.0,0.0,0.0,0.0,0.0,-2.6044,-2.6064,-2.6426,-2.6562,-2.6621,-2.7363,-2.7787,-2.7865,-2.748,-2.7363,-2.7363,-2.7363,-2.7363,-2.7363,-2.7363,-2.7312,-2.724,-2.7124,-2.6911,-2.6731,0.0,0.0,0.0,-2.5657,-2.5286,-2.4944,-2.5043,-2.5115,-2.5061,-2.4562,-2.465,-2.4555,-2.3756,-2.372,0.0,0.0,0.0,0.0,0.0,0.0,-2.3069,-2.272,-2.3145,-2.3587,-2.3926,-2.3997,-2.4229,-2.4656,-2.4283,-2.4277,-2.4957,-2.4487,-2.3906,-2.3217,-2.208,-2.0861,-1.9524,-1.8461,-1.7806,-1.7582,-1.7582,-1.7582,-1.7582,-1.7582,-1.7903,-1.849,-1.849,-1.8811,-1.943,-1.943,-1.943,-1.943,-1.943,-1.943,-1.943,-1.943,-1.943,-1.943,-1.943,-1.943,-1.939,-2.6973,-2.6259,0.0,-2.5693,-2.5693,-2.5693,-2.5693,-2.5693,-2.5849,-2.6309,-2.6367,-2.6523,-2.6934,-2.6973,-2.6973,-2.6973,-2.6973,-2.6973,-2.6973,-2.6973,-2.6797,-2.6387,-2.6367,-2.6172,-2.5693,-2.5693,-2.5693,-2.5693,-2.5693,0.0,0.0,0.0,0.0,0.0,-2.6797,-2.6973,-2.6973,-2.6992,-2.6992,-2.7031,-2.748,-2.791,-2.8262,-2.8262,-2.8262,-2.8262,-2.8262,-2.8262,-2.8262,-2.8262,-2.8082,-2.7791,-2.7314,-2.7199,-2.7102,0.0,0.0,0.0,-2.6493,-2.5831,-2.5157,-2.5428,-2.5176,-2.4922,-2.4873,-2.4922,-2.4609,-2.3516,-2.3816,-2.3962,-2.2912,0.0,0.0,0.0,0.0,0.0,0.0,-2.1364,-2.1553,-2.27,-2.3019,-2.3301,-2.37,-2.3738,-2.3862,-2.4316,-2.4095,-2.3596,-2.2968,-2.1641,-2.0416,-1.9228,-1.8146,-1.7635,-1.7582,-1.7582,-1.7582,-1.7582,-1.7582,-1.7903,-1.849,-1.849,-1.8811,-1.943,-1.943,-1.943,-1.943,-1.943,-1.943,-1.943,-1.943,-1.943,-1.943,-1.943,-1.943,-1.943,-2.7012,-2.6777,-2.6582,-2.6582,-2.6582,-2.6582,-2.6582,-2.6582,-2.6641,-2.6777,-2.6797,-2.6855,-2.6992,-2.7012,-2.7012,-2.7012,-2.7012,-2.7012,-2.7012,-2.7012,-2.6953,-2.6816,-2.6797,-2.6738,-2.6582,-2.6582,-2.6582,-2.6582,0.0,0.0,0.0,0.0,0.0,0.0,0.0,-2.7012,-2.7031,-2.7324,-2.7441,-2.748,-2.791,-2.834,-2.8672,-2.8398,-2.8194,-2.8014,-2.8014,-2.8014,-2.8014,-2.8014,-2.796,-2.7887,-2.7733,-2.7374,-2.7012,-2.6774,-2.6432,-2.6061,-2.606,-2.5685,-2.5315,-2.5418,-2.5237,-2.4989,-2.4857,-2.4753,-2.4282,-2.302,-2.2965,-2.2778,-2.1712,0.0,0.0,0.0,0.0,0.0,0.0,-2.0646,-2.1141,-2.222,-2.2529,-2.2531,-2.2327,-2.251,-2.2639,-2.2691,-2.3048,-2.2636,-2.1246,-2.1004,-2.0055,-1.8199,-1.7793,-1.7582,-1.7582,-1.7582,-1.7582,-1.7582,-1.7582,-1.7903,-1.849,-1.849,-1.8811,-1.943,-1.943,-1.943,-1.943,-1.943,-1.943,-1.943,-1.943,-1.943,-1.943,-1.943,-1.943,-1.943,-2.7461,-2.7461,-2.7383,-2.707,-2.7012,-2.7012,-2.7012,-2.7012,-2.707,-2.7226,-2.7246,-2.7363,-2.7656,-2.7695,-2.7754,-2.791,-2.793,-2.793,-2.793,-2.7773,-2.7617,-2.748,-2.7324,-2.7168,-2.7012,-2.7012,-2.7012,0.0,0.0,-2.7012,0.0,0.0,0.0,0.0,0.0,-2.7461,-2.748,-2.7773,-2.7891,-2.793,-2.8252,-2.8529,-2.8742,-2.8517,-2.8478,-2.8459,-2.8195,-2.8083,-2.8083,-2.7975,-2.7752,-2.7584,-2.7584,-2.7314,-2.6987,-2.6905,-2.6651,-2.6328,-2.6228,-2.5956,-2.5635,-2.5635,-2.5426,-2.5164,-2.5029,-2.4495,-2.3785,-2.2876,-2.2317,-2.1861,-2.1556,0.0,0.0,0.0,0.0,0.0,0.0,-1.9458,-1.9987,-2.0965,-2.1715,-2.2002,-2.1671,-2.1518,-2.1626,-2.1995,-2.2286,-2.18,-2.0371,-2.0686,-1.9901,-1.7687,-1.7582,-1.7582,-1.7582,-1.7582,-1.7582,-1.7582,-1.7582,-1.7903,-1.849,-1.849,-1.8811,-1.943,-1.943,-1.943,-1.943,-1.943,-1.943,-1.943,-1.943,-1.943,-1.943,-1.943,-1.9301,-1.9243,-2.8301,-2.8301,-2.8027,-2.7226,-2.707,-2.707,-2.707,-2.709,-2.7246,-2.7676,-2.7806,-2.8066,-2.8867,-2.8945,-2.9121,-2.9531,-2.9626,-2.9626,-2.9626,-2.918,-2.8769,-2.8379,-2.7969,-2.7559,-2.7109,-2.7109,0.0,0.0,0.0,0.0,0.0,0.0,0.0,0.0,-2.8125,0.0,-2.8301,-2.8301,-2.8301,-2.8306,-2.8388,-2.849,-2.8567,-2.8595,-2.9048,-2.9514,-2.8754,-2.849,-2.849,-2.8121,-2.7582,-2.7045,-2.7045,-2.7027,-2.7027,-2.7027,-2.7008,-2.6989,-2.6989,-2.6495,-2.6039,-2.6039,-2.5745,-2.5399,-2.5347,-2.4225,-2.3203,-2.3031,-2.1921,-2.1267,-2.2165,0.0,0.0,0.0,0.0,0.0,0.0,0.0,-1.8159,-1.9067,-2.0669,-2.1652,-2.1508,-2.0754,-2.0821,-2.2034,-2.1714,-2.1122,0.0,-2.0604,-1.9834,-1.7687,-1.7582,-1.7582,-1.7582,-1.7582,-1.7582,-1.7582,-1.7582,-1.7903,-1.849,-1.849,-1.8811,-1.943,-1.943,-1.943,-1.943,-1.943,-1.943,-1.943,-1.9359,-1.9372,-1.9359,-1.9372,-1.9185,-1.8939,-2.8301,-2.8301,-2.8223,-2.8008,-2.7969,-2.7969,-2.7969,-2.8223,-2.8476,-2.8574,-2.8887,-2.916,-2.9375,-2.9394,-2.9453,-2.9607,-2.9626,-2.9626,-2.9626,-2.9473,-2.9355,-2.9238,-2.9196,-2.8887,-2.8437,-2.8437,-2.8281,-2.7969,0.0,0.0,-2.7969,0.0,0.0,0.0,0.0,-2.8301,-2.8301,-2.8067,-2.8026,-2.806,-2.81,-2.8537,-2.9089,-2.871,-2.9127,-2.9679,-2.8672,-2.8464,-2.8633,-2.8239,-2.8052,-2.7903,-2.7903,-2.753,-2.7124,-2.7124,-2.6921,-2.6682,-2.6682,-2.6554,-2.6426,-2.6426,-2.6114,-2.5591,-2.4703,-2.4685,-2.4208,-2.2182,-2.2154,-2.2022,-2.0359,-1.9797,0.0,0.0,0.0,0.0,0.0,0.0,-1.8364,-1.9099,-2.0506,-2.0593,-1.8612,-1.9575,-2.011,-1.9754,-2.0522,-2.0704,-1.9891,-1.9556,-1.8788,-1.7621,-1.7582,-1.7582,-1.7582,-1.7582,-1.7582,-1.7582,-1.7582,-1.7903,-1.849,-1.849,-1.8811,-1.943,-1.943,-1.943,-1.943,-1.943,-1.943,-1.9359,-1.9113,-1.8894,-1.8719,-1.8939,-1.8823,-1.8532,-2.8848,-2.8848,-2.8848,-2.8848,-2.8848,-2.8789,-2.8594,-2.8926,-2.9199,-2.9199,-2.9414,-2.9704,-2.9824,-2.9844,-2.9922,-3.0137,-3.0156,-3.0156,-3.0156,-2.9961,-2.9844,-2.9844,-2.9668,-2.9453,-2.9199,-2.9199,0.0,-2.8574,0.0,0.0,-2.8301,0.0,0.0,0.0,0.0,-2.8301,-2.8301,-2.8226,-2.8372,-2.8665,-2.8445,-2.871,0.0,-2.8913,-2.9175,-2.963,-2.8811,-2.8648,-2.8709,-2.8384,-2.8159,-2.8049,-2.8049,-2.7788,-2.7435,-2.7435,-2.716,-2.6738,-2.6222,-2.6317,-2.6482,-2.5971,-2.601,-2.5955,-2.4726,-2.427,-2.3659,-2.2108,-2.1714,-2.1338,-2.03,-1.9628,0.0,0.0,0.0,0.0,0.0,0.0,-1.7875,-1.8282,-1.8871,-1.8716,-1.7153,-1.916,-2.0062,-1.8888,-1.972,-1.9891,-1.9097,-1.8885,-1.8446,-1.7621,-1.7582,-1.7582,-1.7582,-1.7582,-1.7582,-1.7582,-1.7716,-1.8036,-1.849,-1.8624,-1.8931,-1.943,-1.943,-1.943,-1.943,-1.943,-1.9301,-1.9127,-1.8823,-1.8473,-1.8252,-1.8428,-1.8369,-1.8252,-2.9885,-2.9738,-2.9626,-2.9626,-2.9609,-2.9531,-2.9141,-2.9414,-2.9704,-2.9704,-2.9707,-2.9883,-3.0254,-3.0293,-3.0449,-3.0859,-3.0898,-3.0898,-3.0898,-3.0508,-3.0293,-3.0293,-2.9941,-2.9707,-2.9648,-2.9704,-2.9434,0.0,0.0,0.0,0.0,0.0,0.0,0.0,0.0,0.0,0.0,-2.8539,-2.8945,-2.9463,-2.8973,-2.8988,-2.9255,-2.9083,-2.9153,-2.939,-2.9094,-2.8932,-2.8851,-2.8578,-2.8223,-2.7987,-2.7987,-2.795,-2.7914,-2.7914,-2.7563,-2.7065,-2.5909,-2.6016,-2.6208,-2.5238,-2.5679,-2.6026,-2.4834,-2.3624,-2.2663,-2.223,-2.1039,-2.0309,-2.0991,-1.9979,0.0,0.0,0.0,0.0,0.0,0.0,0.0,0.0,-1.7106,0.0,-1.6714,-1.8999,-1.9989,-1.8752,-1.8957,-1.8843,-1.8213,-1.839,-1.8249,-1.7621,-1.7582,-1.7582,-1.7582,-1.7582,-1.7582,-1.7582,-1.7903,-1.8196,-1.8504,-1.8728,-1.9021,-1.9301,-1.9301,-1.9243,-1.9243,-1.9243,-1.9068,-1.8765,-1.8473,-1.8194,-1.7914,-1.7914,-1.7914,-1.7972,-3.1298,-3.0274,-2.9626,-2.9626,-2.9863,-3.0059,-2.998,-3.0039,-3.0078,-3.0078,-3.043,-3.0684,-3.0762,-3.0762,-3.0801,-3.0879,-3.0898,-3.0898,-3.0898,-3.082,-3.0762,-3.0762,-3.0703,-3.0488,-3.0098,-3.0078,-2.9883,0.0,0.0,0.0,0.0,0.0,0.0,0.0,0.0,0.0,-2.8966,-2.8988,-2.8974,-2.8953,-2.8855,-2.8923,-2.9061,-2.9016,-2.9035,-2.9094,-2.9035,-2.9176,-2.9338,-2.9002,-2.8828,-2.8773,-2.8773,-2.8553,-2.8278,-2.8278,-2.7985,-2.76,-2.7027,-2.6267,-2.5734,-2.6153,-2.5679,-2.4778,-2.3592,-2.3877,-2.3745,-2.139,-2.146,-2.162,-2.053,-1.9158,0.0,0.0,0.0,0.0,-1.7582,-1.7542,0.0,0.0,-1.8128,-1.8198,-1.6854,-1.7707,-1.8258,-1.796,-1.7767,-1.7805,-1.8163,-1.7504,-1.7225,-1.7569,-1.7582,-1.7582,0.0,-1.7582,-1.7582,-1.7582,-1.7903,-1.8196,-1.8504,-1.8489,-1.8664,-1.8997,-1.8706,-1.8603,-1.8603,-1.8603,-1.8428,-1.8135,-1.8089,-1.7843,-1.7608,-1.7608,-1.7608,-1.7608,-3.219,-3.1087,-3.0254,-3.0254,-3.043,-3.0547,-3.0547,-3.0547,-3.0547,-3.0547,-3.0762,-3.0898,-3.0898,-3.0898,-3.0898,-3.0898,-3.0898,-3.0898,-3.0898,-3.0898,-3.0898,-3.0898,-3.0898,-3.0781,-3.0566,-3.0547,-3.0332,-2.9902,-2.9902,0.0,0.0,0.0,0.0,0.0,0.0,-2.9176,0.0,-2.9298,-2.924,-2.9385,-2.921,-2.9204,-2.9213,-2.9035,-2.8975,-2.8975,-2.8975,-2.9094,-2.9213,-2.9035,-2.8975,-2.8975,-2.8975,-2.8847,-2.87,-2.87,-2.8407,-2.7925,-2.7093,-2.6149,-2.5348,-2.5104,-2.4468,-2.3536,-2.2353,-2.2523,-2.2363,-2.0402,-2.0794,-2.1184,-2.0252,-1.8931,-1.7942,-1.7849,-1.7689,-1.7582,-1.7582,-1.7582,-1.7528,0.0,0.0,0.0,-1.7233,-1.7342,-1.7407,-1.7239,-1.7428,-1.7625,-1.7658,-1.7032,-1.6981,0.0,0.0,0.0,-1.7582,0.0,-1.7582,-1.7582,-1.7887,-1.8068,-1.8213,-1.8363,-1.8519,-1.8648,-1.8473,-1.8415,-1.8357,-1.8252,-1.8135,-1.7972,-1.7784,-1.7667,-1.7479,-1.7479,-1.7479,-1.7479,-3.2685,-3.173,-3.0898,-3.0898,-3.0898,-3.0898,-3.0898,-3.0898,-3.0898,-3.0898,-3.0898,-3.0898,-3.0898,-3.0898,-3.0898,-3.0898,-3.0898,-3.0898,-3.0898,-3.0898,-3.0898,-3.0898,-3.0898,-3.0898,-3.0898,-3.0898,-3.0703,-3.0351,-3.0351,-3.0117,-2.9707,0.0,0.0,0.0,0.0,-2.9507,-2.9911,-2.9564,-2.9579,-2.9804,-2.9568,-2.945,-2.939,-2.9094,-2.8975,-2.8975,-2.8975,-2.8975,-2.8975,-2.8975,-2.8975,-2.8975,-2.8975,-2.8975,-2.8975,-2.8975,-2.8773,-2.8323,-2.7276,-2.6145,-2.5016,-2.422,-2.3349,-2.2446,-2.1417,-2.1174,-2.0831,-1.9649,-1.9903,-2.0243,-1.9914,-1.892,-1.8142,-1.8009,-1.7836,-1.7662,-1.7595,-1.7582,-1.7582,0.0,0.0,0.0,-1.7582,-1.7434,-1.7192,-1.6914,-1.7295,-1.7485,-1.723,-1.6927,0.0,0.0,-1.7582,-1.7582,-1.7582,0.0,-1.7529,-1.7543,-1.7801,-1.7909,-1.7935,-1.8161,-1.8311,-1.8311,-1.824,-1.8181,-1.8181,-1.796,-1.7901,-1.7855,-1.7608,-1.7479,-1.7479,-1.7479,-1.7479,-1.7491,-3.2685,-3.173,-3.0898,-3.0898,-3.0898,-3.0898,-3.0898,-3.0898,-3.0898,-3.0898,-3.0898,-3.0898,-3.0898,-3.0898,-3.0898,-3.0898,-3.0898,-3.0898,-3.0898,-3.0898,-3.0898,-3.0898,-3.0898,-3.0898,-3.0898,-3.0898,-3.0859,-3.082,-3.082,-3.0586,-3.0137,0.0,0.0,0.0,-2.9871,-2.9949,-3.0334,-2.9982,-2.9707,-2.9568,-2.9509,-2.9331,-2.9035,-2.8975,-2.8975,-2.8975,-2.8975,-2.8975,-2.8975,-2.8975,-2.8975,-2.8975,-2.8975,-2.8975,-2.8975,-2.8975,-2.8957,-2.8847,-2.8363,-2.6481,-2.4768,-2.5155,-2.3467,-2.1641,-2.129,-2.1174,-2.0831,-1.9649,-1.9461,-1.9398,-1.9045,-1.8908,-1.8664,-1.8075,-1.7969,-1.7903,-1.7622,-1.7582,-1.7582,-1.7582,0.0,0.0,-1.7582,-1.7555,-1.7528,-1.7502,-1.7082,-1.6908,-1.7179,0.0,0.0,-1.7569,-1.7582,-1.7582,-1.7582,-1.7384,-1.7226,-1.7239,-1.7486,-1.7644,-1.7669,-1.7898,-1.8031,-1.8031,-1.7726,-1.7596,-1.7596,-1.755,-1.7537,-1.7537,-1.7479,-1.7479,-1.7479,-1.7479,-1.7479,-1.7515,-3.2685,-3.173,-3.0898,-3.0898,-3.0898,-3.0898,-3.0898,-3.0898,-3.0976,-3.123,-3.1055,-3.0898,-3.0898,-3.0898,-3.0898,-3.0898,-3.0898,-3.0898,-3.0898,-3.0898,-3.0898,-3.0898,-3.0898,-3.0898,-3.0898,-3.0898,-3.0898,-3.0898,-3.0898,-3.0801,-3.0605,0.0,-3.0296,-3.0296,-2.9851,-2.9829,-3.0098,-2.9804,-2.9509,-2.9213,-2.945,-2.9272,-2.8975,-2.8975,-2.8975,-2.8975,-2.8975,-2.8975,-2.8975,-2.8975,-2.8975,-2.8975,-2.8975,-2.8975,-2.8975,-2.8975,-2.8439,-2.7787,-2.7628,-2.5534,-2.3429,-2.3647,-2.2098,-2.0469,-2.0403,-2.0236,-1.9996,-1.9488,-1.943,-1.939,-1.9212,-1.9052,-1.8851,-1.8555,-1.8222,-1.7955,-1.7876,-1.7702,0.0,-1.7582,0.0,-1.7582,-1.7582,-1.7582,-1.7582,-1.7582,-1.7208,-1.7152,-1.7395,0.0,0.0,-1.7371,0.0,-1.7424,-1.7054,-1.7173,-1.7158,-1.7111,-1.7232,-1.7385,-1.756,-1.767,-1.7726,-1.7667,-1.755,-1.7479,-1.7479,-1.7479,-1.7479,-1.7479,-1.7479,-1.7479,-1.7479,-1.7479,-1.7479,-1.7527,-3.219,-3.1518,-3.0898,-3.0898,-3.0996,-3.1074,-3.1074,-3.1191,-3.1367,-3.168,-3.1445,-3.1269,-3.1269,-3.1269,-3.1269,-3.1269,-3.1269,-3.1211,-3.1094,-3.1074,-3.1016,-3.0898,-3.0898,-3.0898,-3.0898,-3.082,-3.082,-3.0898,-3.082,-3.0762,-3.0762,-3.0392,-3.0274,-3.0216,-2.9745,-2.9627,-2.9745,-2.9509,-2.9213,-2.9035,-2.9272,-2.9213,-2.8975,-2.8975,-2.8975,-2.8975,-2.8975,-2.8975,-2.8975,-2.8975,-2.8975,-2.8975,-2.8975,-2.8975,-2.8975,-2.8975,-2.8062,-2.7021,-2.7021,-2.4926,-2.271,-2.2608,-2.1306,-2.0013,-1.984,-1.9639,-1.9466,-1.9444,-1.943,-1.943,-1.943,-1.9199,-1.9025,-1.8945,-1.8515,-1.8195,-1.8022,-1.7862,-1.7689,-1.7595,-1.7582,-1.7582,-1.7477,-1.7477,-1.7424,-1.7318,-1.7186,-1.716,-1.7477,0.0,0.0,0.0,0.0,0.0,-1.6683,-1.6855,-1.6942,-1.6951,-1.7006,-1.7109,-1.7379,-1.7475,-1.7479,-1.7479,-1.7479,-1.7479,-1.7479,-1.7479,-1.7479,-1.7479,-1.7479,-1.7479,-1.7479,-1.7479,-1.7527,-1.7636,-3.0898,-3.0898,-3.0898,-3.0898,-3.123,-3.1504,-3.1504,-3.1875,-3.2209,-3.2168,-3.2209,-3.2148,-3.2148,-3.2148,-3.2148,-3.2148,-3.2148,-3.1973,-3.1543,-3.1504,-3.1328,-3.0918,-3.0898,-3.0898,-3.0898,-3.0567,-3.0567,-3.0898,-3.0567,-3.0392,-3.0392,-3.0039,-2.9922,-2.9863,-2.9627,-2.9509,-2.9509,-2.9153,-2.8975,-2.8975,-2.8975,-2.8975,-2.8975,-2.8975,-2.8975,-2.8975,-2.8975,-2.8975,-2.8975,-2.8975,-2.8975,-2.8975,-2.8975,-2.8975,-2.8975,-2.8975,-2.8062,-2.7021,-2.7021,-2.5101,-2.2988,-2.2667,-2.1628,-2.0508,-1.9933,-1.98,-1.972,-1.9426,-1.943,-1.943,-1.943,-1.9417,-1.9265,-1.8971,-1.8918,-1.8661,-1.8075,-1.7995,-1.7929,-1.7622,-1.7582,-1.7477,-1.7226,-1.7173,-1.7067,-1.6736,-1.6723,-1.6842,-1.7173,0.0,0.0,-1.6736,-1.6736,0.0,-1.6683,-1.643,-1.646,-1.6678,-1.6685,-1.6839,-1.7092,-1.7358,-1.7479,-1.7479,-1.7479,-1.7479,-1.7479,-1.7479,-1.7479,-1.7479,-1.7479,-1.7479,-1.7479,-1.7479,-1.7648,-1.7913,-3.1699,-3.1758,-3.1758,-3.1758,-3.1875,-3.1953,-3.1953,-3.207,-3.2266,-3.2559,-3.2598,-3.2695,-3.2988,-3.2519,-3.2229,-3.2229,-3.2229,-3.2109,-3.1973,-3.1953,-3.1777,-3.1328,-3.1328,-3.1191,-3.0898,-3.0567,-3.045,-3.0567,-3.0216,-2.9981,-2.9804,-2.9686,-2.9627,-2.9627,-2.9272,-2.9272,-2.9509,-2.9153,-2.8975,-2.8975,-2.8975,-2.8975,-2.8975,-2.8975,-2.8975,-2.8975,-2.8975,-2.8975,-2.8975,-2.8975,-2.8975,-2.8975,-2.8975,-2.8975,-2.8975,-2.8975,-2.8062,-2.6779,-2.5851,-2.4379,-2.286,-2.1839,-2.1127,-2.0628,-2.0441,-2.0094,-1.972,-1.9484,-1.943,-1.943,-1.943,-1.943,-1.939,-1.9239,-1.9052,-1.8851,-1.8621,-1.8249,-1.7955,-1.7862,-1.7556,-1.7279,-1.7226,-1.7014,-1.6789,-1.6736,-1.6683,-1.6736,-1.6842,0.0,0.0,0.0,-1.6577,0.0,-1.6152,-1.6456,-1.6636,-1.6685,-1.6895,-1.7105,-1.7358,-1.7443,-1.7479,-1.7479,-1.7479,-1.7479,-1.7479,-1.7479,-1.7479,-1.7479,-1.7479,-1.7479,-1.7503,-1.7684,-1.7805,-1.7937,-3.2109,-3.2229,-3.2229,-3.2229,-3.2305,-3.2402,-3.2402,-3.2539,-3.2734,-3.2988,-3.3027,-3.3125,-3.3398,-3.2949,-3.2637,-3.2637,-3.2637,-3.2578,-3.2422,-3.2402,-3.2146,-3.1537,-3.1698,-3.1503,-3.0956,-3.0642,-3.0428,-3.0392,-2.9981,-2.9686,-2.9509,-2.939,-2.9331,-2.9272,-2.9094,-2.9094,-2.9272,-2.9094,-2.8975,-2.8975,-2.8975,-2.8975,-2.8975,-2.8975,-2.8975,-2.8975,-2.8975,-2.8975,-2.8975,-2.8975,-2.8975,-2.8975,-2.8975,-2.8975,-2.8975,-2.8975,-2.8062,-2.6702,-2.5362,-2.407,-2.2764,-2.1411,-2.0975,-2.0815,-2.0695,-2.0227,-1.9746,-1.9559,-1.9439,-1.943,-1.943,-1.943,-1.943,-1.943,-1.9212,-1.9052,-1.8945,-1.8611,-1.8275,-1.8169,-1.7674,-1.7329,-1.7222,-1.68,-1.6524,-1.6418,-1.6418,-1.6418,-1.6418,0.0,-1.6418,-1.6164,-1.6311,-1.6308,-1.603,-1.6362,-1.6643,-1.6851,-1.7117,-1.7322,-1.7479,-1.7479,-1.7479,-1.7479,-1.7479,-1.7479,-1.7479,-1.7479,-1.7479,-1.7479,-1.7479,-1.7479,-1.7515,-1.7781,-1.7937,-1.8094,-3.2307,-3.2246,-3.2246,-3.2246,-3.2578,-3.2832,-3.2832,-3.3164,-3.3418,-3.3418,-3.3418,-3.3418,-3.3418,-3.3418,-3.3418,-3.3418,-3.3418,-3.3262,-3.2871,-3.2832,-3.2451,-3.1658,-3.2024,-3.183,-3.1043,-3.0724,-3.0515,-3.0371,-2.9745,-2.945,-2.945,-2.9153,-2.8975,-2.8975,-2.8975,-2.8975,-2.8975,-2.8975,-2.8975,-2.8975,-2.8975,-2.8975,-2.8975,-2.8975,-2.8975,-2.8975,-2.8975,-2.8975,-2.8975,-2.8975,-2.8975,-2.8975,-2.8975,-2.8975,-2.8975,-2.8975,-2.8122,-2.684,-2.5362,-2.4131,-2.2889,-2.1475,-2.1109,-2.1029,-2.0735,-2.0254,-1.9853,-1.9813,-1.9586,-1.9399,-1.943,-1.943,-1.943,-1.943,-1.943,-1.9265,-1.8998,-1.8931,-1.8824,-1.8557,-1.7976,-1.752,-1.7236,-1.6684,-1.6225,-1.5946,-1.5946,-1.5946,0.0,0.0,-1.6213,-1.5922,-1.5922,-1.6042,-1.6308,-1.6332,-1.6598,-1.7117,-1.737,-1.7479,-1.7479,-1.7479,-1.7479,-1.7479,-1.7479,-1.7479,-1.7479,-1.7479,-1.7479,-1.7479,-1.7479,-1.7491,-1.7539,-1.7805,-1.8082,-1.836,-3.3066,-3.3125,-3.3125,-3.3125,-3.3203,-3.3281,-3.3281,-3.3359,-3.3418,-3.3418,-3.3418,-3.3418,-3.3418,-3.3418,-3.3418,-3.3418,-3.3418,-3.3379,-3.3281,-3.3281,-3.2898,-3.2161,-3.2223,-3.1888,-3.11,-3.0776,-3.0387,-2.9795,-2.9361,-2.9094,-2.9094,-2.9035,-2.8975,-2.8975,-2.8975,-2.8975,-2.8975,-2.8975,-2.8975,-2.8975,-2.8975,-2.8975,-2.8975,-2.8975,-2.8975,-2.8975,-2.8975,-2.8975,-2.8975,-2.8975,-2.8975,-2.8975,-2.8975,-2.8975,-2.8975,-2.8975,-2.8797,-2.8002,-2.5668,-2.481,-2.4008,-2.1664,-2.1109,-2.1029,-2.0735,-2.0575,-2.0347,-1.9893,-1.9746,-1.9626,-1.947,-1.943,-1.943,-1.943,-1.943,-1.9345,-1.9265,-1.9065,-1.8778,-1.8472,-1.7944,-1.7487,-1.7141,-1.6815,-1.6568,0.0,0.0,-1.6513,-1.6513,-1.6568,-1.6472,-1.6199,-1.6187,-1.632,-1.6598,-1.6803,-1.7068,-1.7394,-1.7455,-1.7479,-1.7479,-1.7479,-1.7479,-1.7479,-1.7479,-1.7479,-1.7479,-1.7479,-1.7479,-1.7479,-1.7479,-1.7612,-1.7817,-1.8094,-1.836,-1.8625,-3.3379,-3.3418,-3.3418,-3.3418,-3.3418,-3.3418,-3.3418,-3.3418,-3.3418,-3.3418,-3.3418,-3.3418,-3.3418,-3.3418,-3.3418,-3.3418,-3.3418,-3.3418,-3.3418,-3.3418,-3.3131,-3.2604,-3.2585,-3.2205,-3.1413,-3.1146,-3.0631,-2.9855,-2.9452,-2.925,-2.925,-2.9067,-2.8975,-2.8975,-2.8975,-2.8975,-2.8975,-2.8975,-2.8975,-2.8975,-2.8975,-2.8975,-2.8975,-2.8975,-2.8975,-2.8975,-2.8975,-2.8975,-2.8975,-2.8975,-2.8975,-2.8975,-2.8975,-2.8975,-2.8856,-2.8241,-2.8498,-2.8301,-2.504,-2.4564,-2.4379,-2.1727,-2.1109,-2.1069,-2.0909,-2.0775,-2.0588,-2.0267,-1.9987,-1.976,-1.9599,-1.9452,-1.943,-1.943,-1.943,-1.9359,-1.9185,-1.9168,-1.8946,-1.8474,-1.8001,-1.7666,-1.7372,-1.6935,-1.6706,-1.6706,-1.6706,0.0,-1.6706,-1.6706,-1.6634,-1.6477,-1.6477,-1.661,-1.6875,-1.7141,-1.7346,-1.7479,-1.7479,-1.7479,-1.7479,-1.7479,-1.7479,-1.7479,-1.7479,-1.7479,-1.7479,-1.7479,-1.7479,-1.7479,-1.7479,-1.7648,-1.7913,-1.8191,-1.8456,-1.8659,-3.3418,-3.3418,-3.3418,-3.3418,-3.3476,-3.3516,-3.3516,-3.3574,-3.3613,-3.3613,-3.3613,-3.3613,-3.3613,-3.3555,-3.3516,-3.3516,-3.3394,-3.3355,-3.3418,-3.3418,-3.3228,-3.2912,-3.2867,-3.2505,-3.1847,-3.1439,-3.0939,-3.0296,-2.9874,-2.9672,-2.9654,-2.9324,-2.914,-2.9067,-2.9067,-2.903,-2.8975,-2.8975,-2.8975,-2.8975,-2.8975,-2.8975,-2.8975,-2.8975,-2.8975,-2.8975,-2.8975,-2.8975,-2.8975,-2.8975,-2.8975,-2.8975,-2.8975,-2.8975,-2.8677,-2.7142,-2.7624,-2.7882,-2.4116,-2.376,-2.3884,-2.1664,-2.1109,-2.1109,-2.1109,-2.0922,-2.0735,-2.0681,-2.0281,-1.9907,-1.9813,-1.9599,-1.947,-1.943,-1.9372,-1.9243,-1.8939,-1.9127,-1.901,-1.8428,-1.8154,-1.79,-1.76,-1.7118,-1.6815,-1.6815,-1.6815,-1.6815,-1.6815,-1.6815,-1.6815,-1.6815,-1.6779,-1.6887,-1.7153,-1.737,-1.7479,-1.7479,-1.7479,-1.7479,-1.7479,-1.7479,-1.7479,-1.7479,-1.7479,-1.7479,-1.7479,-1.7479,-1.7479,-1.7491,-1.7527,-1.7708,-1.7974,-1.8251,-1.8517,-1.8518,-3.3418,-3.3418,-3.3418,-3.3418,-3.373,-3.3965,-3.3965,-3.4277,-3.4492,-3.4492,-3.4492,-3.4492,-3.4492,-3.418,-3.3965,-3.3965,-3.3378,-3.3102,-3.3355,-3.3418,-3.3228,-3.2912,-3.2613,-3.2256,-3.1881,-3.1209,-3.0817,-3.0699,-3.0296,-3.0094,-3.0094,-3.0039,-2.9819,-2.9489,-2.9489,-2.9287,-2.8975,-2.8975,-2.8975,-2.8975,-2.8975,-2.8975,-2.8975,-2.8975,-2.8975,-2.8975,-2.8975,-2.8975,-2.8975,-2.8975,-2.8975,-2.8975,-2.8975,-2.8975,-2.8498,-2.6034,-2.6277,-2.6702,-2.3869,-2.2404,-2.1601,-2.1172,-2.1109,-2.1109,-2.1109,-2.1069,-2.0975,-2.0722,-2.0601,-2.0388,-1.9893,-1.976,-1.9653,-1.947,-1.9185,-1.8939,-1.8939,-1.8706,-1.8428,-1.8077,-1.8052,-1.784,-1.7535,-1.7441,-1.7358,-1.7358,-1.7358,-1.7358,-1.7358,-1.7358,-1.7358,-1.7358,-1.7153,-1.7153,-1.7418,-1.7467,-1.7479,-1.7479,-1.7479,-1.7479,-1.7479,-1.7479,-1.7479,-1.7479,-1.7479,-1.7479,-1.7479,-1.7479,-1.7479,-1.7503,-1.7732,-1.7986,-1.8263,-1.8529,-1.8605,-1.8448,-3.4101,-3.4101,-3.4101,-3.4101,-3.4277,-3.4414,-3.4414,-3.457,-3.4707,-3.4707,-3.4707,-3.4707,-3.4707,-3.4531,-3.4349,-3.4173,-3.3784,-3.3508,-3.3213,-3.3174,-3.3038,-3.2931,-3.2613,-3.2166,-3.1653,-3.1322,-3.1102,-3.1102,-3.0717,-3.0516,-3.0516,-3.0296,-3.0094,-2.991,-2.991,-2.969,-2.9305,-2.9305,-2.9177,-2.8975,-2.8975,-2.8975,-2.8975,-2.8975,-2.8975,-2.8975,-2.8975,-2.8975,-2.8975,-2.8975,-2.8975,-2.8975,-2.8975,-2.8975,-2.8498,-2.579,-2.444,-2.3698,-2.3201,-2.209,-2.1109,-2.1109,-2.1109,-2.1109,-2.1109,-2.1109,-2.1069,-2.0935,-2.0788,-2.0588,-2.0321,-2.0147,-1.9933,-1.9653,-1.9351,-1.8992,-1.8674,-1.8473,-1.824,-1.7784,-1.7901,-1.7855,-1.7537,-1.7479,-1.7479,-1.7479,-1.7479,-1.7479,-1.7479,-1.7479,-1.7479,-1.7479,-1.737,-1.7358,-1.7479,-1.7479,-1.7479,-1.7479,-1.7479,-1.7479,-1.7479,-1.7479,-1.7479,-1.7479,-1.7479,-1.7479,-1.7479,-1.7479,-1.7563,-1.7708,-1.7829,-1.8131,-1.8517,-1.8638,-1.8665,-1.8302,-3.4707,-3.4707,-3.4707,-3.4707,-3.4785,-3.4863,-3.4863,-3.4941,-3.5,-3.5,-3.5,-3.5,-3.5,-3.4922,-3.4731,-3.4354,-3.4192,-3.3849,-3.3198,-3.3005,-3.2867,-3.2804,-3.2485,-3.2038,-3.1442,-3.1377,-3.1377,-3.1377,-3.1066,-3.0919,-3.0919,-3.0626,-3.0424,-3.0332,-3.0332,-3.0112,-2.9727,-2.9727,-2.9489,-2.9122,-2.9122,-2.9067,-2.8975,-2.8975,-2.8975,-2.8975,-2.8975,-2.8975,-2.8975,-2.8975,-2.8975,-2.8975,-2.8975,-2.8797,-2.8062,-2.5668,-2.3153,-2.1299,-2.2341,-2.1915,-2.1109,-2.1109,-2.1109,-2.1109,-2.1109,-2.1109,-2.1109,-2.1109,-2.0935,-2.0762,-2.0681,-2.0494,-2.0241,-1.9947,-1.9529,-1.9055,-1.8601,-1.8349,-1.8006,-1.7537,-1.7726,-1.7784,-1.7537,-1.7479,-1.7479,-1.7479,-1.7479,-1.7479,-1.7479,-1.7479,-1.7479,-1.7479,-1.7479,-1.7479,-1.7479,-1.7479,-1.7479,-1.7479,-1.7479,-1.7479,-1.7479,-1.7479,-1.7479,-1.7479,-1.7479,-1.7479,-1.7479,-1.742,-1.7576,-1.7877,-1.7877,-1.8202,-1.8698,-1.8695,-1.8586,-1.8045,-3.4707,-3.4707,-3.4707,-3.4707,-3.5059,-3.5351,-3.5351,-3.5664,-3.5918,-3.5918,-3.5918,-3.5918,-3.5918,-3.5566,-3.5198,-3.4797,-3.4146,-3.3719,-3.3567,-3.3246,-3.289,-3.2459,-3.2102,-3.1782,-3.1377,-3.1377,-3.1377,-3.1377,-3.1341,-3.1341,-3.1341,-3.1304,-3.1102,-3.0754,-3.0754,-3.0534,-3.0149,-3.0149,-2.991,-2.9586,-2.9586,-2.9305,-2.8975,-2.8975,-2.8975,-2.8975,-2.8975,-2.8975,-2.8975,-2.8975,-2.8975,-2.8975,-2.8975,-2.8122,-2.684,-2.5423,-2.3153,-2.1109,-2.1235,-2.1172,-2.1109,-2.1109,-2.1109,-2.1109,-2.1109,-2.1109,-2.1109,-2.1109,-2.1096,-2.0989,-2.0722,-2.0655,-2.0548,-2.0254,-1.9494,-1.8894,-1.8869,-1.8109,-1.7537,-1.7479,-1.7537,-1.7537,-1.7479,-1.7479,-1.7479,-1.7479,-1.7479,-1.7479,-1.7479,-1.7479,-1.7479,-1.7479,-1.7479,-1.7479,-1.7479,-1.7479,-1.7479,-1.7479,-1.7479,-1.7479,-1.7479,-1.7479,-1.7479,-1.7479,-1.7479,-1.7479,-1.7479,-1.7138,-1.7411,-1.7901,-1.785,-1.8173,-1.871,-1.8645,-1.8355,-1.7582,-3.5527,-3.5527,-3.5527,-3.5527,-3.5664,-3.5781,-3.5781,-3.5918,-3.6016,-3.6016,-3.6016,-3.6016,-3.6016,-3.5675,-3.5307,-3.488,-3.4407,-3.3928,-3.3415,-3.3446,-3.314,-3.2515,-3.1912,-3.1506,-3.1377,-3.1377,-3.1377,-3.1377,-3.1377,-3.1377,-3.1377,-3.1377,-3.1304,-3.1157,-3.1157,-3.0937,-3.0571,-3.0571,-3.0332,-2.9965,-2.9965,-2.9709,-2.9342,-2.9342,-2.9195,-2.8975,-2.8975,-2.8975,-2.8975,-2.8975,-2.8975,-2.8975,-2.8975,-2.8677,-2.7804,-2.5668,-2.3153,-2.1109,-2.1109,-2.1109,-2.1109,-2.1109,-2.1109,-2.1109,-2.1109,-2.1109,-2.1109,-2.1109,-2.1109,-2.1082,-2.0962,-2.0949,-2.0793,-2.0253,-1.974,-1.9229,-1.8659,-1.8091,-1.766,-1.7503,-1.7479,-1.7479,-1.7479,-1.7479,-1.7479,-1.7479,-1.7479,-1.7479,-1.7479,-1.7479,-1.7479,-1.7479,-1.7479,-1.7479,-1.7479,-1.7479,-1.7479,-1.7479,-1.7479,-1.7479,-1.7479,-1.7479,-1.7479,-1.7479,-1.7479,-1.7457,-1.7434,-1.7315,-1.7441,-1.7692,-1.7672,-1.7931,-1.8227,-1.8267,-1.798,-1.726,-3.6016,-3.6016,-3.6016,-3.6016,-3.6016,-3.6016,-3.6016,-3.6016,-3.6016,-3.6016,-3.6016,-3.6016,-3.6016,-3.5675,-3.5333,-3.4921,-3.4577,-3.4121,-3.3431,-3.3489,-3.3304,-3.273,-3.1995,-3.1579,-3.1579,-3.1451,-3.1377,-3.1377,-3.1377,-3.1377,-3.1377,-3.1377,-3.1377,-3.1377,-3.1377,-3.1231,-3.0974,-3.0974,-3.0754,-3.0387,-3.0387,-3.0149,-2.9764,-2.9764,-2.9525,-2.9177,-2.9177,-2.9085,-2.8975,-2.8975,-2.8975,-2.8975,-2.8975,-2.8421,-2.7203,-2.4564,-2.2529,-2.1109,-2.1109,-2.1109,-2.1109,-2.1109,-2.1109,-2.1109,-2.1109,-2.1109,-2.1109,-2.1109,-2.1109,-2.1109,-2.1109,-2.1109,-2.0916,-2.0417,-1.9975,-1.9472,-1.874,-1.83,-1.7901,-1.7636,-1.7612,-1.7575,-1.7491,-1.7479,-1.7479,-1.7479,-1.7479,-1.7479,-1.7479,-1.7479,-1.7479,-1.7479,-1.7479,-1.7479,-1.7479,-1.7479,-1.7479,-1.7479,-1.7479,-1.7479,-1.7479,-1.7479,-1.7479,-1.7491,-1.7457,-1.7411,-1.7408,-1.7248,-1.7341,-1.7605,-1.7542,-1.7689,-1.7969,-1.7905,-1.7389,-1.6473,-3.6016,-3.6016,-3.6016,-3.6016,-3.6016,-3.6016,-3.6016,-3.6016,-3.6016,-3.6016,-3.6016,-3.6016,-3.6016,-3.5675,-3.5333,-3.4921,-3.4577,-3.4232,-3.3817,-3.345,-3.3182,-3.314,-3.2419,-3.2019,-3.2019,-3.1598,-3.1377,-3.1377,-3.1377,-3.1377,-3.1377,-3.1377,-3.1377,-3.1377,-3.1377,-3.1377,-3.1377,-3.1377,-3.1157,-3.0791,-3.0791,-3.0552,-3.0204,-3.0204,-2.9947,-2.958,-2.958,-2.9324,-2.8993,-2.8993,-2.8993,-2.8975,-2.8975,-2.7142,-2.4502,-2.1853,-2.1109,-2.1109,-2.1109,-2.1109,-2.1109,-2.1109,-2.1109,-2.1109,-2.1109,-2.1109,-2.1109,-2.1109,-2.1109,-2.1109,-2.1109,-2.1109,-2.0982,-2.0666,-2.0103,-1.9612,-1.9237,-1.8704,-1.8191,-1.7973,-1.7877,-1.7768,-1.7515,-1.7491,-1.7491,-1.7479,-1.7479,-1.7479,-1.7479,-1.7479,-1.7479,-1.7479,-1.7479,-1.7479,-1.7479,-1.7479,-1.7479,-1.7479,-1.7479,-1.7479,-1.7491,-1.7491,-1.7491,-1.7503,-1.741,-1.7408,-1.7371,-1.6943,-1.7128,-1.7542,-1.7289,-1.7498,-1.7969,-1.7594,-1.6602,-1.5154,-3.6016,-3.6016,-3.6016,-3.6016,-3.6016,-3.6016,-3.6016,-3.6016,-3.6016,-3.6016,-3.6016,-3.5879,-3.5675,-3.5333,-3.4921,-3.4577,-3.4232,-3.3955,-3.3817,-3.3707,-3.3578,-3.3587,-3.2857,-3.2423,-3.2423,-3.2019,-3.1818,-3.1818,-3.1524,-3.1377,-3.1377,-3.1377,-3.1377,-3.1377,-3.1377,-3.1377,-3.1377,-3.1377,-3.1304,-3.1194,-3.1194,-3.0974,-3.0607,-3.0607,-3.0369,-3.002,-3.002,-2.9745,-2.9276,-2.8331,-2.7852,-2.7444,-2.6459,-2.5668,-2.4687,-2.3014,-2.1853,-2.1109,-2.1109,-2.1109,-2.1109,-2.1109,-2.1109,-2.1109,-2.1109,-2.1109,-2.1109,-2.1109,-2.1109,-2.1109,-2.1109,-2.0919,-2.0666,-2.0297,-1.9903,-1.9448,-1.8898,-1.8676,-1.8469,-1.8203,-1.8167,-1.8058,-1.7781,-1.7756,-1.7684,-1.7491,-1.7479,-1.7479,-1.7479,-1.7479,-1.7479,-1.7479,-1.7479,-1.7479,-1.7479,-1.7479,-1.7479,-1.7479,-1.7479,-1.7575,-1.7756,-1.7756,-1.7745,-1.7682,-1.7692,-1.7464,-1.7213,-1.703,-1.6498,-1.5788,-1.6701,-1.655,-1.5954,-1.6807,-1.6278,-1.4838,-3.6016,-3.6016,-3.6016,-3.6016,-3.6016,-3.6016,-3.6016,-3.6016,-3.5947,-3.5811,-3.5947,-3.5811,-3.5333,-3.5059,-3.4784,-3.4439,-3.4024,-3.3817,-3.3817,-3.3817,-3.3817,-3.3817,-3.334,-3.301,-3.2845,-3.2441,-3.2239,-3.2239,-3.1836,-3.1616,-3.1616,-3.1451,-3.1377,-3.1377,-3.1377,-3.1377,-3.1377,-3.1377,-3.1377,-3.1377,-3.1377,-3.1231,-3.1029,-3.1029,-3.0772,-3.0442,-3.0442,-3.0167,-2.9635,-2.8226,-2.7165,-2.6171,-2.4718,-2.4255,-2.4008,-2.2702,-2.1727,-2.1109,-2.1109,-2.1109,-2.1109,-2.1109,-2.1109,-2.1109,-2.1109,-2.1109,-2.1046,-2.0919,-2.0982,-2.1046,-2.0729,-2.0666,-2.0475,-1.9966,-1.9711,-1.9458,-1.8918,-1.8843,-1.8746,-1.8481,-1.8444,-1.8336,-1.807,-1.8034,-1.7974,-1.7817,-1.7805,-1.7756,-1.7648,-1.7744,-1.7756,-1.7648,-1.7744,-1.7805,-1.7805,-1.7805,-1.7744,-1.7636,-1.7744,-1.7889,-1.8034,-1.8034,-1.7948,-1.7796,-1.7766,-1.7468,-1.7122,-1.7083,-1.6229,-1.4977,-1.5824,-1.5303,-1.4184,-1.5033,-1.4446,-1.3136,-3.6016,-3.6016,-3.6016,-3.6016,-3.6016,-3.6016,-3.5947,-3.5947,-3.5811,-3.547,-3.5675,-3.5606,-3.4921,-3.4853,-3.4715,-3.437,-3.4024,-3.3817,-3.3817,-3.3817,-3.3817,-3.3817,-3.3817,-3.3651,-3.3285,-3.2863,-3.2643,-3.2643,-3.2258,-3.2038,-3.2001,-3.1616,-3.1414,-3.1377,-3.1377,-3.1377,-3.1377,-3.1377,-3.1377,-3.1377,-3.1377,-3.1377,-3.1377,-3.1377,-3.1157,-3.0846,-3.0846,-3.0589,-2.9992,-2.8466,-2.6766,-2.5062,-2.3473,-2.3058,-2.287,-2.1488,-2.1109,-2.1109,-2.1109,-2.1109,-2.1109,-2.1109,-2.1109,-2.1109,-2.1109,-2.1109,-2.0982,-2.0666,-2.0856,-2.0856,-2.0234,-2.0297,-2.0284,-1.9711,-1.9571,-1.9456,-1.9136,-1.9072,-1.8988,-1.8746,-1.8722,-1.8613,-1.836,-1.8312,-1.83,-1.83,-1.83,-1.8179,-1.7925,-1.8155,-1.8179,-1.7913,-1.8155,-1.83,-1.83,-1.8312,-1.8191,-1.7913,-1.8167,-1.8312,-1.8324,-1.8324,-1.8151,-1.7804,-1.7662,-1.7386,-1.7092,-1.6915,-1.5954,-1.4716,-1.4716,-1.3849,-1.2602,-1.2734,-1.1878,-1.0704,-3.6016,-3.6016,-3.6016,-3.6016,-3.6016,-3.5879,-3.5675,-3.5606,-3.547,-3.5059,-3.5059,-3.499,-3.4577,-3.4508,-3.437,-3.3955,-3.3886,-3.3817,-3.3817,-3.3817,-3.3817,-3.3817,-3.3817,-3.378,-3.3688,-3.3285,-3.3083,-3.3083,-3.268,-3.2313,-3.2001,-3.1909,-3.1689,-3.1377,-3.1377,-3.1377,-3.1377,-3.1377,-3.1377,-3.1377,-3.1377,-3.1377,-3.1377,-3.1377,-3.1322,-3.1249,-3.1249,-3.0992,-3.023,-2.746,-2.5545,-2.4025,-2.2438,-2.2645,-2.3082,-2.1543,-2.1109,-2.1109,-2.1109,-2.1109,-2.1109,-2.1109,-2.1109,-2.1109,-2.1109,-2.1109,-2.0982,-2.0666,-2.0679,-2.0615,-2.017,-1.9966,-1.9775,-1.9635,-1.9392,-1.92,-1.9136,-1.9072,-1.906,-1.9,-1.8988,-1.8891,-1.8625,-1.8408,-1.83,-1.83,-1.83,-1.8263,-1.8203,-1.8263,-1.8263,-1.8203,-1.8263,-1.83,-1.83,-1.8505,-1.8469,-1.8203,-1.8263,-1.8396,-1.8601,-1.8339,-1.8132,-1.7937,-1.7686,-1.7323,-1.6937,-1.5804,-1.4511,-1.3259,-1.3259,-1.2405,-1.1292,-1.2405,-1.1878,-1.0571,-3.6016,-3.6016,-3.6016,-3.6016,-3.6016,-3.5879,-3.5557,-3.5489,-3.5264,-3.4715,-3.4784,-3.4715,-3.4163,-3.4301,-3.4232,-3.3817,-3.3817,-3.3817,-3.3817,-3.3817,-3.3817,-3.3817,-3.3817,-3.3817,-3.3817,-3.3615,-3.3505,-3.3505,-3.3101,-3.279,-3.2588,-3.2386,-3.2074,-3.1671,-3.1671,-3.1561,-3.1377,-3.1377,-3.1377,-3.1377,-3.1377,-3.1377,-3.1377,-3.1377,-3.1377,-3.1377,-3.1377,-3.0377,-2.8629,-2.6194,-2.4407,-2.3064,-2.2105,-2.2271,-2.2577,-2.1595,-2.1323,-2.1296,-2.1149,-2.1109,-2.1109,-2.1109,-2.0982,-2.0856,-2.0856,-2.0856,-2.0729,-2.0221,-2.0221,-2.0234,-1.9724,-1.9584,-1.9571,-1.9392,-1.92,-1.9072,-1.9072,-1.9072,-1.9072,-1.9072,-1.9072,-1.9024,-1.8879,-1.8746,-1.8662,-1.8662,-1.8662,-1.8613,-1.8481,-1.8601,-1.8613,-1.8481,-1.8601,-1.8662,-1.8662,-1.8807,-1.8807,-1.8662,-1.8662,-1.8683,-1.8625,-1.8486,-1.8175,-1.7723,-1.7594,-1.7335,-1.6872,-1.5499,-1.4054,-1.2734,-1.2076,-1.0962,-0.9775,-1.0498,-1.03,-0.9582,-3.6035,-3.6016,-3.6016,-3.6016,-3.5947,-3.5811,-3.547,-3.5333,-3.5059,-3.437,-3.4508,-3.4508,-3.3886,-3.4094,-3.4163,-3.3817,-3.3817,-3.3817,-3.3817,-3.3817,-3.3817,-3.3817,-3.3817,-3.3817,-3.3817,-3.3817,-3.3817,-3.3817,-3.3486,-3.3285,-3.3211,-3.2863,-3.2496,-3.2111,-3.2038,-3.1818,-3.1488,-3.1414,-3.1377,-3.1377,-3.1377,-3.1377,-3.1377,-3.1377,-3.1377,-3.1377,-3.1377,-2.9574,-2.6874,-2.5218,-2.3694,-2.2445,-2.2151,-2.2058,-2.2004,-2.1775,-2.1655,-2.1561,-2.1256,-2.1149,-2.1109,-2.1109,-2.0856,-2.0615,-2.0552,-2.0475,-2.0348,-1.9711,-1.9839,-1.9851,-1.92,-1.9328,-1.9456,-1.9136,-1.9072,-1.9072,-1.9072,-1.9072,-1.9072,-1.9072,-1.9072,-1.9072,-1.9072,-1.9072,-1.9072,-1.9072,-1.9072,-1.8976,-1.8758,-1.8963,-1.8976,-1.8758,-1.8963,-1.9072,-1.9072,-1.9072,-1.9072,-1.9072,-1.9008,-1.8892,-1.8571,-1.8507,-1.8121,-1.7464,-1.7464,-1.7141,-1.6548,-1.5098,-1.3718,-1.2274,-1.0895,-0.9643,-0.859,-0.859,-0.859,-0.859,-3.6094,-3.6016,-3.6016,-3.6016,-3.5743,-3.5401,-3.5059,-3.4715,-3.437,-3.3955,-3.3955,-3.3886,-3.3817,-3.3817,-3.3886,-3.3817,-3.3817,-3.3817,-3.3817,-3.3817,-3.3817,-3.3817,-3.3817,-3.3817,-3.3817,-3.3817,-3.3817,-3.3817,-3.3762,-3.356,-3.323,-3.3175,-3.2918,-3.2496,-3.2166,-3.1983,-3.1891,-3.1543,-3.1377,-3.1377,-3.1377,-3.1377,-3.1377,-3.1377,-3.1377,-3.1377,-3.1377,-2.9574,-2.6906,-2.542,-2.4003,-2.2752,-2.2458,-2.2365,-2.2298,-2.2004,-2.175,-2.1614,-2.1574,-2.1309,-2.1109,-2.1109,-2.0856,-2.0552,-2.0234,-2.017,-2.0043,-1.9711,-1.9647,-1.9584,-1.92,-1.9136,-1.9136,-1.9136,-1.9072,-1.9072,-1.9072,-1.9072,-1.9072,-1.9072,-1.9072,-1.9072,-1.9072,-1.9072,-1.9072,-1.9072,-1.9072,-1.906,-1.9024,-1.906,-1.906,-1.9024,-1.906,-1.9072,-1.9072,-1.9072,-1.9072,-1.9072,-1.8828,-1.8635,-1.8571,-1.8238,-1.7852,-1.7464,-1.7206,-1.6353,-1.5043,-1.3652,-1.2274,-1.0829,-0.9449,-0.8784,-0.859,-0.859,-0.859,-0.859,-3.6777,-3.6738,-3.6738,-3.6738,-3.646,-3.6023,-3.5673,-3.5135,-3.4566,-3.4217,-3.3945,-3.3817,-3.3817,-3.3817,-3.3817,-3.3817,-3.3817,-3.3817,-3.3817,-3.3817,-3.3817,-3.3817,-3.3817,-3.3817,-3.3817,-3.3817,-3.3817,-3.3817,-3.3817,-3.3725,-3.356,-3.356,-3.334,-3.2936,-3.2771,-3.2551,-3.2313,-3.1909,-3.1726,-3.1708,-3.1469,-3.1377,-3.1377,-3.1377,-3.1377,-3.1184,-2.9574,-2.818,-2.6773,-2.4602,-2.3393,-2.2846,-2.2712,-2.2672,-2.2605,-2.2311,-2.2138,-2.2004,-2.1844,-2.1577,-2.1363,-2.1093,-2.0656,-2.0234,-1.9903,-1.9647,-1.9532,-1.9328,-1.9328,-1.9264,-1.9136,-1.9072,-1.9072,-1.9072,-1.9072,-1.9072,-1.9072,-1.9072,-1.9072,-1.9072,-1.9072,-1.9072,-1.9072,-1.9072,-1.9072,-1.9072,-1.9072,-1.9072,-1.9072,-1.9072,-1.9072,-1.9072,-1.9072,-1.9072,-1.9072,-1.9072,-1.9072,-1.9072,-1.8764,-1.8507,-1.8238,-1.7916,-1.7529,-1.7206,-1.7066,-1.6213,-1.4782,-1.339,-1.1944,-1.0571,-0.9117,-0.859,-0.859,-0.859,-0.859,-0.859]},{"header":{"parameterUnit":"m.s-1","parameterCategory":1,"la1":30.6,"la2":28.766,"lo1":-90.7593,"lo2":-88.6598,"dy":0.0162,"dx":0.0183,"nx":116,"ny":114,"refTime":"2024-04-02T00:00:00:Z","depth":0,"parameterNumber":3,"parameterNumberName":"V-component_of_WINDS"},"data":[0.0,0.0,0.0,0.0,0.0,0.0,0.0,0.0,0.0,0.0,0.0,0.0,0.0,0.0,0.0,0.0,0.0,0.0,0.0,0.0,0.0,0.0,0.0,0.0,0.0,0.0,0.0,0.0,0.0,0.0,0.0,0.0,0.0,0.0,0.0,0.0,0.0,0.0,0.0,0.0,0.0,0.0,0.0,0.0,0.0,0.0,0.0,0.0,0.0,0.0,0.0,0.0,0.0,0.0,0.0,0.0,0.0,0.0,0.0,0.0,0.0,0.0,0.0,0.0,0.0,0.0,0.0,0.0,0.0,0.0,0.0,0.0,0.0,0.0,0.0,0.0,0.0,0.0,0.0,0.0,0.0,0.0,0.0,0.0,0.0,0.0,0.0,0.0,0.0,0.0,0.0,0.0,0.0,0.0,0.0,0.0,0.0,0.0,0.0,0.0,0.0,0.0,0.0,0.0,0.0,0.0,0.0,0.0,0.0,0.0,0.0,0.0,0.0,0.0,0.0,0.0,0.0,0.0,0.0,0.0,0.0,0.0,0.0,0.0,0.0,0.0,0.0,0.0,0.0,0.0,0.0,0.0,0.0,0.0,0.0,0.0,0.0,0.0,0.0,0.0,0.0,0.0,0.0,0.0,0.0,0.0,0.0,0.0,0.0,0.0,0.0,0.0,0.0,0.0,0.0,0.0,0.0,0.0,0.0,0.0,0.0,0.0,0.0,0.0,0.0,0.0,0.0,0.0,0.0,0.0,0.0,0.0,0.0,0.0,0.0,0.0,0.0,0.0,0.0,0.0,0.0,0.0,0.0,0.0,0.0,0.0,0.0,0.0,0.0,0.0,0.0,0.0,0.0,0.0,0.0,0.0,0.0,0.0,0.0,0.0,0.0,0.0,0.0,0.0,0.0,0.0,0.0,0.0,0.0,0.0,0.0,0.0,0.0,0.0,0.0,0.0,0.0,0.0,0.0,0.0,0.0,0.0,0.0,0.0,0.0,0.0,0.0,0.0,0.0,0.0,0.0,0.0,0.0,0.0,0.0,0.0,0.0,0.0,0.0,0.0,0.0,0.0,0.0,0.0,0.0,0.0,0.0,0.0,0.0,0.0,0.0,0.0,0.0,0.0,0.0,0.0,0.0,0.0,0.0,0.0,0.0,0.0,0.0,0.0,0.0,0.0,0.0,0.0,0.0,0.0,0.0,0.0,0.0,0.0,0.0,0.0,0.0,0.0,0.0,0.0,0.0,0.0,0.0,0.0,0.0,0.0,0.0,0.0,0.0,0.0,0.0,0.0,0.0,0.0,0.0,0.0,0.0,0.0,0.0,0.0,0.0,0.0,0.0,0.0,0.0,0.0,0.0,0.0,0.0,0.0,0.0,0.0,0.0,0.0,0.0,0.0,0.0,0.0,0.0,0.0,0.0,0.0,0.0,0.0,0.0,0.0,0.0,0.0,0.0,0.0,0.0,0.0,0.0,0.0,0.0,0.0,0.0,0.0,0.0,0.0,0.0,0.0,0.0,0.0,0.0,0.0,0.0,0.0,0.0,0.0,0.0,0.0,0.0,0.0,0.0,0.0,0.0,0.0,0.0,0.0,0.0,0.0,0.0,0.0,0.0,0.0,0.0,0.0,0.0,0.0,0.0,0.0,0.0,0.0,0.0,0.0,0.0,0.0,0.0,0.0,0.0,0.0,0.0,0.0,0.0,0.0,0.0,0.0,0.0,0.0,0.0,0.0,0.0,0.0,0.0,0.0,0.0,0.0,0.0,0.0,0.0,0.0,0.0,0.0,0.0,0.0,0.0,0.0,0.0,0.0,0.0,0.0,0.0,0.0,0.0,0.0,0.0,0.0,0.0,0.0,0.0,0.0,0.0,0.0,0.0,0.0,0.0,0.0,0.0,0.0,0.0,0.0,0.0,0.0,0.0,0.0,0.0,0.0,0.0,0.0,0.0,0.0,0.0,0.0,0.0,0.0,0.0,0.0,0.0,0.0,0.0,0.0,0.0,0.0,0.0,0.0,0.0,0.0,0.0,0.0,0.0,0.0,0.0,0.0,0.0,0.0,0.0,0.0,0.0,0.0,0.0,0.0,0.0,0.0,0.0,0.0,0.0,0.0,0.0,0.0,0.0,0.0,0.0,0.0,0.0,0.0,0.0,0.0,0.0,0.0,0.0,0.0,0.0,0.0,0.0,0.0,0.0,0.0,0.0,0.0,0.0,0.0,0.0,0.0,0.0,0.0,0.0,0.0,0.0,0.0,0.0,0.0,0.0,0.0,0.0,0.0,0.0,0.0,0.0,0.0,0.0,0.0,0.0,0.0,0.0,0.0,0.0,0.0,0.0,0.0,0.0,0.0,0.0,0.0,0.0,0.0,0.0,0.0,0.0,0.0,0.0,0.0,0.0,0.0,0.0,0.0,0.0,0.0,0.0,0.0,0.0,0.0,0.0,0.0,0.0,0.0,0.0,0.0,0.0,0.0,0.0,0.0,0.0,0.0,0.0,0.0,0.0,0.0,0.0,0.0,0.0,0.0,0.0,0.0,0.0,0.0,0.0,0.0,0.0,0.0,0.0,0.0,0.0,0.0,0.0,0.0,0.0,0.0,0.0,0.0,0.0,0.0,0.0,0.0,0.0,0.0,0.0,0.0,0.0,0.0,0.0,0.0,0.0,0.0,0.0,0.0,0.0,0.0,0.0,0.0,0.0,0.0,0.0,0.0,0.0,0.0,0.0,0.0,0.0,0.0,0.0,0.0,0.0,0.0,0.0,0.0,0.0,0.0,0.0,0.0,0.0,0.0,0.0,0.0,0.0,0.0,0.0,0.0,0.0,0.0,0.0,0.0,0.0,0.0,0.0,0.0,0.0,0.0,0.0,0.0,0.0,0.0,0.0,0.0,0.0,0.0,0.0,0.0,0.0,0.0,0.0,0.0,0.0,0.0,0.0,0.0,0.0,0.0,0.0,0.0,0.0,0.0,0.0,0.0,0.0,0.0,0.0,0.0,0.0,0.0,0.0,0.0,0.0,0.0,0.0,0.0,0.0,0.0,0.0,0.0,0.0,0.0,0.0,0.0,0.0,0.0,0.0,0.0,0.0,0.0,0.0,0.0,0.0,0.0,0.0,0.0,0.0,0.0,0.0,0.0,0.0,0.0,0.0,0.0,0.0,0.0,0.0,0.0,0.0,0.0,0.0,0.0,0.0,0.0,0.0,0.0,0.0,0.0,0.0,0.0,0.0,0.0,0.0,0.0,0.0,0.0,0.0,0.0,0.0,0.0,0.0,0.0,0.0,0.0,0.0,0.0,0.0,0.0,0.0,0.0,0.0,0.0,0.0,0.0,0.0,0.0,0.0,0.0,0.0,0.0,0.0,0.0,0.0,0.0,0.0,0.0,0.0,0.0,0.0,0.0,0.0,0.0,0.0,0.0,0.0,0.0,0.0,0.0,0.0,0.0,0.0,0.0,0.0,0.0,0.0,0.0,0.0,0.0,0.0,0.0,0.0,0.0,0.0,0.0,0.0,0.0,0.0,0.0,0.0,0.0,0.0,0.0,0.0,0.0,0.0,0.0,0.0,0.0,0.0,0.0,0.0,0.0,0.0,0.0,0.0,0.0,0.0,0.0,0.0,0.0,0.0,0.0,0.0,0.0,0.0,0.0,0.0,0.0,0.0,0.0,0.0,0.0,0.0,0.0,0.0,0.0,0.0,0.0,0.0,0.0,0.0,0.0,0.0,0.0,0.0,0.0,0.0,0.0,0.0,0.0,0.0,0.0,0.0,0.0,0.0,0.0,0.0,0.0,0.0,0.0,0.0,0.0,0.0,0.0,0.0,0.0,0.0,0.0,0.0,0.0,0.0,0.0,0.0,0.0,0.0,0.0,0.0,0.0,0.0,0.0,0.0,0.0,0.0,0.0,0.0,0.0,0.0,0.0,0.0,0.0,0.0,0.0,0.0,0.0,0.0,0.0,0.0,0.0,0.0,0.0,0.0,0.0,0.0,0.0,0.0,0.0,0.0,0.0,0.0,0.0,0.0,0.0,0.0,0.0,0.0,0.0,0.0,0.0,0.0,0.0,0.0,0.0,0.0,0.0,0.0,0.0,0.0,0.0,0.0,0.0,0.0,0.0,0.0,0.0,0.0,0.0,0.0,0.0,0.0,0.0,0.0,0.0,0.0,0.0,0.0,0.0,0.0,0.0,0.0,0.0,0.0,0.0,0.0,0.0,0.0,0.0,0.0,0.0,0.0,0.0,0.0,0.0,0.0,0.0,0.0,0.0,0.0,0.0,0.0,0.0,0.0,0.0,0.0,0.0,0.0,0.0,0.0,0.0,0.0,0.0,0.0,0.0,0.0,0.0,0.0,0.0,0.0,0.0,0.0,0.0,0.0,0.0,0.0,0.0,0.0,0.0,0.0,0.0,0.0,0.0,0.0,0.0,0.0,0.0,0.0,0.0,0.0,0.0,0.0,0.0,0.0,0.0,0.0,0.0,0.0,0.0,0.0,0.0,0.0,0.0,0.0,0.0,0.0,0.0,0.0,0.0,0.0,0.0,0.0,0.0,0.0,0.0,0.0,0.0,0.0,0.0,0.0,0.0,0.0,0.0,0.0,0.0,0.0,0.0,0.0,0.0,0.0,0.0,0.0,0.0,0.0,0.0,0.0,0.0,0.0,0.0,0.0,0.0,0.0,0.0,0.0,0.0,0.0,0.0,0.0,0.0,0.0,0.0,0.0,0.0,0.0,0.0,0.0,0.0,0.0,0.0,0.0,0.0,0.0,0.0,0.0,0.0,0.0,0.0,0.0,0.0,0.0,0.0,0.0,0.0,0.0,0.0,0.0,0.0,0.0,0.0,0.0,0.0,0.0,0.0,0.0,0.0,0.0,0.0,0.0,0.0,0.0,0.0,0.0,0.0,0.0,0.0,0.0,0.0,0.0,0.0,0.0,0.0,0.0,0.0,0.0,0.0,0.0,0.0,0.0,0.0,0.0,0.0,0.0,0.0,0.0,0.0,0.0,0.0,0.0,0.0,0.0,0.0,0.0,0.0,0.0,0.0,0.0,0.0,0.0,0.0,0.0,0.0,0.0,0.0,0.0,0.0,0.0,0.0,0.0,0.0,0.0,0.0,0.0,0.0,0.0,0.0,0.0,0.0,0.0,0.0,0.0,0.0,0.0,0.0,0.0,0.0,0.0,0.0,0.0,0.0,0.0,0.0,0.0,0.0,0.0,0.0,0.0,0.0,0.0,0.0,0.0,0.0,0.0,0.0,0.0,0.0,0.0,0.0,0.0,0.0,0.0,0.0,0.0,0.0,0.0,0.0,0.0,0.0,0.0,0.0,0.0,0.0,0.0,0.0,0.0,0.0,0.0,0.0,0.0,0.0,0.0,0.0,0.0,0.0,0.0,0.0,0.0,0.0,0.0,0.0,0.0,0.0,0.0,0.0,0.0,0.0,0.0,0.0,0.0,0.0,0.0,0.0,0.0,0.0,0.0,0.0,0.0,0.0,0.0,0.0,0.0,0.0,0.0,0.0,0.0,0.0,0.0,0.0,0.0,0.0,0.0,0.0,0.0,0.0,0.0,0.0,0.0,0.0,0.0,0.0,0.0,0.0,0.0,0.0,0.0,0.0,0.0,0.0,0.0,0.0,0.0,0.0,0.0,0.0,0.0,0.0,0.0,0.0,0.0,0.0,0.0,0.0,0.0,0.0,0.0,0.0,0.0,0.0,0.0,0.0,0.0,0.0,0.0,0.0,0.0,0.0,0.0,0.0,0.0,0.0,0.0,0.0,0.0,0.0,0.0,0.0,0.0,0.0,0.0,0.0,0.0,0.0,0.0,0.0,0.0,0.0,0.0,0.0,0.0,0.0,0.0,0.0,0.0,0.0,0.0,0.0,0.0,0.0,0.0,0.0,0.0,0.0,0.0,0.0,0.0,0.0,0.0,0.0,0.0,0.0,0.0,0.0,0.0,0.0,0.0,0.0,0.0,0.0,0.0,0.0,0.0,0.0,0.0,0.0,0.0,0.0,0.0,0.0,0.0,0.0,0.0,0.0,0.0,0.0,0.0,0.0,0.0,0.0,0.0,0.0,0.0,0.0,0.0,0.0,2.4097,2.4303,0.0,0.0,0.0,0.0,0.0,0.0,0.0,0.0,0.0,0.0,0.0,0.0,0.0,0.0,0.0,0.0,0.0,0.0,0.0,0.0,0.0,0.0,0.0,2.4152,2.4277,2.4277,2.4772,2.5185,2.5388,0.0,0.0,0.0,0.0,0.0,2.801,2.8135,2.8331,2.8534,2.8915,2.9181,2.9417,2.9417,2.9072,2.8409,0.0,0.0,0.0,0.0,0.0,0.0,0.0,0.0,0.0,0.0,0.0,0.0,0.0,0.0,0.0,0.0,0.0,0.0,0.0,0.0,0.0,0.0,0.0,0.0,0.0,0.0,0.0,0.0,0.0,0.0,0.0,0.0,0.0,0.0,0.0,0.0,0.0,0.0,0.0,0.0,0.0,0.0,0.0,0.0,0.0,0.0,0.0,0.0,0.0,0.0,0.0,0.0,0.0,0.0,0.0,0.0,0.0,0.0,0.0,0.0,0.0,0.0,0.0,0.0,0.0,0.0,0.0,0.0,0.0,0.0,2.4358,2.4266,0.0,0.0,0.0,0.0,0.0,0.0,0.0,0.0,0.0,0.0,0.0,0.0,0.0,0.0,0.0,0.0,0.0,0.0,0.0,0.0,0.0,2.361,2.361,2.3699,2.3789,2.3789,2.4741,2.5378,2.5465,2.6641,0.0,0.0,2.7653,2.7738,2.7867,2.8081,2.8399,2.8791,2.9371,2.9859,3.0258,3.0258,2.9696,0.0,0.0,0.0,0.0,0.0,0.0,0.0,0.0,0.0,0.0,0.0,0.0,0.0,0.0,0.0,0.0,0.0,0.0,0.0,0.0,0.0,0.0,0.0,0.0,0.0,0.0,0.0,0.0,0.0,0.0,0.0,0.0,0.0,0.0,0.0,0.0,0.0,0.0,0.0,0.0,0.0,0.0,0.0,0.0,0.0,0.0,0.0,0.0,0.0,0.0,0.0,0.0,0.0,0.0,0.0,0.0,0.0,0.0,0.0,0.0,0.0,0.0,0.0,0.0,0.0,2.5574,2.5574,2.5574,2.5612,2.5638,2.5593,2.487,2.4547,2.4557,2.4671,0.0,0.0,0.0,0.0,0.0,0.0,0.0,0.0,0.0,0.0,0.0,0.0,0.0,0.0,0.0,0.0,0.0,0.0,0.0,2.361,2.361,2.4126,2.4485,2.4485,2.5152,2.5719,2.6044,2.6262,2.6869,2.7886,2.7971,2.8256,2.8903,2.893,2.8993,2.9062,2.9157,2.9212,2.928,2.928,2.9409,2.9643,0.0,0.0,0.0,0.0,0.0,0.0,0.0,0.0,0.0,0.0,0.0,0.0,0.0,0.0,0.0,0.0,0.0,0.0,0.0,0.0,0.0,0.0,0.0,0.0,0.0,0.0,0.0,0.0,0.0,0.0,0.0,0.0,0.0,0.0,0.0,0.0,0.0,0.0,0.0,0.0,0.0,0.0,0.0,0.0,2.4111,2.4471,0.0,0.0,0.0,0.0,0.0,0.0,0.0,0.0,0.0,0.0,0.0,0.0,0.0,2.5071,2.5071,2.5071,2.5071,2.5071,2.5071,2.5071,2.5086,2.5275,2.5349,2.5362,2.5476,0.0,2.5966,2.6208,0.0,0.0,0.0,0.0,0.0,0.0,0.0,0.0,0.0,0.0,0.0,0.0,0.0,0.0,0.0,0.0,0.0,0.0,0.0,0.0,0.0,2.4754,2.5143,2.5143,2.5794,2.6249,2.6408,2.7024,2.762,2.8163,2.8513,2.8886,2.9221,2.9323,2.9514,2.9757,3.005,3.0171,3.0171,3.0171,3.0458,3.0969,3.0854,3.0672,3.0489,3.0489,0.0,0.0,0.0,0.0,0.0,0.0,0.0,0.0,0.0,0.0,0.0,0.0,0.0,0.0,0.0,0.0,0.0,0.0,0.0,0.0,0.0,0.0,0.0,0.0,0.0,0.0,0.0,0.0,0.0,0.0,0.0,0.0,0.0,0.0,0.0,0.0,0.0,0.0,0.0,2.5109,2.5246,2.5645,2.5694,2.5873,0.0,0.0,0.0,0.0,0.0,0.0,0.0,0.0,0.0,2.6902,2.7316,2.7523,2.7523,2.7523,2.7523,2.7523,2.7523,2.7523,2.7523,2.7634,2.7662,2.7678,2.7997,2.8301,2.851,2.697,2.6395,2.6369,0.0,0.0,0.0,0.0,2.6062,2.6025,0.0,0.0,0.0,0.0,0.0,0.0,0.0,0.0,0.0,0.0,0.0,0.0,2.4608,2.5224,2.5688,2.583,2.6452,2.6866,2.6866,2.7758,2.8295,2.8295,2.8941,2.9281,2.9255,2.9429,2.9726,3.0121,3.048,3.0658,3.0658,3.0658,3.1004,3.1694,3.1227,3.1036,3.1052,3.0726,3.0681,0.0,0.0,0.0,0.0,0.0,0.0,0.0,0.0,0.0,0.0,0.0,0.0,0.0,0.0,0.0,0.0,0.0,0.0,0.0,0.0,0.0,0.0,0.0,0.0,0.0,0.0,0.0,0.0,0.0,0.0,0.0,0.0,0.0,0.0,0.0,0.0,0.0,0.0,2.5815,2.5961,2.635,2.6385,2.6556,0.0,0.0,0.0,0.0,0.0,0.0,2.7721,2.8336,2.8696,2.8696,2.9213,2.9592,2.9799,2.9799,2.9903,3.011,3.011,3.011,3.011,3.011,3.0006,2.9817,3.0071,3.0194,3.0107,2.8177,2.732,2.7222,2.7453,2.7409,2.7189,2.6979,2.6906,2.6869,0.0,0.0,0.0,0.0,0.0,0.0,0.0,0.0,0.0,0.0,0.0,2.4047,2.4626,2.5313,2.5917,2.6518,2.7165,2.7555,2.7555,2.8025,2.83,2.83,2.8958,2.926,2.9094,2.9235,2.9429,2.9648,2.9645,2.9672,2.9672,2.9672,3.0195,3.1121,3.1097,3.1645,3.2508,3.1293,3.1077,3.1482,0.0,0.0,0.0,0.0,0.0,0.0,0.0,0.0,0.0,0.0,0.0,0.0,0.0,0.0,0.0,0.0,0.0,0.0,0.0,0.0,0.0,0.0,0.0,0.0,0.0,0.0,0.0,0.0,0.0,0.0,0.0,0.0,0.0,0.0,0.0,0.0,0.0,0.0,0.0,2.5538,2.5542,0.0,0.0,0.0,0.0,2.7216,2.8199,2.8804,2.8804,2.9213,2.9455,2.9455,2.9489,2.9868,3.0627,3.0645,3.0972,3.1662,3.1662,3.1662,3.1662,3.1662,3.1282,3.0645,3.0663,3.0248,2.9625,3.0355,3.041,3.0002,3.0014,2.9537,2.8803,2.8007,2.775,2.764,0.0,0.0,0.0,0.0,0.0,2.1313,2.1602,2.2121,2.2623,2.2965,2.3897,2.4693,2.5175,2.5879,2.6517,2.6954,2.7263,2.7437,2.7361,2.7876,2.8178,2.8178,2.9241,2.9981,3.0365,3.0423,3.051,3.0567,3.0567,3.0624,3.068,3.068,3.1127,3.1938,3.1938,3.2564,3.3525,3.2479,3.2144,3.2266,3.2,3.1901,0.0,0.0,0.0,0.0,0.0,0.0,0.0,0.0,0.0,0.0,0.0,0.0,0.0,0.0,0.0,0.0,0.0,0.0,0.0,0.0,0.0,0.0,0.0,0.0,0.0,0.0,0.0,0.0,0.0,0.0,0.0,0.0,0.0,0.0,0.0,0.0,0.0,2.68,2.6859,0.0,2.7401,2.7703,2.7816,2.7816,2.8627,2.9084,2.9084,3.0142,3.0724,3.0724,3.1515,3.208,3.2372,3.2735,3.3026,3.3302,3.3302,3.3302,3.3302,3.3302,3.313,3.2888,3.2888,3.2847,3.2807,3.3141,3.201,3.0126,3.0518,3.047,3.0179,2.9888,2.96,2.9269,0.0,0.0,0.0,0.0,2.0624,2.0803,2.1237,2.1758,2.2339,2.2872,2.3818,2.4609,2.5098,2.5813,2.6336,2.6578,2.7052,2.7296,2.7214,2.7935,2.8458,2.8664,2.9693,3.0514,3.1102,3.1014,3.1014,3.1102,3.1309,3.1486,3.1634,3.1604,3.2013,3.2721,3.2505,3.2926,3.3777,3.3353,3.3156,3.305,3.2818,3.2718,3.2652,0.0,0.0,0.0,0.0,0.0,0.0,0.0,0.0,0.0,0.0,0.0,0.0,0.0,0.0,0.0,0.0,0.0,0.0,0.0,0.0,0.0,0.0,0.0,0.0,0.0,0.0,0.0,0.0,0.0,0.0,0.0,0.0,0.0,0.0,2.7115,2.719,2.74,2.7442,2.761,2.8135,2.8384,2.8591,2.8851,2.9662,3.0118,3.0118,3.1177,3.1759,3.1759,3.2756,3.3415,3.3672,3.4199,3.4614,3.4855,3.4855,3.4855,3.4855,3.4855,3.4717,3.4476,3.4476,3.4476,3.4428,3.4428,3.3242,3.1375,3.1474,3.1189,3.075,3.0848,3.0698,3.0416,0.0,0.0,0.0,2.0549,2.0499,2.0655,2.1066,2.1511,2.2036,2.2714,2.321,2.3759,2.4427,2.5021,2.5384,2.5412,2.6472,2.7158,2.7169,2.8277,2.917,2.9783,3.0308,3.0776,3.1073,3.0895,3.0925,3.1102,3.1721,3.2105,3.2287,3.2227,3.2616,3.337,3.2752,3.2715,3.324,3.3848,3.3982,3.371,3.3027,3.2785,3.2785,0.0,0.0,0.0,0.0,0.0,0.0,0.0,0.0,0.0,0.0,0.0,0.0,0.0,0.0,0.0,0.0,0.0,0.0,0.0,0.0,0.0,0.0,0.0,0.0,0.0,0.0,0.0,0.0,0.0,0.0,0.0,0.0,0.0,2.7273,2.7178,2.7209,2.7209,2.7209,2.7494,2.8126,2.8767,2.9461,3.0172,3.1269,3.1892,3.1892,3.2302,3.2529,3.2529,3.3048,3.3664,3.4373,3.4911,3.5552,3.6241,3.6241,3.6241,3.6262,3.6262,3.5904,3.5214,3.5214,3.4835,3.4165,3.4165,3.4165,3.4051,3.3141,3.1845,3.0588,3.0858,3.0934,3.0966,0.0,0.0,2.0549,2.0624,2.081,2.1016,2.1223,2.1974,2.2592,2.276,2.3232,2.3774,2.4308,2.4595,2.4851,2.5105,2.5855,2.6498,2.6891,2.8023,2.9198,3.0337,0.0,0.0,3.0746,3.1123,3.1326,3.1387,3.2057,3.2441,3.2568,3.2568,3.2787,3.3276,3.3543,3.3525,3.337,3.3918,3.3852,3.3411,3.4036,3.4286,3.422,0.0,0.0,0.0,0.0,0.0,0.0,0.0,0.0,0.0,0.0,0.0,0.0,0.0,0.0,0.0,0.0,0.0,0.0,0.0,0.0,0.0,0.0,0.0,0.0,0.0,0.0,0.0,0.0,0.0,0.0,0.0,2.9264,2.9358,2.864,2.9011,2.9327,2.9327,2.9769,3.0148,3.0338,3.0503,3.0693,3.0907,3.172,3.2176,3.2176,3.2755,3.3086,3.3086,3.3608,3.3997,3.4193,3.4659,3.5013,3.5214,3.5214,3.5419,3.581,3.581,3.5882,3.6008,3.6008,3.587,3.5697,3.5697,3.5387,3.4861,3.428,3.3829,3.3389,3.2875,3.2152,3.1345,0.0,2.1842,2.1765,2.1277,2.1484,2.1715,2.1703,2.2206,2.2658,2.2887,2.3217,2.3484,2.378,2.4131,2.4279,2.4221,2.5249,2.6058,2.6362,2.8054,2.9501,0.0,0.0,3.0743,3.0974,3.1322,3.1642,3.1901,3.26,3.2987,3.3115,3.3115,3.3275,3.353,3.3696,3.3577,3.3332,3.3604,3.3571,3.3329,3.3886,3.4292,3.4537,3.411,3.4065,3.413,3.3162,3.2945,3.3027,3.2299,0.0,0.0,0.0,0.0,0.0,0.0,0.0,0.0,0.0,0.0,0.0,0.0,0.0,0.0,0.0,0.0,0.0,0.0,0.0,0.0,0.0,0.0,0.0,0.0,2.9896,3.0172,2.9998,3.037,3.0622,3.0622,3.097,3.1318,3.1634,3.1665,3.1792,3.2076,3.2487,3.2734,3.2734,3.3087,3.3309,3.3309,3.3822,3.4101,3.4101,3.4586,3.4911,3.5121,3.5121,3.5283,3.5611,3.581,3.5941,3.6028,3.6199,3.6284,3.6284,3.6284,3.6042,3.5614,0.0,0.0,0.0,0.0,3.3529,3.3045,2.3563,2.3614,2.3511,2.2322,2.2427,2.2609,2.2452,2.2401,2.2543,2.3045,2.3095,2.3095,2.3095,2.3632,2.3776,2.3256,2.4734,2.5791,2.5992,2.8173,0.0,3.0447,3.0477,3.0797,3.1466,3.1553,3.1961,3.2629,3.3267,3.3656,3.3787,3.3787,3.3885,3.405,3.3587,3.3354,3.3297,3.3154,3.3172,3.3251,3.3014,3.3345,3.4025,3.4025,3.4267,3.4544,3.3429,3.3371,3.372,3.2993,0.0,0.0,0.0,0.0,0.0,0.0,0.0,0.0,0.0,0.0,0.0,0.0,0.0,0.0,0.0,0.0,0.0,0.0,0.0,0.0,0.0,0.0,0.0,0.0,3.0394,3.0622,3.1255,3.1413,3.1388,3.1324,3.1413,3.1697,3.2355,3.2418,3.2671,3.3245,3.3309,3.3309,3.3309,3.3309,0.0,0.0,0.0,3.4161,3.4226,3.4644,3.5129,3.5574,3.5574,3.5609,3.5645,3.6078,3.6031,3.5722,3.6114,3.6284,3.6284,3.6284,3.6284,3.6215,3.5594,3.4869,3.4273,3.4568,3.4816,3.5081,2.4343,2.3844,2.3691,2.3537,2.3286,2.3109,2.3184,2.3054,2.297,2.3095,2.3095,2.3095,2.3095,2.3215,2.3447,2.3778,2.4551,2.5614,2.7079,0.0,2.903,2.9747,2.9777,3.0337,3.1466,3.2017,3.2658,3.3329,3.3906,3.4225,3.4259,3.4259,3.4359,3.4559,3.4475,3.4221,3.3822,3.3359,3.2885,3.2437,3.2492,3.2841,3.3371,3.3371,3.3449,3.3495,3.3264,3.354,3.3925,3.321,3.3233,3.3458,3.2884,0.0,0.0,0.0,0.0,0.0,0.0,0.0,0.0,0.0,0.0,0.0,0.0,0.0,0.0,0.0,0.0,0.0,0.0,0.0,0.0,3.0928,3.1532,3.1943,3.207,3.255,3.2677,3.2165,3.255,3.2961,3.3087,3.3119,3.3151,3.3277,3.3309,3.3309,3.3309,3.3309,3.3561,3.4067,3.4206,3.4546,3.5149,3.5227,3.5336,3.5444,3.5444,0.0,3.5832,3.5928,3.6038,3.6156,3.6241,3.6284,3.6284,3.6284,3.6284,3.6284,3.6146,3.5628,3.4993,3.5074,3.4913,3.4726,2.5995,2.56,2.5237,2.466,2.4313,2.4113,2.4195,2.3573,2.3215,2.3573,2.3305,2.3095,2.3095,2.3371,2.3678,2.3979,2.4732,2.5833,0.0,2.7802,2.8487,2.956,2.9591,3.0355,3.1959,3.2307,3.2977,3.3935,3.4254,3.4399,3.4399,3.4399,3.4462,3.4563,3.4664,3.4589,3.4273,3.3399,3.2874,3.2644,3.2015,3.1992,3.2379,3.268,3.2975,3.3156,3.2895,3.3161,3.3598,3.3214,3.3468,3.3874,3.3514,3.3317,3.3249,0.0,0.0,0.0,0.0,0.0,0.0,0.0,0.0,0.0,0.0,0.0,0.0,0.0,0.0,3.0746,3.0797,0.0,3.1187,3.1678,3.207,3.2418,3.2766,3.3087,3.3182,3.2861,3.3087,3.3309,3.3309,3.3593,3.3783,3.3783,3.413,3.4352,3.4352,3.4352,3.451,3.4826,3.4826,3.5015,3.5394,3.5394,3.5502,3.5746,3.5746,3.5851,3.6018,3.6298,3.6495,3.6671,3.6933,3.6975,3.687,3.6456,3.6284,3.6284,3.6284,3.6077,3.5732,3.5732,3.5613,3.5501,2.7386,2.7233,2.6814,2.5742,2.5328,2.5189,2.5189,2.4105,2.3543,2.4192,2.3603,2.3125,2.3275,2.3714,2.4079,2.428,2.5209,2.6273,0.0,2.7397,2.7999,2.9529,2.9341,3.0246,3.2452,3.2384,3.2992,3.4399,3.4399,3.4399,3.4399,3.4399,3.4399,3.4399,3.4563,3.4631,3.4543,3.3323,3.2924,3.2995,3.1663,3.122,3.1482,3.1966,3.2407,3.2788,3.2382,3.2544,3.2971,3.3055,3.3423,3.3866,3.3917,3.3803,3.3627,3.3684,3.3257,0.0,0.0,0.0,0.0,0.0,0.0,0.0,0.0,0.0,3.0871,3.0483,3.0806,3.1073,3.0764,3.1159,3.1693,3.217,3.23,3.2541,3.3108,3.335,3.3498,3.3498,3.3498,3.3498,3.3498,3.4099,3.451,3.451,3.5047,3.5394,3.5394,3.5394,3.5458,3.5584,3.5584,3.5647,3.5805,3.5805,3.5999,3.6377,3.6377,3.6367,3.6314,3.6738,3.6957,3.7028,3.758,3.7774,3.765,3.7008,3.6663,3.6525,3.6525,3.6422,3.6284,3.6284,3.6284,3.6346,0.0,2.7104,2.6977,2.6817,2.6231,2.5797,2.5797,2.4766,2.4192,2.4823,2.3842,2.3335,2.3927,2.4019,2.4381,2.5335,2.6021,0.0,2.7438,2.6952,2.7497,2.9529,2.839,2.9253,3.242,3.1903,3.253,3.4399,3.4399,3.4399,3.4399,3.4399,3.4399,3.4399,3.4428,3.4428,3.4375,3.3197,3.2737,3.2652,3.1543,3.1102,3.1132,3.122,3.1336,3.1538,3.1567,3.1851,3.2241,3.2437,3.2761,3.3161,3.3235,3.3203,3.3114,3.3244,0.0,3.3143,3.3065,3.2961,3.2671,3.1802,3.2078,3.2211,0.0,0.0,3.1496,3.107,3.0837,3.0808,3.1299,3.1359,3.1476,3.187,3.2287,3.259,3.2683,3.354,3.4194,3.4194,3.4194,3.4194,3.4194,3.4826,3.5268,3.5268,3.5331,3.5394,3.5394,3.5394,3.5679,3.625,3.6282,3.6595,3.7257,3.7288,3.7286,3.7345,3.7345,3.7256,3.709,3.7145,3.7084,3.6927,3.7556,3.8069,3.8456,3.8375,3.7939,3.7374,3.7374,3.6926,3.6284,3.6284,3.6284,3.6318,0.0,2.7078,2.6977,2.6899,2.634,2.6043,2.6367,2.5384,2.4851,2.5439,2.4766,2.4192,2.4102,2.4331,2.4911,2.6005,2.635,0.0,2.6918,2.7027,2.7637,2.8903,2.8807,2.9732,3.1872,3.1648,3.2281,3.3877,3.3877,3.4051,3.4399,3.4399,3.4399,3.4399,3.4022,3.3877,3.379,3.2547,3.2088,3.2094,3.1247,0.0,3.1102,3.1102,3.1073,3.1014,3.122,3.1423,0.0,0.0,3.2104,3.2516,3.268,3.2922,3.3103,3.3182,3.3182,0.0,3.2676,3.2296,3.1879,0.0,3.148,3.1595,3.0836,3.0955,3.1131,3.0836,3.0687,3.0747,3.1307,3.1336,3.1423,0.0,3.2076,3.2422,3.3132,3.3665,3.4203,3.4861,3.5268,3.5363,3.4984,3.5584,3.5995,3.5995,3.6374,3.6624,3.6624,3.6624,3.6753,3.7038,3.7038,3.7196,3.751,3.751,3.751,3.751,3.751,3.7469,3.7384,3.7384,3.7504,3.7725,3.8061,3.8415,3.8741,3.8494,3.8253,3.8134,3.8134,3.7939,3.7525,3.6628,3.6284,3.6284,0.0,2.7052,2.6925,2.682,2.6447,2.6313,2.6741,2.5934,2.5439,2.6069,2.5467,2.482,2.437,2.4792,2.5472,2.6485,2.6698,0.0,0.0,2.7504,2.7999,2.8492,2.903,2.9904,3.1217,3.1217,3.1858,3.3209,3.3209,3.3441,3.3906,3.3906,3.3906,3.3877,3.3412,3.3209,3.3155,3.199,3.1587,3.1652,0.0,0.0,3.0955,3.0955,3.0895,3.0836,3.1014,3.1161,0.0,0.0,3.1509,3.1851,3.202,3.2324,3.2652,3.2707,3.2676,3.2571,3.1962,3.148,0.0,3.0807,3.0866,3.0895,3.0657,3.0657,3.0717,3.0598,3.0598,3.0687,3.1043,3.1102,3.1219,3.148,3.1773,3.2334,3.3367,3.3939,3.4631,3.5559,3.6279,3.6532,3.6026,3.6437,3.6722,3.6722,3.7196,3.751,3.751,3.751,3.751,3.751,3.751,3.751,3.751,3.751,3.751,3.751,3.751,3.751,3.751,3.7599,3.7857,3.8302,3.8494,3.8789,3.9075,3.8836,3.8755,3.878,3.8927,3.8834,3.8501,3.7396,3.6843,3.6594,0.0,0.0,2.682,2.682,2.6794,2.6794,2.682,2.6286,2.6098,2.6686,2.5742,2.4981,2.4891,2.5418,2.6019,2.6658,2.721,0.0,2.84,2.846,2.8492,2.8492,2.8524,2.9178,3.0492,3.0552,3.1183,3.2542,3.2542,3.2542,3.2539,3.2539,3.2539,3.2539,3.2542,3.2542,3.2513,3.1785,3.1495,0.0,0.0,0.0,3.0598,3.0598,3.0687,3.0836,3.1014,0.0,0.0,0.0,3.1102,3.1161,3.1278,3.1278,0.0,3.1482,3.1452,3.1307,3.1161,0.0,3.0806,3.0628,3.0598,3.0598,3.0598,3.0598,3.0598,3.0598,3.0598,3.0598,3.0598,3.0598,3.0628,3.0628,3.1514,3.2408,3.2938,3.4507,3.5817,3.6319,3.7006,3.7478,0.0,3.7447,3.7478,3.7478,3.751,3.751,3.751,3.751,3.751,3.751,3.751,3.751,3.751,3.751,3.751,3.751,3.751,3.751,3.751,3.7772,3.8026,3.8306,3.8645,3.9109,3.9603,3.9851,3.9661,3.9337,3.9687,3.9408,3.8807,3.8737,3.8187,3.7374,0.0,0.0,0.0,0.0,0.0,2.682,2.682,2.6606,2.6553,2.6794,2.6096,0.0,0.0,0.0,0.0,0.0,0.0,0.0,2.7815,2.8712,2.8807,2.7901,2.9156,2.9676,2.9178,3.0089,3.0745,3.1151,3.1625,3.2046,3.2481,3.2481,3.2481,3.2452,3.2048,3.1845,3.1816,3.1177,3.0887,0.0,0.0,0.0,3.0598,3.0598,3.0628,3.0657,0.0,0.0,0.0,0.0,3.0895,3.0925,3.1102,3.1132,3.1102,3.122,3.119,3.1132,3.0955,0.0,3.0776,3.0628,3.0598,3.0598,3.0598,3.0598,3.0598,3.0598,3.0598,3.0598,3.0598,3.0598,3.0743,3.1119,3.1808,3.2766,3.4121,3.5092,3.6065,3.701,3.7352,0.0,0.0,0.0,3.767,3.8144,3.8175,3.8365,3.8807,3.8839,3.8839,3.8839,3.8839,3.8839,3.8839,3.9022,3.9022,3.8807,3.9052,3.892,3.8412,3.856,3.8538,3.8375,3.8488,3.8738,3.9115,3.9592,3.9834,3.991,4.0196,4.0342,4.0341,3.973,3.9383,3.9115,0.0,0.0,0.0,0.0,0.0,0.0,0.0,0.0,0.0,0.0,0.0,0.0,0.0,0.0,0.0,0.0,0.0,2.7941,0.0,0.0,2.9314,2.7934,2.9594,3.0054,2.8935,3.0023,3.0589,3.0529,3.0962,3.1409,3.1816,3.1816,3.1816,3.1816,3.138,3.1177,3.1148,3.0772,3.0598,0.0,0.0,0.0,3.0598,3.0598,3.0598,0.0,0.0,0.0,0.0,0.0,3.0776,3.0836,3.0955,3.1043,3.1102,3.1102,3.1043,3.0955,3.0836,3.0776,3.0687,3.0598,3.0598,3.0598,3.0598,3.0598,3.0598,3.0598,3.0598,3.0598,3.0598,3.0598,3.0801,3.1409,3.2008,3.2909,3.4511,3.5185,3.5892,3.6814,3.7308,3.7744,0.0,0.0,0.0,3.8839,3.8871,3.906,3.9471,3.9503,3.9565,3.9659,3.969,3.9752,3.9875,4.0057,4.0089,3.9843,4.0089,3.9923,3.9473,3.9653,3.9515,3.9149,3.9296,3.9438,3.9603,4.0099,4.0359,4.0451,4.0687,4.091,4.1001,4.0424,4.0388,4.045,0.0,0.0,0.0,0.0,0.0,0.0,0.0,0.0,0.0,0.0,0.0,0.0,0.0,0.0,0.0,0.0,0.0,0.0,0.0,0.0,0.0,2.8556,2.987,3.0266,2.956,3.0266,3.0568,3.0538,3.0568,3.0598,3.0598,3.0598,3.0598,3.0598,3.0598,3.0598,3.0598,3.0598,3.0598,3.0598,3.0598,0.0,3.0598,3.0598,0.0,0.0,0.0,0.0,0.0,0.0,0.0,3.0806,3.0806,3.0925,3.1073,3.1073,3.0955,3.0806,3.0806,3.0687,3.0598,3.0598,3.0598,3.0598,3.0598,3.0598,3.0598,3.0598,3.0598,3.0598,0.0,0.0,3.083,3.1467,3.2106,3.2937,3.4095,3.4815,3.5429,0.0,0.0,0.0,0.0,0.0,0.0,3.9629,3.9597,3.9597,3.9629,3.9629,3.9785,4.0124,4.0094,4.0276,4.0605,4.0605,4.0605,4.0634,4.0634,4.0634,4.0602,4.09,4.0867,4.0567,4.0896,4.0983,4.1012,4.1267,4.1178,4.0876,4.1212,4.1144,4.0881,4.0905,4.121,4.1397,0.0,0.0,0.0,0.0,0.0,0.0,0.0,0.0,0.0,0.0,0.0,0.0,0.0,0.0,0.0,0.0,0.0,0.0,0.0,0.0,0.0,0.0,0.0,0.0,0.0,0.0,0.0,0.0,0.0,3.0598,3.0598,3.0598,3.0598,0.0,3.0598,3.0598,3.0598,3.0598,3.0598,3.0598,0.0,3.0598,3.0598,0.0,0.0,0.0,0.0,0.0,0.0,0.0,0.0,0.0,0.0,3.0687,3.0717,3.0717,3.0687,3.0628,3.0628,3.0628,3.0598,3.0598,3.0598,3.0598,3.0598,3.0598,3.0598,3.0598,3.0598,3.0598,0.0,0.0,0.0,3.2077,3.2744,0.0,3.4753,3.5407,0.0,3.6414,0.0,3.8059,3.8937,4.0039,0.0,4.1406,4.096,4.0927,4.1406,4.1438,4.1597,4.1911,4.1692,4.1724,4.2066,4.2066,4.2189,4.2435,4.2435,4.2141,4.1618,4.177,4.1592,4.1181,4.107,4.0983,4.1012,4.1267,4.1421,4.1416,4.1607,4.1847,4.2167,4.2427,4.2303,4.1963,0.0,0.0,0.0,0.0,0.0,0.0,0.0,0.0,0.0,0.0,0.0,0.0,0.0,0.0,0.0,0.0,0.0,0.0,0.0,0.0,0.0,0.0,0.0,0.0,0.0,0.0,0.0,0.0,0.0,0.0,0.0,3.0598,3.0598,3.0598,3.0598,3.0598,3.0598,0.0,0.0,0.0,0.0,0.0,0.0,0.0,0.0,0.0,0.0,0.0,0.0,0.0,0.0,3.0598,3.0598,3.0598,3.0598,3.0598,0.0,3.0598,3.0598,3.0598,3.0598,3.0598,3.0598,3.0598,3.0598,3.0598,3.0598,3.0598,3.0598,0.0,3.0598,3.0598,3.1003,0.0,0.0,0.0,3.4662,3.507,3.5517,0.0,3.7301,0.0,3.9531,4.0928,4.1914,4.2301,4.1821,4.1757,4.2301,4.2174,4.2333,4.2803,4.2649,4.2711,4.3052,4.3052,4.3143,4.3325,4.3325,4.3128,4.27,4.2762,4.262,4.2373,4.2228,4.214,4.214,4.2282,4.2199,4.1986,4.2071,4.2204,4.2359,4.2542,4.2636,4.2653,0.0,0.0,0.0,0.0,0.0,0.0,0.0,0.0,0.0,0.0,2.682,0.0,0.0,0.0,0.0,0.0,0.0,0.0,0.0,0.0,0.0,0.0,0.0,0.0,0.0,0.0,0.0,0.0,0.0,0.0,0.0,0.0,0.0,0.0,0.0,0.0,0.0,0.0,0.0,0.0,0.0,0.0,0.0,0.0,0.0,0.0,0.0,0.0,0.0,0.0,3.0598,3.0598,3.0598,3.0598,3.0598,3.0598,3.0598,3.0598,3.0598,3.0598,3.0598,3.0598,3.0598,3.0598,3.0598,3.0598,3.0598,3.0598,0.0,3.0598,3.0598,3.0598,3.1003,3.2309,0.0,3.2916,3.4225,3.4399,3.4763,3.5746,3.7455,3.8889,3.9866,4.163,4.2679,4.2679,4.2397,4.2365,4.2648,4.2397,4.2523,4.3082,4.3143,4.3295,4.3598,4.3598,4.3598,4.3598,4.3598,4.3598,4.3598,4.3598,4.3598,4.3598,4.3598,4.3598,4.3598,4.3598,4.3201,4.2638,4.2638,4.2465,4.2232,4.2286,4.2728,4.3276,0.0,0.0,0.0,0.0,0.0,0.0,0.0,0.0,0.0,0.0,2.6922,2.682,0.0,0.0,0.0,0.0,0.0,0.0,0.0,0.0,0.0,0.0,0.0,0.0,0.0,0.0,0.0,0.0,0.0,0.0,0.0,0.0,0.0,0.0,0.0,0.0,0.0,0.0,0.0,0.0,0.0,0.0,0.0,0.0,0.0,0.0,0.0,0.0,0.0,0.0,3.0598,3.0598,3.0598,3.0598,3.0598,3.0598,3.0598,3.0598,3.0598,3.0598,3.0598,3.0598,3.0598,3.0598,3.0598,3.0687,0.0,0.0,3.0687,3.0717,3.0598,3.0598,3.1003,3.2309,3.2481,3.2916,3.4225,3.4399,3.497,0.0,3.7818,3.9117,4.0737,4.2197,0.0,4.3021,4.2959,4.2959,4.3021,4.2959,4.299,4.3113,4.3355,4.3539,4.3598,4.3598,4.3598,4.3598,4.3598,4.3598,4.3598,4.3598,4.3598,4.3598,4.3598,4.3598,4.3598,4.3598,4.3499,4.34,4.34,4.3393,4.3377,4.3781,4.3603,4.322,0.0,0.0,0.0,0.0,0.0,0.0,0.0,2.7284,2.7284,2.7207,2.7078,2.6974,2.6925,2.6846,2.682,0.0,0.0,0.0,0.0,0.0,0.0,0.0,0.0,0.0,0.0,0.0,0.0,0.0,0.0,0.0,0.0,0.0,0.0,0.0,0.0,0.0,0.0,0.0,0.0,0.0,0.0,0.0,0.0,0.0,0.0,0.0,0.0,0.0,0.0,0.0,3.0598,3.0598,3.0598,3.0598,3.0598,3.0598,3.0598,3.0598,3.0598,3.0598,3.0598,3.0598,3.0598,3.0598,3.0687,0.0,0.0,0.0,3.0776,3.0776,3.0598,3.0598,0.0,3.1845,3.2373,3.299,3.3893,3.4397,3.5255,3.6903,3.8165,3.9532,4.115,4.2546,4.3355,4.3355,4.3355,4.3355,4.3355,4.3355,4.3355,4.3355,4.3539,4.3598,4.3598,4.3598,4.3598,4.3598,4.3598,4.3598,4.3598,4.3598,4.3598,4.3598,4.3598,4.3598,4.3598,4.3598,4.3598,4.3598,4.3598,4.3598,4.3628,4.3864,4.3863,4.3783,0.0,0.0,0.0,0.0,0.0,0.0,0.0,2.7615,2.7534,2.7458,2.7335,2.7181,2.7107,2.6977,2.6899,0.0,0.0,0.0,0.0,0.0,0.0,0.0,0.0,0.0,0.0,0.0,0.0,0.0,0.0,0.0,0.0,0.0,0.0,0.0,0.0,0.0,0.0,0.0,0.0,0.0,0.0,0.0,0.0,0.0,0.0,0.0,0.0,0.0,0.0,0.0,3.0598,3.0598,3.0598,3.0598,3.0598,3.0598,3.0598,3.0598,3.0598,3.0598,3.0598,3.0598,3.0598,3.0628,3.0776,3.0836,0.0,0.0,3.0836,3.0836,3.0657,3.0628,3.0831,0.0,3.2265,3.3033,3.368,3.4391,3.5473,0.0,3.835,0.0,4.1464,4.2679,0.0,4.3598,4.3598,4.3598,4.3598,4.3598,4.3598,4.3598,4.3598,4.3598,4.3598,4.3598,4.3598,4.3598,4.3598,4.3598,4.3598,4.3598,4.3598,4.3598,4.3598,4.3598,4.3598,4.3598,4.3598,4.3598,4.3598,4.3598,4.3598,4.3598,4.3835,4.415,0.0,0.0,0.0,0.0,0.0,0.0,0.0,2.8216,2.8192,2.8192,2.771,2.7391,2.7361,2.7233,2.7155,0.0,0.0,0.0,0.0,0.0,0.0,0.0,0.0,0.0,0.0,0.0,0.0,0.0,0.0,0.0,0.0,0.0,0.0,0.0,0.0,0.0,0.0,0.0,0.0,0.0,0.0,0.0,0.0,0.0,0.0,0.0,0.0,0.0,0.0,0.0,0.0,3.0598,3.0598,3.0598,3.0598,3.0598,0.0,0.0,3.0598,3.0598,3.0598,3.0598,3.0598,3.0628,3.0776,0.0,0.0,3.0836,3.0955,3.1014,3.0836,3.0806,3.1041,3.1837,0.0,3.3003,3.3841,3.442,3.5469,3.7395,0.0,0.0,4.1789,4.2428,4.2927,4.3568,4.3598,4.3598,4.3598,4.3598,4.3598,4.3598,4.3598,4.3598,4.3598,4.3598,4.3598,4.3598,4.3598,4.3598,4.3598,4.3598,4.3598,4.3598,4.3598,4.3598,4.3598,4.3598,4.3598,4.3598,4.3598,4.3598,4.3598,4.3598,4.3628,4.3747,0.0,0.0,0.0,0.0,0.0,0.0,2.8748,2.8795,2.8795,2.8795,2.8559,2.8415,2.8415,2.8076,2.768,2.7233,0.0,0.0,0.0,0.0,0.0,0.0,0.0,0.0,0.0,0.0,3.0514,3.0895,3.0806,0.0,0.0,0.0,0.0,0.0,0.0,0.0,0.0,0.0,0.0,0.0,0.0,0.0,0.0,0.0,0.0,0.0,0.0,0.0,0.0,0.0,0.0,0.0,3.0836,3.0776,0.0,0.0,3.0598,3.0598,3.0598,3.0598,3.0598,3.0598,3.0657,3.0776,3.0955,0.0,3.122,3.1102,3.1131,3.119,3.1014,3.0984,3.1102,0.0,0.0,0.0,3.353,3.4836,3.6216,3.7387,3.8382,0.0,0.0,4.2269,4.2865,4.3568,4.3598,4.3598,4.3598,4.3598,4.3598,4.3598,4.3598,4.3598,4.3598,4.3598,4.3598,4.3598,4.3598,4.3598,4.3598,4.3598,4.3598,4.3598,4.3598,4.3598,4.3598,4.3598,4.3598,4.3598,4.3598,4.3598,4.3598,4.3598,4.3598,4.3628,0.0,0.0,0.0,0.0,0.0,2.848,2.9028,2.9097,2.9143,2.928,2.9189,2.9097,2.9097,2.8772,2.8271,2.7585,2.7382,0.0,0.0,0.0,0.0,0.0,0.0,0.0,0.0,0.0,3.0631,3.1102,3.0955,3.0866,0.0,0.0,3.0628,3.0598,0.0,0.0,0.0,0.0,0.0,0.0,0.0,0.0,0.0,0.0,0.0,0.0,0.0,0.0,0.0,0.0,0.0,0.0,0.0,0.0,0.0,0.0,3.0657,3.0598,3.0628,3.0628,3.0598,3.0598,3.0687,3.0866,0.0,0.0,3.1307,3.1307,3.1307,3.1248,3.119,3.1161,3.1161,0.0,0.0,3.336,3.3576,3.5252,3.675,3.7586,0.0,3.9776,4.1363,4.2365,4.3113,4.3568,4.3598,4.3598,4.3598,4.3598,4.3598,4.3598,4.3598,4.3598,4.3598,4.3598,4.3598,4.3598,4.3598,4.3598,4.3598,4.3598,4.3598,4.3598,4.3598,4.3598,4.3598,4.3598,4.3598,4.3598,4.3598,4.3598,4.3598,4.3598,4.3598,4.3598,0.0,0.0,0.0,0.0,0.0,0.0,2.9028,2.9097,2.9257,2.9728,2.9393,2.9097,2.9097,2.9097,2.8889,2.8336,2.7854,0.0,0.0,0.0,0.0,0.0,0.0,0.0,0.0,0.0,3.1102,3.1102,3.1102,3.0984,3.0806,3.0806,3.0717,3.0598,0.0,0.0,0.0,0.0,0.0,0.0,0.0,0.0,0.0,0.0,0.0,0.0,0.0,0.0,0.0,0.0,0.0,0.0,0.0,0.0,0.0,0.0,3.0866,3.0628,3.0776,3.0687,3.0598,3.0598,3.0687,3.0866,0.0,0.0,3.1307,3.1307,3.1307,3.1307,3.1307,3.1307,3.1336,3.1482,3.2467,0.0,3.4295,3.5448,3.6753,0.0,3.8387,3.9195,4.1297,4.2772,4.3598,4.3598,4.3598,4.3598,4.3598,4.3598,4.3598,4.3598,4.3598,4.3598,4.3598,4.3598,4.3598,4.3598,4.3598,4.3598,4.3598,4.3598,4.3598,4.3598,4.3598,4.3598,4.3598,4.3598,4.3598,4.3598,4.3598,4.3598,4.3598,4.3598,4.3598,4.3598,0.0,0.0,0.0,0.0,0.0,0.0,0.0,2.9572,2.975,3.0236,3.0172,3.0054,3.0054,2.9772,2.9393,2.8889,2.8391,0.0,0.0,0.0,0.0,0.0,0.0,0.0,0.0,0.0,3.0918,3.1366,3.1278,3.119,3.1131,3.1043,3.0984,3.0955,3.0955,0.0,0.0,0.0,0.0,0.0,0.0,0.0,0.0,0.0,0.0,0.0,0.0,0.0,0.0,0.0,0.0,0.0,0.0,0.0,0.0,3.1307,3.1161,3.0955,3.0984,3.0984,3.0955,3.0955,3.1043,3.1161,3.1219,0.0,3.1453,3.1453,3.1453,3.1453,3.1453,3.1453,3.1453,3.1511,3.2557,0.0,0.0,0.0,0.0,3.8381,4.0127,4.1533,4.2205,4.3082,4.3598,4.3598,4.3598,4.3598,4.3598,4.3598,4.3598,4.3598,4.3598,4.3598,4.3598,4.3598,4.3598,4.3598,4.3598,4.3598,4.3598,4.3598,4.3598,4.3598,4.3598,4.3598,4.3598,4.3598,4.3598,4.3598,4.3598,4.3598,4.3598,4.3598,4.3598,4.3658,0.0,0.0,0.0,0.0,0.0,0.0,0.0,2.9754,2.9974,3.0205,3.0384,3.0489,3.0489,3.0258,2.9793,2.9143,2.8982,0.0,0.0,0.0,0.0,0.0,0.0,0.0,2.9951,3.0552,3.1062,3.1511,3.1424,3.1336,3.1307,3.122,3.1132,3.1102,3.1102,3.1102,0.0,0.0,0.0,0.0,0.0,0.0,3.1249,0.0,0.0,0.0,0.0,0.0,0.0,0.0,0.0,0.0,0.0,0.0,0.0,0.0,3.1395,3.1249,0.0,3.1132,3.1102,3.1102,3.122,3.1307,0.0,0.0,3.1511,3.1511,3.1511,3.1511,3.1511,3.1511,3.16,3.1839,3.2975,3.4031,0.0,0.0,0.0,3.9121,4.1246,4.2617,4.2617,4.3204,4.3598,4.3598,4.3598,4.3598,4.3598,4.3598,4.3598,4.3598,4.3598,4.3598,4.3598,4.3598,4.3598,4.3598,4.3598,4.3598,4.3598,4.3598,4.3598,4.3598,4.3598,4.3598,0.0,4.3598,4.3598,4.3598,4.3598,4.3598,4.3598,4.3598,4.3598,4.3658,0.0,0.0,0.0,0.0,0.0,0.0,0.0,2.9835,3.0107,3.002,3.0368,3.0654,3.0654,3.0654,3.0282,2.9393,0.0,0.0,0.0,0.0,0.0,0.0,0.0,0.0,3.0576,3.118,3.1511,3.1511,3.1511,3.1453,3.1307,3.1307,3.1249,3.1132,3.1161,3.119,3.119,0.0,0.0,0.0,3.1511,3.1511,0.0,0.0,0.0,0.0,0.0,0.0,0.0,0.0,0.0,0.0,0.0,0.0,0.0,0.0,0.0,0.0,0.0,3.122,3.1132,3.1132,3.122,3.1307,3.1307,0.0,0.0,3.1511,3.1511,3.1511,3.1511,3.1511,3.1749,3.2466,3.3543,3.4815,3.6199,3.7646,3.9033,4.0427,4.1819,4.2648,4.2617,4.3204,4.3598,4.3664,4.3664,4.3664,4.3664,4.3664,4.3631,4.3598,4.3598,4.3598,4.3598,4.3598,4.3598,4.3598,4.3598,4.3598,4.3598,4.3598,4.3598,4.3598,4.3598,4.3598,4.3598,4.3598,4.3598,4.3598,4.3598,4.3598,4.3598,4.3598,4.3598,4.3598,0.0,0.0,0.0,0.0,0.0,0.0,0.0,0.0,0.0,0.0,3.21,3.2166,3.2166,3.2166,3.1945,0.0,0.0,0.0,0.0,0.0,0.0,0.0,0.0,0.0,3.1178,3.1407,3.1511,3.1511,3.1511,3.1482,3.1453,3.1453,3.1453,3.1424,3.1881,3.2076,3.2079,3.1625,0.0,0.0,3.1511,3.1511,0.0,0.0,0.0,0.0,3.1511,3.1511,0.0,0.0,0.0,0.0,0.0,0.0,0.0,0.0,3.1511,3.1511,3.1482,0.0,3.1395,3.1395,3.1424,3.1453,0.0,0.0,0.0,0.0,0.0,3.1511,3.1511,3.1511,3.1894,3.3077,3.3514,3.4364,3.6137,3.8496,4.0319,4.1166,4.2522,4.3174,4.2648,4.3204,4.383,4.439,4.4423,4.4423,4.4423,4.4423,4.4191,4.3598,4.3598,4.3598,4.3598,4.3598,4.3598,4.3598,4.3598,4.3598,4.3598,4.3598,4.3598,4.3598,4.3598,4.3598,4.3598,4.3598,4.3598,4.3598,4.3598,4.3598,4.3598,4.3598,4.3598,4.3658,0.0,0.0,0.0,0.0,0.0,0.0,0.0,0.0,0.0,0.0,0.0,3.2718,3.2718,3.2718,0.0,0.0,0.0,0.0,0.0,0.0,0.0,0.0,0.0,3.2521,3.2226,3.2249,3.2299,3.2299,3.2299,3.2299,3.2299,3.2299,3.2299,3.2299,3.2355,3.2247,3.1966,3.1655,3.1511,3.1511,3.1511,0.0,0.0,0.0,0.0,0.0,3.1511,3.1511,0.0,3.1511,3.1511,3.1511,0.0,0.0,0.0,0.0,3.1511,3.1511,3.1511,3.1511,3.1511,3.1511,3.1511,3.1511,3.1511,0.0,0.0,0.0,0.0,3.1511,3.1511,3.175,3.2315,3.3331,3.4243,3.5614,3.7903,3.9817,4.1213,4.1917,4.2927,4.3479,4.3113,4.3682,4.4257,4.4655,4.4986,4.5052,4.4718,4.4688,4.4357,4.3598,4.3598,4.3598,4.3598,4.3598,4.3598,4.3598,4.3598,4.3598,4.3598,4.3598,4.3598,4.3598,4.3598,4.3598,4.3598,4.3598,4.3598,4.3598,4.3598,4.3598,4.3598,4.3598,4.3598,4.3628,0.0,0.0,0.0,0.0,0.0,0.0,0.0,0.0,0.0,0.0,0.0,0.0,0.0,0.0,0.0,0.0,0.0,0.0,0.0,0.0,0.0,0.0,3.357,3.3866,3.3371,3.3235,3.3182,3.3182,3.3182,3.3182,3.3182,3.3182,3.3182,3.3156,3.2547,3.2051,3.1625,3.1539,3.1511,3.1511,3.1511,0.0,0.0,0.0,0.0,0.0,0.0,0.0,0.0,3.1511,3.1511,3.1511,3.1511,0.0,0.0,0.0,0.0,0.0,3.1539,3.1511,3.1511,3.1511,3.1511,3.1511,3.1511,0.0,0.0,0.0,0.0,0.0,3.1689,3.2287,0.0,3.3818,3.5675,3.7841,4.0261,4.1213,4.1884,4.2522,4.3204,4.3602,4.3611,4.4263,4.4787,4.5019,4.5616,4.5649,4.4887,4.4854,4.4489,4.3631,4.3598,4.3598,4.3598,4.3598,4.3598,4.3598,4.3598,4.3598,4.3598,4.3598,4.3598,4.3598,4.3598,4.3598,4.3598,4.3598,4.3598,4.3598,4.3598,4.3598,4.3598,4.3598,4.3628,4.3658,0.0,0.0,0.0,0.0,0.0,0.0,0.0,0.0,0.0,0.0,0.0,0.0,0.0,0.0,0.0,0.0,0.0,0.0,0.0,0.0,0.0,3.4502,3.4235,3.4075,3.3942,3.3475,3.3182,3.3182,3.3182,3.3182,3.3182,3.3182,3.3182,3.3156,3.2104,3.1853,3.2247,3.171,3.1511,3.1511,3.1511,0.0,0.0,0.0,0.0,0.0,0.0,0.0,0.0,3.1511,3.1511,3.1511,3.1511,0.0,0.0,0.0,0.0,0.0,3.1625,3.1511,3.1511,3.1511,3.1511,3.1511,3.1511,0.0,0.0,0.0,0.0,0.0,0.0,3.3303,3.4511,3.5769,3.809,4.0167,4.1237,4.2007,4.2491,4.2585,4.3204,4.3619,4.3682,4.4315,4.5218,4.6477,4.6676,4.6411,4.5649,4.5616,4.5019,4.3631,4.3598,4.3598,4.3598,4.3598,4.3598,4.3598,4.3598,4.3598,4.3598,4.3598,4.3598,4.3598,4.3598,4.3598,4.3598,4.3598,4.3598,4.3598,4.3598,4.3598,4.3598,4.3598,4.3687,4.3868,0.0,0.0,0.0,0.0,0.0,0.0,0.0,0.0,0.0,0.0,0.0,0.0,0.0,0.0,0.0,0.0,0.0,0.0,0.0,0.0,3.4883,3.4883,3.4667,3.4521,3.4521,3.4267,3.4111,3.4111,3.3809,3.3809,3.4111,3.4111,3.3809,3.3182,3.2652,3.241,3.2355,3.1739,3.1511,3.1511,0.0,0.0,0.0,0.0,0.0,0.0,0.0,0.0,0.0,0.0,3.171,3.1938,3.1596,0.0,0.0,0.0,0.0,0.0,3.1966,3.1739,3.1653,3.2241,3.1936,3.1511,0.0,0.0,0.0,0.0,0.0,0.0,0.0,0.0,3.6058,3.7748,3.9377,4.0865,4.1973,4.2422,4.2741,4.3113,4.3779,4.4202,4.4255,4.5261,4.6179,4.6841,4.7272,4.7007,4.5847,4.5781,4.5119,4.3631,4.3598,4.3598,4.3598,4.3598,4.3598,4.3598,4.3598,4.3598,4.3598,4.3598,4.3598,4.3598,4.3598,4.3598,4.3598,4.3598,4.3598,4.3598,4.3717,4.3747,4.3747,4.3835,4.3864,4.3927,0.0,0.0,0.0,0.0,0.0,0.0,0.0,0.0,0.0,0.0,0.0,0.0,0.0,0.0,0.0,0.0,0.0,0.0,0.0,3.4883,3.4883,3.4883,3.4883,3.4883,3.4883,3.4883,3.4883,3.4883,3.4497,3.4497,3.4883,3.4763,3.4243,3.3423,3.3261,3.2975,3.2574,3.2076,3.1824,3.171,0.0,0.0,0.0,0.0,0.0,0.0,0.0,0.0,0.0,0.0,0.0,0.0,0.0,0.0,0.0,3.1992,3.191,3.1992,3.2465,3.2244,3.2104,3.2971,3.2434,0.0,0.0,0.0,0.0,0.0,0.0,0.0,0.0,3.6364,3.7738,3.9626,4.0515,4.1405,4.2676,4.2834,4.3084,4.38,4.4357,4.4821,4.5185,4.6245,4.6974,4.7139,4.7669,4.7371,4.5881,4.5781,4.5119,4.3631,4.3598,4.3598,4.3598,4.3598,4.3598,4.3598,4.3658,4.3658,4.3658,4.3717,4.3717,4.3717,4.3717,4.3717,4.3717,4.3717,4.3687,4.3687,4.3898,4.3956,4.3985,4.4097,4.4068,4.401,0.0,0.0,0.0,0.0,0.0,0.0,0.0,0.0,0.0,0.0,0.0,0.0,0.0,0.0,0.0,0.0,0.0,0.0,3.4883,3.4883,3.4883,3.4883,3.4883,3.4883,3.4883,3.4883,3.4883,3.4883,3.4859,3.4859,3.4883,3.4399,3.4126,3.4025,3.3449,3.3182,3.313,3.3077,3.2788,3.2358,3.2358,0.0,0.0,0.0,0.0,0.0,0.0,0.0,0.0,0.0,0.0,0.0,0.0,0.0,3.2492,3.2917,3.3077,3.3077,3.313,3.3103,3.3103,3.3182,3.2761,0.0,3.2358,3.2819,0.0,3.2675,0.0,0.0,0.0,3.7567,3.9745,4.1205,4.2004,4.2707,4.3416,4.3539,4.38,4.4522,4.4655,4.5218,4.6609,4.6841,4.7173,4.7868,4.7968,4.7371,4.5881,4.5781,4.5119,4.3631,4.3598,4.3598,4.3598,4.3598,4.3598,4.3598,4.3809,4.3868,4.3898,4.401,4.4068,4.4068,4.4068,4.4068,4.4068,4.4068,4.3981,4.3898,4.401,4.4068,4.4097,4.4241,4.4265,4.435,0.0,0.0,0.0,0.0,0.0,0.0,0.0,0.0,0.0,0.0,0.0,0.0,0.0,0.0,0.0,0.0,0.0,0.0,3.4883,3.4883,3.4883,3.4883,3.4987,3.5011,3.4883,3.4883,3.4883,3.4883,3.4883,3.4537,3.386,3.4341,3.4423,3.4101,3.3866,3.3764,3.3713,3.3002,3.2602,3.2355,3.1994,3.1682,0.0,0.0,0.0,0.0,0.0,0.0,0.0,0.0,3.2272,3.2598,3.2841,3.3166,3.3429,3.3266,3.3182,3.3261,3.3688,3.324,3.3043,3.4593,3.4276,0.0,0.0,3.3861,3.471,3.4887,3.602,0.0,0.0,4.0082,4.1547,4.2091,4.2775,4.349,4.4194,4.4291,4.4556,4.5284,4.5781,4.6278,4.6841,4.7305,4.7703,4.7968,4.8099,4.7435,4.5881,4.5939,4.5275,4.3631,4.3717,4.3809,4.3809,4.3809,4.3805,4.3923,4.3898,4.3898,4.3898,4.4039,4.4097,4.4097,4.4097,4.4097,4.4097,4.4097,4.4068,4.4039,4.4184,4.4207,4.427,4.4412,4.4412,4.4406,0.0,0.0,0.0,0.0,0.0,0.0,0.0,0.0,0.0,0.0,0.0,0.0,0.0,0.0,0.0,0.0,0.0,0.0,3.5001,3.5034,3.5034,3.5034,3.5081,3.5081,3.4987,3.4906,3.4883,3.4883,3.4883,3.4488,3.3758,3.4537,3.4691,3.4349,3.4349,3.4349,3.43,3.3533,3.3113,3.29,3.2492,3.2216,0.0,0.0,0.0,0.0,0.0,0.0,0.0,0.0,3.2895,3.3182,3.3182,3.3475,3.3764,3.3553,3.3371,3.3345,3.3917,3.3533,3.3377,3.5255,0.0,0.0,3.4691,3.5328,3.6055,3.6362,3.7224,3.8602,4.0673,0.0,4.2598,4.2808,4.3466,4.4125,4.4622,4.4887,4.5317,4.6046,4.6576,4.6974,4.7206,4.7735,4.8066,4.8066,4.8195,4.7626,4.6036,4.6093,4.5427,4.3809,4.3864,4.3985,4.3985,4.3985,4.4015,4.4097,4.4039,4.4044,4.401,4.4184,4.4241,4.4241,4.4241,4.4241,4.4241,4.4241,4.4241,4.4241,4.4298,4.4355,4.4412,4.4559,4.4497,4.4491,0.0,0.0,0.0,0.0,0.0,0.0,0.0,0.0,3.5152,3.5291,3.5291,0.0,0.0,0.0,0.0,0.0,3.5105,3.5175,3.5291,3.5291,3.5291,3.5291,3.5175,3.5105,3.5105,3.4987,3.4883,3.4883,3.4883,3.4883,3.4883,3.4883,3.4883,3.4883,3.4883,3.4883,3.4883,3.4916,3.4594,3.4101,3.4101,3.3739,3.3182,0.0,0.0,0.0,0.0,0.0,0.0,0.0,3.3209,3.3182,3.3209,3.3209,3.3345,3.3917,3.3656,3.3371,3.3975,3.4101,3.4262,3.4943,0.0,0.0,3.7194,3.7247,3.7081,3.6575,3.8047,4.0065,4.2137,4.2561,4.2834,4.3509,4.4224,4.4688,4.4688,4.5351,4.6079,4.6808,4.6908,4.7206,4.7934,4.8098,4.8195,4.8195,4.8388,4.7879,4.6374,4.6307,4.5637,4.4164,4.4097,4.4097,4.4097,4.4097,4.4097,4.4097,4.4241,4.4293,4.4293,4.4497,4.4615,4.4615,4.4615,4.4615,4.4615,4.4615,4.4615,4.4587,4.4384,4.444,4.4615,4.4615,4.4615,4.4748,0.0,0.0,0.0,0.0,0.0,0.0,0.0,0.0,3.5383,3.5463,3.5429,0.0,0.0,0.0,0.0,0.0,0.0,3.5268,3.5291,3.5222,3.5198,3.5291,3.5175,3.5105,3.5105,3.5081,3.4977,3.4883,3.4883,3.4883,3.4883,3.4883,3.4883,3.4883,3.4883,3.4883,3.4859,3.4537,3.4341,3.4136,3.3758,3.3495,3.3339,0.0,0.0,0.0,0.0,0.0,0.0,0.0,0.0,0.0,3.4136,3.4143,3.3942,3.4497,3.4546,3.444,3.4618,3.4093,3.3944,3.5978,0.0,0.0,0.0,3.9078,0.0,0.0,4.0798,4.177,4.2381,4.2921,4.3355,4.3568,4.4224,4.4854,4.5384,4.6113,4.6841,4.7603,4.7767,4.7898,4.813,4.8292,4.842,4.842,4.8612,4.8037,4.6374,4.6394,4.5723,4.4131,4.4212,4.427,4.427,4.427,4.4327,4.4474,4.4355,4.4293,4.4293,4.4497,4.4615,4.4615,4.4615,4.4615,4.4615,4.4615,4.4615,4.4615,4.4525,4.4559,4.4615,4.4615,4.4615,4.4748,0.0,0.0,0.0,0.0,0.0,0.0,0.0,0.0,3.5498,3.5543,3.5543,3.552,0.0,0.0,0.0,0.0,3.5406,3.5383,3.5429,3.5314,3.5314,3.5429,3.5268,3.5175,3.5175,3.5175,3.5152,3.5081,3.5081,3.5081,3.5081,3.5081,3.5081,3.5081,3.5081,3.5081,3.5058,3.4754,3.461,3.4537,3.426,3.4136,3.4086,0.0,0.0,0.0,0.0,0.0,0.0,0.0,0.0,0.0,3.4448,3.4497,3.4399,3.4267,3.421,3.4193,3.3935,3.377,3.4091,3.5967,3.6486,3.7162,3.9583,0.0,0.0,0.0,4.2175,4.2572,4.287,4.33,4.3698,4.3992,4.4716,4.5507,4.6271,4.7033,4.7696,4.8162,4.826,4.8324,4.8324,4.8483,4.861,4.861,4.85,4.7855,4.6585,4.6275,4.5597,4.4332,4.4384,4.4412,4.4412,4.4412,4.4468,4.4615,4.4468,4.4412,4.4412,4.4525,4.4615,4.4615,4.4615,4.4615,4.4615,4.4615,4.4615,4.4615,4.4615,4.4615,4.4643,4.4797,4.4776,4.4748,0.0,0.0,3.5475,3.5531,0.0,0.0,0.0,0.0,3.552,3.56,3.56,3.5577,0.0,0.0,0.0,0.0,3.5498,3.552,3.56,3.5543,3.552,3.56,3.5429,3.5314,3.5314,3.5314,3.5314,3.5314,3.5314,3.5291,3.5291,3.5291,3.5291,3.5291,3.5291,3.5291,3.5291,3.5314,3.5245,3.5152,3.5268,3.5245,3.5152,3.5268,0.0,0.0,0.0,0.0,0.0,0.0,0.0,0.0,3.4325,3.4472,3.4643,3.3681,3.3313,3.3214,3.2765,3.345,3.4496,3.5331,3.6923,3.8831,4.0945,4.0912,4.0878,4.2336,4.2601,4.2833,4.3495,4.3628,4.389,4.4649,4.5502,4.636,4.7126,4.7953,4.8515,4.8515,4.8515,4.8515,4.8515,4.8707,4.8801,4.8801,4.825,4.7597,4.6819,4.6109,4.5365,4.4615,4.4615,4.4615,4.4615,4.4615,4.4615,4.4615,4.4615,4.4615,4.4615,4.4615,4.4615,4.4615,4.4615,4.4615,4.4615,4.4615,4.4615,4.4615,4.4615,4.4643,4.472,4.5135,4.5062,4.4886,0.0,0.0,3.5498,3.5554,0.0,0.0,0.0,0.0,0.0,3.56,0.0,0.0,0.0,0.0,0.0,0.0,3.5577,3.5577,3.56,3.5543,3.552,3.56,3.552,3.5486,3.5486,3.5486,3.5475,3.5532,3.5383,3.5291,3.5291,3.5291,3.5291,3.5291,3.5291,3.5291,3.5314,3.5406,3.5429,3.544,3.5463,3.5429,3.5406,3.5314,3.5268,0.0,0.0,0.0,0.0,0.0,0.0,0.0,3.4618,3.4521,3.4325,3.4586,3.4317,3.3993,3.4391,3.4401,3.4685,3.6333,3.7906,3.9454,4.1044,4.1309,4.1607,4.3069,4.3485,4.3639,4.3805,4.3923,4.4244,4.4979,4.5745,4.648,4.7249,4.8048,4.8515,4.8515,4.8644,4.8738,4.8738,4.8863,4.8956,4.8956,4.8311,4.7597,4.6819,4.6109,4.5365,4.4615,4.4615,4.4615,4.4615,4.4615,4.4615,4.4615,4.4615,4.4615,4.4615,4.4615,4.4615,4.4615,4.4615,4.4615,4.4615,4.4615,4.4615,4.4615,4.4615,4.4824,4.5161,4.5267,4.5494,4.5835,0.0,0.0,0.0,0.0,0.0,0.0,0.0,0.0,0.0,0.0,0.0,0.0,0.0,3.56,0.0,0.0,3.56,3.56,3.56,3.5543,3.5498,3.5566,3.5566,3.5543,3.5543,3.5543,3.5554,3.56,3.5487,3.5418,3.5418,3.5418,3.5418,3.5418,3.5418,3.5418,3.5452,3.552,3.552,3.5475,3.552,3.552,3.5508,3.5475,3.5429,3.5383,0.0,0.0,0.0,0.0,0.0,0.0,0.0,0.0,3.4691,3.473,3.4513,3.4308,3.4716,3.5072,3.5743,3.7682,0.0,3.9707,4.1222,4.1554,4.1981,4.3535,4.3898,4.3927,4.3985,4.4039,4.4465,4.5567,4.6099,4.6797,4.7905,4.8438,4.8736,4.8736,4.8832,4.8894,4.8894,4.8956,4.9018,4.9018,4.8003,4.7225,4.6819,4.5771,4.4993,4.4615,4.4615,4.4615,4.4615,4.4615,4.4615,4.4615,4.4615,4.4615,4.4615,4.4615,4.4615,4.4615,4.4615,4.4615,4.4615,4.4615,4.4748,4.4934,4.4692,4.4906,4.5346,4.5571,4.5699,4.5775,0.0,0.0,0.0,0.0,0.0,0.0,0.0,0.0,0.0,0.0,0.0,0.0,0.0,3.56,3.56,0.0,0.0,0.0,3.56,3.5543,3.5498,3.5498,3.5554,3.56,3.56,3.56,3.56,3.56,3.56,3.56,3.56,3.56,3.56,3.56,3.5735,3.5825,3.5802,3.5938,3.596,3.5925,3.5982,3.596,3.5925,3.5982,0.0,0.0,0.0,3.5631,3.5505,3.5371,0.0,0.0,0.0,0.0,3.5389,3.4895,3.48,3.4823,3.5001,3.5811,3.7059,3.8871,3.9255,0.0,4.1305,4.1722,4.2183,4.3796,4.4039,4.3981,4.4126,4.4155,4.462,4.5995,4.6417,4.7016,4.8461,4.8858,4.9018,4.9018,4.9018,4.9018,4.9018,4.9018,4.9018,4.9018,4.7631,4.6786,4.6786,4.5427,4.4615,4.4615,4.4615,4.4615,4.4615,4.4615,4.4615,4.4615,4.4615,4.4615,4.4615,4.4615,4.4615,4.4615,4.4615,4.4615,4.4615,4.4615,4.4879,4.5267,4.4879,4.5008,4.5494,4.6024,4.595,4.5699,0.0,0.0,0.0,0.0,0.0,0.0,0.0,0.0,0.0,0.0,3.56,3.56,3.56,3.56,3.56,3.56,3.56,3.56,3.56,0.0,0.0,3.5577,3.56,3.56,3.56,3.56,3.56,3.56,3.56,3.56,3.56,3.56,3.56,3.5633,3.6332,3.666,3.6694,3.7313,3.7594,3.7594,3.7594,3.7594,3.7594,0.0,0.0,0.0,0.0,0.0,3.635,3.5687,3.5383,0.0,0.0,0.0,3.6252,3.63,3.6339,3.651,3.7095,0.0,3.7853,0.0,3.9175,3.9347,0.0,4.181,4.2323,4.3933,4.4236,4.4236,4.4265,4.4412,4.4801,4.5645,4.6321,4.706,4.7875,4.8582,4.9018,4.9018,4.9018,4.9018,4.9018,4.9018,4.9018,4.9018,4.7631,4.6786,4.6786,4.5427,4.4615,4.4615,4.4615,4.4615,4.4615,4.4615,4.4615,4.4615,4.4615,4.4615,4.4615,4.4615,4.4615,4.4615,4.4615,4.4615,4.4615,4.4615,4.4879,4.5285,4.5241,4.5554,4.6049,4.6613,4.6753,4.6707,0.0,0.0,0.0,0.0,0.0,0.0,0.0,0.0,0.0,0.0,0.0,3.56,3.56,3.56,3.56,3.56,3.56,3.56,3.56,3.56,3.56,3.56,3.56,3.56,3.56,3.56,3.56,3.56,3.56,3.5836,3.6265,3.6265,3.6265,3.6299,3.666,3.7032,3.7449,3.7753,3.7922,3.7922,3.7922,3.7922,0.0,0.0,0.0,0.0,0.0,0.0,0.0,3.6973,3.6824,3.6744,3.6744,0.0,0.0,0.0,3.7355,3.7519,3.8152,3.8563,3.893,0.0,3.9468,3.9754,4.1525,4.1969,4.2488,4.4136,4.4468,4.4468,4.4468,4.4525,4.4852,4.5568,4.5974,4.6583,4.7736,4.8206,4.8545,4.8951,4.9018,4.9018,4.9018,4.9018,4.8849,4.8409,4.7394,4.6616,4.621,4.519,4.4615,4.4615,4.4615,4.4615,4.4615,4.4615,4.4615,4.4615,4.4615,4.4615,4.4615,4.4615,4.4615,4.4615,4.4879,4.4852,4.4643,4.4879,4.5294,4.5724,4.5425,4.58,4.659,4.6799,4.689,4.6913,0.0,0.0,0.0,0.0,0.0,0.0,0.0,0.0,0.0,0.0,0.0,3.56,3.56,0.0,0.0,0.0,3.56,3.56,3.56,3.56,3.56,3.56,3.56,3.56,3.56,3.56,3.56,3.56,3.5802,3.6197,3.6795,3.6998,3.7202,0.0,3.7371,3.7652,3.8193,3.8396,3.8464,3.8464,0.0,0.0,0.0,0.0,0.0,0.0,0.0,0.0,0.0,0.0,3.7922,3.7922,3.7922,3.8024,0.0,0.0,0.0,3.8541,3.9016,0.0,3.9625,3.9729,3.9677,4.0019,0.0,4.2132,4.2625,4.4248,4.4615,4.4615,4.4615,4.4615,4.4784,4.5331,4.5568,4.6075,4.7162,4.75,4.7834,4.8376,4.8443,4.8511,4.8714,4.8545,4.8308,4.7906,4.7056,4.6278,4.5737,4.4993,4.4615,4.4615,4.4615,4.4615,4.4615,4.4615,4.4637,4.4803,4.4637,4.4637,4.4742,4.4637,4.4665,4.4769,4.5135,4.5196,4.4988,4.5214,4.5699,4.6244,4.5699,4.6074,4.6926,4.7062,4.7017,4.6994,0.0,0.0,0.0,0.0,0.0,0.0,0.0,0.0,0.0,0.0,0.0,3.56,3.56,3.56,3.56,3.56,3.56,3.56,3.56,3.56,3.56,3.56,3.56,0.0,3.56,3.56,3.56,3.56,3.6366,3.6761,3.6829,3.7516,3.8227,3.887,3.887,3.8903,3.8971,0.0,0.0,0.0,0.0,0.0,0.0,0.0,0.0,0.0,0.0,0.0,0.0,0.0,3.7922,3.7922,3.7922,3.8396,3.8937,0.0,0.0,0.0,0.0,3.9636,0.0,3.9781,3.954,3.9721,4.1688,4.2179,4.2726,4.4276,4.4615,4.4615,4.4615,4.4615,4.4615,4.4649,4.5229,4.5737,4.5805,4.6413,4.6853,4.6921,4.6921,4.7192,4.7872,4.7327,4.7192,4.7838,4.6583,4.5737,4.5703,4.4993,4.4615,4.4615,4.4615,4.4615,4.4615,4.4615,4.4824,4.5267,4.4797,4.4824,4.5241,4.4797,4.4824,4.5267,4.5294,4.5571,4.5975,4.5494,4.59,4.6799,4.6269,4.6389,4.6972,4.745,4.7341,4.6994,0.0,0.0,0.0,0.0,0.0,0.0,0.0,0.0,0.0,0.0,0.0,0.0,0.0,3.6366,3.6163,3.5633,3.56,3.56,3.56,3.56,3.56,3.56,3.56,3.56,3.56,3.6096,3.6366,3.6366,3.711,3.7753,3.8193,3.8464,3.9005,3.9706,3.9208,3.9242,3.974,4.0011,0.0,0.0,0.0,0.0,0.0,0.0,0.0,0.0,0.0,0.0,0.0,0.0,0.0,3.9309,3.9309,3.9503,3.9706,3.9706,3.991,0.0,0.0,0.0,0.0,3.9986,3.9876,4.0068,4.1268,4.1922,4.2591,4.3606,4.4215,4.4615,4.4615,4.4615,4.4615,4.4615,4.4818,4.5162,4.5635,4.594,4.6278,4.6718,4.6786,4.6887,4.7158,4.6955,4.6718,4.6515,4.6007,4.55,4.5026,4.475,4.4615,4.4615,4.4615,4.4615,4.4615,4.4615,4.4824,4.532,4.5108,4.532,4.58,4.5267,4.5528,4.6293,4.595,4.5925,4.6098,4.6244,4.6566,4.6868,4.6683,4.6949,4.7428,4.7636,4.7636,4.7572,0.0,0.0,0.0,0.0,0.0,3.7922,3.7922,3.7922,3.7922,3.7922,0.0,0.0,0.0,0.0,3.6941,3.6411,3.6377,3.6377,3.6377,3.6377,3.6377,3.6377,3.6377,3.6377,3.6377,3.6637,3.6931,3.7168,3.7652,3.8294,0.0,3.9242,3.9639,4.0079,3.9605,3.9639,0.0,0.0,0.0,4.0113,0.0,0.0,4.0113,0.0,0.0,0.0,4.0113,4.0113,4.0113,4.0113,0.0,4.0113,4.0113,4.0113,4.0113,4.0113,4.0113,0.0,4.0113,0.0,0.0,0.0,4.0113,4.0282,4.1035,4.1779,4.2489,4.3267,4.4045,4.4615,4.4615,4.4615,4.4615,4.4615,4.4615,4.4784,4.5263,4.5331,4.55,4.5974,4.6041,4.6143,4.6413,4.621,4.594,4.5737,4.5466,4.5128,4.4649,4.4615,4.4615,4.4615,4.4615,4.4615,4.4615,4.4776,4.5089,4.5571,4.5571,4.585,4.6341,4.58,4.6049,4.6868,4.6543,4.6495,4.666,4.6903,4.7084,4.7196,4.7039,4.7298,4.7777,4.7777,4.7819,4.7881,0.0,0.0,3.7956,3.7956,3.7956,3.7956,3.7956,3.7956,3.7956,3.7956,0.0,0.0,0.0,0.0,0.0,3.7922,3.7922,3.7922,3.7922,3.7922,3.7922,3.7922,3.7922,3.7922,3.7922,3.7212,3.7235,3.7922,3.7956,3.8328,0.0,0.0,4.0113,4.0146,4.0146,4.0146,4.018,4.0146,4.0146,4.018,0.0,4.018,4.018,0.0,0.0,4.018,4.0146,4.0146,4.0146,4.0113,0.0,0.0,4.0113,4.0113,4.0113,4.0113,0.0,0.0,0.0,0.0,0.0,0.0,4.0113,4.0282,4.1001,4.1745,4.2489,4.3234,4.4012,4.4581,4.4615,4.4615,4.4615,4.4615,4.4615,4.4615,4.4615,4.4615,4.4615,4.4615,4.4615,4.4857,4.5602,4.5026,4.4919,4.5602,4.4993,4.4615,4.4615,4.4615,4.4615,4.4615,4.4615,4.4615,4.4615,4.5062,4.5571,4.6098,4.6098,4.6424,4.689,4.6365,4.6412,4.6913,4.6926,4.7232,4.7714,4.7334,4.7464,4.7897,4.7377,4.7464,4.7938,4.7902,4.7902,4.7922,0.0,0.0,3.9503,3.9503,3.9503,3.9503,3.9503,3.9503,3.9503,0.0,0.0,0.0,0.0,0.0,3.7922,3.7922,3.7922,3.7922,3.7922,3.7922,3.7922,3.7922,3.7922,3.7922,3.7922,3.8227,3.8464,3.87,0.0,0.0,0.0,0.0,0.0,0.0,4.0899,4.117,4.167,4.1102,0.0,4.1677,4.1677,4.1677,4.1677,4.1677,4.1677,4.161,4.1068,4.0899,4.0798,4.0282,4.0113,4.0113,0.0,0.0,0.0,0.0,0.0,0.0,4.0113,0.0,0.0,0.0,0.0,0.0,4.0383,4.0967,4.1711,4.2455,4.32,4.391,4.4513,4.4615,4.4615,4.4615,4.4615,4.4615,4.4615,4.4615,4.4615,4.4615,4.4615,4.4682,4.4857,4.4716,4.4682,4.4886,4.4716,4.4615,4.4615,4.4615,4.4615,4.4615,4.4615,4.4615,4.4615,4.5062,4.5571,4.6098,4.6495,4.7017,4.7615,4.7062,4.7138,4.7705,4.7925,4.8287,4.8764,4.8596,4.8638,4.8842,4.868,4.8701,4.879,4.8207,4.8028,4.8088,4.0113,4.0113,4.0113,4.0113,4.0113,4.0113,4.0113,4.0113,4.0113,0.0,0.0,0.0,0.0,0.0,0.0,3.8802,3.8802,3.8802,3.8802,3.8802,3.8802,3.8802,3.8802,3.8802,3.8802,3.8937,0.0,0.0,0.0,0.0,0.0,0.0,0.0,0.0,4.1644,4.2083,4.2726,4.232,4.2185,4.2286,4.2286,4.2286,4.2286,4.2286,4.2286,4.2219,4.1813,4.1644,4.1576,4.1162,4.1027,0.0,0.0,0.0,0.0,0.0,0.0,0.0,0.0,0.0,0.0,0.0,0.0,0.0,4.0113,4.0663,4.1407,4.2151,4.2895,4.3673,4.4479,4.4615,4.4615,4.4615,4.4615,4.4615,4.4615,4.4615,4.4615,4.4615,4.4615,4.4615,4.4615,4.4615,4.4615,4.4615,4.4615,4.4615,4.4615,4.4615,4.4692,4.4879,4.4906,4.5015,4.5222,4.5734,4.6123,4.6448,4.7039,4.7529,4.7881,4.76,4.7829,4.8502,4.8669,4.9132,4.9804,5.0091,5.0055,4.9768,4.9768,4.9768,4.9695,4.8855,4.864,4.8663,0.0,4.0113,4.0113,4.0113,4.0113,4.0113,4.0113,4.0113,4.0113,0.0,0.0,0.0,0.0,0.0,0.0,0.0,4.0113,4.0113,4.0113,4.0113,4.0113,4.0113,4.0113,4.0113,4.0113,3.9512,0.0,0.0,0.0,0.0,0.0,0.0,0.0,0.0,4.2422,4.2828,4.3511,4.3511,4.3166,4.2584,4.2584,4.2584,4.2584,4.2584,4.2584,4.2523,4.2455,4.2422,4.2388,4.232,4.2286,0.0,0.0,0.0,0.0,0.0,4.1847,0.0,0.0,0.0,0.0,0.0,4.018,0.0,4.0113,4.0595,4.1305,4.2016,4.2692,4.3403,4.4209,4.4344,4.4378,4.4445,4.4479,4.4513,4.4581,4.4615,4.4615,4.4615,4.4615,4.4615,4.4615,4.4615,4.4615,4.4615,4.4615,4.4615,4.4615,4.4615,4.4797,4.5294,4.5285,4.5571,4.6098,4.6683,4.6936,4.6936,4.7615,4.7922,4.7943,4.8081,4.8559,4.9273,4.9419,4.9992,5.0806,5.1632,5.1486,5.0769,5.0769,5.0769,5.0659,4.9854,4.9504,4.9342,4.0113,4.0113,4.0113,4.0113,4.0113,4.0113,4.0113,4.0113,4.0113,4.0113,4.0113,0.0,0.0,0.0,0.0,0.0,0.0,4.0113,4.0113,4.0113,4.0113,4.0113,4.0113,4.0113,4.0113,4.0527,4.0832,0.0,0.0,0.0,0.0,0.0,0.0,0.0,4.32,4.3606,4.4378,4.4378,4.4276,4.4175,4.4175,4.4175,4.4175,4.4175,4.4175,4.4073,4.3436,4.32,4.3071,4.2489,4.2286,4.2286,0.0,0.0,0.0,4.2286,0.0,0.0,0.0,0.0,0.0,0.0,4.0527,0.0,4.0113,4.0214,4.0493,4.1271,4.1542,4.188,4.2591,4.2753,4.2929,4.3538,4.3639,4.3876,4.4513,4.4615,4.4615,4.4615,4.4615,4.4615,4.4615,4.4615,4.4615,4.4615,4.4615,4.4615,4.4615,4.4615,4.4797,4.5294,4.539,4.5724,4.6244,4.6855,4.7146,4.7168,4.771,4.8048,4.8165,4.8842,4.9268,4.9588,5.0888,5.1568,5.1809,5.2595,5.2449,5.1736,5.1736,5.1736,5.1626,5.0798,5.0121,4.9534,4.1196,4.1196,4.1196,4.1196,4.1196,4.1196,4.1196,4.1196,4.1196,4.1196,4.1196,0.0,0.0,0.0,0.0,0.0,0.0,0.0,0.0,0.0,4.1196,4.1196,4.1196,4.1196,4.1196,4.1542,4.1745,0.0,0.0,0.0,0.0,0.0,0.0,0.0,0.0,0.0,4.4615,4.4615,4.4615,4.4615,4.4615,4.4615,4.4615,4.4615,4.4615,4.4547,4.4147,4.4012,4.3944,4.3572,4.3464,4.3464,4.3464,4.3464,4.3464,0.0,4.3166,4.2861,0.0,0.0,0.0,4.1745,4.1474,0.0,0.0,4.0629,4.073,4.1136,4.1204,4.1441,4.2151,4.2286,4.2422,4.2794,4.3139,4.3436,4.3436,4.4141,4.4615,4.4615,4.4615,4.4615,4.4615,4.4615,4.4615,4.4615,4.4615,4.4615,4.4615,4.4824,4.5222,4.5775,4.6123,4.6554,4.716,4.7464,4.7611,4.7611,4.7951,4.8367,4.8809,4.9308,4.9955,5.0859,5.1646,5.2234,5.2637,5.3041,5.2968,5.2601,5.2601,5.2601,5.2491,5.1683,5.1132,5.0675,4.2354,4.2286,4.2286,4.2286,4.2286,4.2286,4.2286,4.2286,4.2286,4.2286,0.0,0.0,0.0,0.0,0.0,0.0,0.0,0.0,0.0,0.0,4.2286,4.2286,4.2286,4.2286,4.2286,4.2422,4.2489,4.2489,0.0,0.0,0.0,0.0,0.0,0.0,0.0,0.0,0.0,0.0,4.4615,4.4615,4.475,4.4818,4.4852,4.4987,4.5021,4.5021,4.5021,4.5021,4.5021,4.5021,4.5021,4.5021,4.4886,4.4818,0.0,0.0,0.0,0.0,0.0,0.0,0.0,0.0,4.2388,4.2117,0.0,0.0,0.0,4.1407,4.1305,4.1373,4.1982,4.1948,4.1914,4.2049,4.2591,4.2828,4.2354,4.3369,4.4175,4.4175,4.4412,4.4547,4.4378,4.4513,4.4615,4.4615,4.4643,4.4643,4.4643,4.5115,4.5673,4.6317,4.6868,4.7457,4.8032,4.8052,4.8052,4.8052,4.8187,4.8666,4.9451,4.9698,5.0639,5.2013,5.216,5.2601,5.3203,5.3203,5.3203,5.3203,5.3203,5.3203,5.3093,5.2454,5.2123,5.1793,4.2557,4.2286,4.2286,4.2286,4.2286,4.2286,4.2286,4.2286,0.0,0.0,0.0,0.0,0.0,0.0,0.0,0.0,0.0,0.0,4.2286,4.2286,0.0,4.2286,4.2286,4.2286,4.2286,4.2963,4.3274,4.3274,0.0,0.0,0.0,0.0,0.0,0.0,4.4615,0.0,0.0,0.0,4.4615,4.4682,4.5297,4.5568,4.5635,4.6278,4.6549,4.6549,4.6549,4.6549,4.6549,4.6549,4.6549,4.6413,0.0,4.5568,4.5466,4.4818,0.0,0.0,0.0,0.0,0.0,4.3328,4.2794,4.2286,4.2185,0.0,4.2185,4.2185,0.0,4.1238,4.1305,0.0,0.0,4.1204,4.1407,4.1644,4.2219,4.2455,4.2557,4.2557,4.3768,4.4316,4.3606,4.4181,4.4615,4.4615,4.4692,4.4776,4.4776,4.532,4.59,4.6472,4.7057,4.7611,4.8168,4.8229,4.8267,4.8267,4.8287,4.8727,4.9591,5.0325,5.1132,5.205,5.2747,5.3115,5.3203,5.3203,5.3203,5.3203,5.3203,5.3203,5.3167,5.3093,5.2601,5.1977,4.3768,4.3633,4.3633,4.3633,4.3633,4.3633,4.3633,4.3633,0.0,0.0,0.0,0.0,4.3633,4.3633,4.3633,4.3633,4.3633,4.3633,4.3633,4.3633,0.0,4.3633,4.3633,4.3633,4.3633,4.3944,4.4079,4.4079,4.4418,0.0,0.0,0.0,0.0,0.0,4.4615,4.4615,4.4649,4.506,4.5229,4.5331,4.6515,4.6989,4.6989,4.6853,4.6786,4.6786,4.6786,4.6786,4.6786,4.6786,4.6786,4.6752,0.0,0.0,0.0,4.5495,0.0,0.0,0.0,0.0,0.0,4.4354,4.4034,4.3668,4.3306,4.3151,4.3022,4.266,0.0,0.0,0.0,0.0,0.0,0.0,4.1256,4.117,4.106,4.1745,4.2286,4.2286,4.2861,4.3301,4.3375,4.3389,4.3776,4.4625,4.4422,4.4597,4.5294,4.5885,4.6436,4.7013,4.7569,4.8012,4.8285,4.8287,4.8306,4.8306,4.8306,4.9003,5.0288,5.0655,5.1499,5.2711,5.3078,5.3203,5.3203,5.3203,5.3203,5.3203,5.3203,5.3203,5.3203,5.3203,5.3004,5.2637,4.5224,0.0,4.4615,4.4615,4.4615,4.4615,4.4615,4.4615,4.4682,4.4857,4.4919,4.4987,4.519,4.5224,4.5224,4.5224,4.5224,4.5224,4.5224,4.5224,4.5122,4.4891,4.4919,4.4818,4.4615,4.4615,4.4615,4.4615,4.4615,0.0,0.0,0.0,0.0,0.0,0.0,4.5224,4.5258,4.5771,4.6007,4.6109,4.7394,4.8007,4.8142,4.7597,4.7394,4.7394,4.7394,4.7394,4.7394,4.7394,4.7424,4.742,4.7217,4.7204,4.7126,0.0,0.0,0.0,4.558,4.5384,4.535,4.5296,4.5077,4.4749,4.4312,4.4129,4.3958,4.364,4.3348,0.0,0.0,0.0,0.0,0.0,0.0,4.1298,4.0777,4.1435,4.1903,4.1756,4.1985,4.2392,4.3139,4.2811,4.3129,4.445,4.4175,4.4492,4.5689,4.6293,4.6855,4.7428,4.7935,4.8265,4.8306,4.8306,4.8306,4.8306,4.8306,4.9187,5.0802,5.0802,5.1683,5.3203,5.3203,5.3203,5.3203,5.3203,5.3203,5.3203,5.3203,5.3203,5.3203,5.3203,5.3203,5.3093,4.6718,4.5596,0.0,4.4615,4.4615,4.4615,4.4615,4.4615,4.4886,4.5568,4.5669,4.594,4.665,4.6718,4.6718,4.6718,4.6718,4.6718,4.6718,4.6718,4.6413,4.5703,4.5669,4.5331,4.4615,4.4615,4.4615,4.4615,4.4615,0.0,0.0,0.0,0.0,0.0,4.6413,4.6718,4.6718,4.6752,4.6752,4.6819,4.7597,4.8342,4.8951,4.8951,4.8951,4.8951,4.8951,4.8951,4.8951,4.8951,4.9009,4.8995,4.8277,4.8073,4.7903,0.0,0.0,0.0,4.6946,4.6601,4.6213,4.611,4.5535,4.4961,4.4988,4.4961,4.5089,4.5536,4.4673,4.4018,4.4485,0.0,0.0,0.0,0.0,0.0,0.0,4.1592,4.0965,4.043,4.1103,4.1929,4.2646,4.2714,4.3048,4.3868,4.4034,4.4613,4.5815,4.6543,4.7093,4.7591,4.8055,4.8287,4.8306,4.8306,4.8306,4.8306,4.8306,4.9187,5.0802,5.0802,5.1683,5.3203,5.3203,5.3203,5.3203,5.3203,5.3203,5.3203,5.3203,5.3203,5.3203,5.3203,5.3203,5.3203,4.6786,4.638,4.6041,4.6041,4.6041,4.6041,4.6041,4.6041,4.6143,4.638,4.6413,4.6515,4.6752,4.6786,4.6786,4.6786,4.6786,4.6786,4.6786,4.6786,4.6684,4.6447,4.6413,4.6312,4.6041,4.6041,4.6041,4.6041,0.0,0.0,0.0,0.0,0.0,0.0,0.0,4.6786,4.6819,4.7327,4.753,4.7597,4.8342,4.9086,4.9661,4.9187,4.908,4.9138,4.9138,4.9138,4.9138,4.9138,4.9168,4.9165,4.8893,4.9005,4.8983,4.8177,4.8054,4.8123,4.7501,4.7305,4.7238,4.7182,4.6481,4.5905,4.602,4.5589,4.531,4.592,4.5685,4.5561,4.6035,0.0,0.0,0.0,0.0,0.0,0.0,4.1866,4.1047,4.0607,4.0749,4.1283,4.2324,4.1783,4.2024,4.3588,4.3577,4.4188,4.5693,4.6491,4.7248,4.8035,4.8229,4.8306,4.8306,4.8306,4.8306,4.8306,4.8306,4.9187,5.0802,5.0802,5.1683,5.3203,5.3203,5.3203,5.3203,5.3203,5.3203,5.3203,5.3203,5.3203,5.3203,5.3203,5.3203,5.3203,4.7564,4.7564,4.7428,4.6887,4.6786,4.6786,4.6786,4.6786,4.6887,4.7158,4.7192,4.7394,4.7902,4.797,4.8071,4.8342,4.8376,4.8376,4.8376,4.8105,4.7834,4.7597,4.7327,4.7056,4.6786,4.6786,4.6786,0.0,0.0,4.6786,0.0,0.0,0.0,0.0,0.0,4.7564,4.7597,4.8105,4.8308,4.8376,4.9182,4.9788,5.0161,5.002,4.9952,4.9918,4.9709,4.9637,4.9637,4.9699,4.9555,4.9381,4.9381,4.953,4.9576,4.9042,4.8958,4.8999,4.8432,4.818,4.8086,4.8086,4.7444,4.6832,4.6948,4.6435,4.6057,4.6515,4.6526,4.6483,4.6625,0.0,0.0,0.0,0.0,0.0,0.0,4.2946,4.2141,4.1707,4.1056,4.0948,4.1741,4.1336,4.1544,4.2936,4.327,4.4084,4.5619,4.6462,4.7313,4.8267,4.8306,4.8306,4.8306,4.8306,4.8306,4.8306,4.8306,4.9187,5.0802,5.0802,5.1683,5.3203,5.3203,5.3203,5.3203,5.3203,5.3203,5.3203,5.3203,5.3203,5.3203,5.3203,5.3209,5.323,4.9018,4.9018,4.8545,4.7158,4.6887,4.6887,4.6887,4.6921,4.7192,4.7936,4.8041,4.8612,4.9999,5.0135,5.0439,5.115,5.1185,5.1185,5.1185,5.0541,4.983,4.9154,4.8443,4.7733,4.6955,4.6955,0.0,0.0,0.0,0.0,0.0,0.0,0.0,0.0,4.8714,0.0,4.9018,4.9018,4.9018,4.9151,5.0048,5.0484,5.062,5.1455,5.1605,5.1249,5.0694,5.0484,5.0484,5.0602,5.0275,4.9811,4.9811,4.9777,4.9777,4.9777,4.9742,4.9708,4.9708,4.9309,4.8844,4.8844,4.8293,4.7769,4.7796,4.7543,4.7312,4.7352,4.7145,4.6801,4.6339,0.0,0.0,0.0,0.0,0.0,0.0,0.0,4.3976,4.3462,4.2028,4.1045,4.0989,4.1288,4.1648,4.1992,4.3079,4.4283,0.0,4.6413,4.7299,4.8267,4.8306,4.8306,4.8306,4.8306,4.8306,4.8306,4.8306,4.9187,5.0802,5.0802,5.1683,5.3203,5.3203,5.3203,5.3203,5.3203,5.3203,5.3203,5.3188,5.3225,5.3188,5.3225,5.3251,5.3297,4.9018,4.9018,4.8883,4.8511,4.8443,4.8443,4.8443,4.8883,4.9323,4.9492,5.0033,5.0507,5.0879,5.0913,5.1014,5.1151,5.1185,5.1185,5.1185,5.1048,5.0845,5.0642,5.0441,5.0033,4.9255,4.9255,4.8984,4.8443,0.0,0.0,4.8443,0.0,0.0,0.0,0.0,4.9018,4.9018,4.9107,4.9535,5.0233,5.0434,5.1219,5.2209,5.1928,5.2411,5.3132,5.1993,5.1483,5.139,5.1607,5.1531,5.139,5.139,5.1103,5.0745,5.0745,5.0366,4.9918,4.9918,4.9809,4.97,4.97,4.9114,4.864,4.9009,4.8317,4.7639,4.7842,4.751,4.7227,4.7245,4.7356,0.0,0.0,0.0,0.0,0.0,0.0,4.461,4.3534,4.3235,4.2934,4.2425,4.186,4.1692,4.2121,4.2665,4.353,4.4807,4.5932,4.7093,4.825,4.8306,4.8306,4.8306,4.8306,4.8306,4.8306,4.8306,4.9187,5.0802,5.0802,5.1683,5.3203,5.3203,5.3203,5.3203,5.3203,5.3203,5.3188,5.3235,5.3355,5.3416,5.3297,5.3339,5.344,4.9965,4.9965,4.9965,4.9965,4.9965,4.9864,4.9526,5.0101,5.0574,5.0574,5.0947,5.132,5.1657,5.1691,5.1826,5.2198,5.2232,5.2232,5.2232,5.1894,5.1691,5.1691,5.1386,5.1014,5.0574,5.0574,0.0,4.9492,0.0,0.0,4.9018,0.0,0.0,0.0,0.0,4.9018,4.9018,4.9511,5.0147,5.0924,5.1449,5.2195,0.0,5.2975,5.3455,5.4008,5.3341,5.2763,5.233,5.2551,5.2406,5.2066,5.2066,5.1851,5.1597,5.1597,5.108,5.0552,5.0777,5.042,5.0068,5.0291,4.9831,4.9463,5.0002,4.9486,4.8914,4.9078,4.8485,4.7925,4.7823,4.768,0.0,0.0,0.0,0.0,0.0,0.0,4.5816,4.5108,4.4865,4.4633,4.4253,4.2909,4.2062,4.2175,4.2654,4.3521,4.4854,4.5874,4.6977,4.825,4.8306,4.8306,4.8306,4.8306,4.8306,4.8306,4.8673,4.9554,5.0802,5.1169,5.2013,5.3203,5.3203,5.3203,5.3203,5.3203,5.3209,5.3272,5.3339,5.3461,5.3578,5.3518,5.3538,5.3578,5.0989,5.112,5.1185,5.1185,5.1285,5.115,5.0473,5.0947,5.132,5.132,5.1454,5.1758,5.2401,5.2469,5.2739,5.345,5.3518,5.3518,5.3518,5.2841,5.2469,5.2469,5.186,5.1454,5.1352,5.132,5.098,0.0,0.0,0.0,0.0,0.0,0.0,0.0,0.0,0.0,0.0,5.0187,5.09,5.1549,5.2675,5.3112,5.3188,5.4126,5.4399,5.4271,5.4431,5.3986,5.3275,5.3466,5.308,5.2498,5.2498,5.2429,5.236,5.236,5.1839,5.1307,5.1682,5.1059,5.0345,5.062,5.0397,5.0263,5.0776,5.0661,5.0456,5.0521,4.9716,4.8878,4.8419,4.8085,0.0,0.0,0.0,0.0,0.0,0.0,0.0,0.0,4.6525,0.0,4.592,4.4088,4.2745,4.2491,4.2956,4.3858,4.522,4.5949,4.6928,4.825,4.8306,4.8306,4.8306,4.8306,4.8306,4.8306,4.9187,4.9994,5.0839,5.163,5.2438,5.3209,5.3209,5.323,5.323,5.323,5.3293,5.3359,5.3461,5.3598,5.3733,5.3733,5.3733,5.3714,5.0088,5.0759,5.1185,5.1185,5.1725,5.2063,5.1928,5.2029,5.2097,5.2097,5.2706,5.3145,5.3281,5.3281,5.3348,5.3484,5.3518,5.3518,5.3518,5.3382,5.3281,5.3281,5.3179,5.2807,5.2131,5.2097,5.1758,0.0,0.0,0.0,0.0,0.0,0.0,0.0,0.0,0.0,5.1068,5.1235,5.187,5.2775,5.3006,5.3547,5.4227,5.4428,5.4463,5.4431,5.4463,5.4299,5.4033,5.4259,5.4218,5.4115,5.4115,5.3701,5.3184,5.3184,5.2632,5.1908,5.1371,5.1413,5.1333,5.0373,5.0397,5.0803,5.1322,5.106,5.0777,5.1009,5.0556,5.002,4.9717,4.9425,0.0,0.0,0.0,0.0,4.8306,4.8196,0.0,0.0,4.7226,4.6948,4.5993,4.4665,4.3808,4.3763,4.3293,4.3657,4.524,4.575,4.669,4.8269,4.8306,4.8306,0.0,4.8306,4.8306,4.8306,4.9187,4.9994,5.0839,5.1674,5.2524,5.3277,5.338,5.3457,5.3457,5.3457,5.3518,5.3617,5.3674,5.3716,5.3793,5.3793,5.3793,5.3793,5.1142,5.1866,5.2401,5.2401,5.2706,5.2909,5.2909,5.2909,5.2909,5.2909,5.3281,5.3518,5.3518,5.3518,5.3518,5.3518,5.3518,5.3518,5.3518,5.3518,5.3518,5.3518,5.3518,5.3315,5.2942,5.2909,5.2536,5.1792,5.1792,0.0,0.0,0.0,0.0,0.0,0.0,5.1308,0.0,5.2181,5.275,5.3562,5.3658,5.3928,5.4367,5.4463,5.4494,5.4494,5.4494,5.4431,5.4367,5.4463,5.4494,5.4494,5.4494,5.4253,5.3977,5.3977,5.3425,5.2796,5.2745,5.2304,5.1828,5.147,5.1299,5.1347,5.1873,5.1799,5.1741,5.2126,5.1466,5.0672,5.0126,4.9804,4.9463,4.904,4.86,4.8306,4.8306,4.8306,4.8159,0.0,0.0,0.0,4.7186,4.6229,4.5494,4.5057,4.4103,4.4319,4.6151,4.6011,4.6654,0.0,0.0,0.0,4.8306,0.0,4.8306,4.8306,4.9649,5.0498,5.0902,5.2217,5.3031,5.34,5.3461,5.3481,5.3501,5.3578,5.3617,5.3714,5.3735,5.3774,5.3794,5.3794,5.3794,5.3794,5.2307,5.2938,5.3518,5.3518,5.3518,5.3518,5.3518,5.3518,5.3518,5.3518,5.3518,5.3518,5.3518,5.3518,5.3518,5.3518,5.3518,5.3518,5.3518,5.3518,5.3518,5.3518,5.3518,5.3518,5.3518,5.3518,5.3179,5.257,5.257,5.2164,5.1454,0.0,0.0,0.0,0.0,5.2153,5.2867,5.3062,5.35,5.4045,5.4175,5.4239,5.4271,5.4431,5.4494,5.4494,5.4494,5.4494,5.4494,5.4494,5.4494,5.4494,5.4494,5.4494,5.4494,5.4494,5.4115,5.3691,5.3967,5.3309,5.2596,5.2537,5.2289,5.2088,5.2351,5.2408,5.2545,5.3082,5.236,5.1391,5.0555,5.0268,5.0014,4.9647,4.9003,4.8526,4.8343,4.8306,4.8306,0.0,0.0,0.0,4.8306,4.7736,4.7076,4.6471,4.5203,4.5255,4.702,4.6507,0.0,0.0,4.8306,4.8306,4.8306,0.0,4.8325,4.8362,5.0095,5.0927,5.1001,5.2742,5.3558,5.3558,5.3541,5.3561,5.3561,5.3676,5.3696,5.3753,5.3793,5.3794,5.3794,5.3794,5.3794,5.3831,5.2307,5.2938,5.3518,5.3518,5.3518,5.3518,5.3518,5.3518,5.3518,5.3518,5.3518,5.3518,5.3518,5.3518,5.3518,5.3518,5.3518,5.3518,5.3518,5.3518,5.3518,5.3518,5.3518,5.3518,5.3518,5.3518,5.345,5.3382,5.3382,5.2976,5.2198,0.0,0.0,0.0,5.2396,5.2935,5.3615,5.3813,5.4009,5.4175,5.4207,5.4303,5.4463,5.4494,5.4494,5.4494,5.4494,5.4494,5.4494,5.4494,5.4494,5.4494,5.4494,5.4494,5.4494,5.4494,5.446,5.4253,5.3625,5.4144,5.4349,5.2443,5.2707,5.323,5.2529,5.2408,5.2545,5.3082,5.3109,5.2758,5.1972,5.1773,5.1279,4.9831,4.9537,4.9187,4.8416,4.8306,4.8306,4.8306,0.0,0.0,4.8306,4.8233,4.8159,4.8086,4.6617,4.614,4.7039,0.0,0.0,4.8269,4.8306,4.8306,4.8306,4.8419,4.8476,4.8512,5.0247,5.1061,5.1135,5.2914,5.3694,5.3694,5.3754,5.3756,5.3756,5.3812,5.3775,5.3775,5.3794,5.3794,5.3794,5.3794,5.3794,5.3905,5.2307,5.2938,5.3518,5.3518,5.3518,5.3518,5.3518,5.3518,5.3653,5.4093,5.3788,5.3518,5.3518,5.3518,5.3518,5.3518,5.3518,5.3518,5.3518,5.3518,5.3518,5.3518,5.3518,5.3518,5.3518,5.3518,5.3518,5.3518,5.3518,5.3348,5.301,0.0,5.3142,5.3142,5.3439,5.3674,5.3882,5.4045,5.4207,5.4367,5.4239,5.4335,5.4494,5.4494,5.4494,5.4494,5.4494,5.4494,5.4494,5.4494,5.4494,5.4494,5.4494,5.4494,5.4494,5.4494,5.4776,5.4978,5.4665,5.5071,5.5364,5.4548,5.4183,5.4026,5.3675,5.3237,5.2952,5.3182,5.3203,5.3093,5.2784,5.2344,5.1793,5.1153,5.0235,4.95,4.9114,4.8636,0.0,4.8306,0.0,4.8306,4.8306,4.8306,4.8306,4.8306,4.7278,4.6966,4.7792,0.0,0.0,4.8382,0.0,4.8363,4.8495,4.8494,4.879,4.9344,5.0583,5.1397,5.1915,5.3197,5.3754,5.3774,5.3812,5.3794,5.3794,5.3794,5.3794,5.3794,5.3794,5.3794,5.3794,5.3794,5.3794,5.3943,5.2659,5.3109,5.3518,5.3518,5.3687,5.3822,5.3822,5.4025,5.4329,5.4871,5.4465,5.416,5.416,5.416,5.416,5.416,5.416,5.4059,5.3856,5.3822,5.3721,5.3518,5.3518,5.3518,5.3518,5.3517,5.3517,5.3518,5.3517,5.3551,5.3551,5.3717,5.3783,5.3816,5.4078,5.4143,5.4078,5.4207,5.4367,5.4463,5.4335,5.4367,5.4494,5.4494,5.4494,5.4494,5.4494,5.4494,5.4494,5.4494,5.4494,5.4494,5.4494,5.4494,5.4494,5.4494,5.4926,5.5402,5.5402,5.582,5.621,5.5957,5.5504,5.4987,5.4509,5.3959,5.3482,5.324,5.3203,5.3203,5.3203,5.2747,5.227,5.205,5.1042,5.0161,4.9684,4.9077,4.86,4.8343,4.8306,4.8306,4.8344,4.8344,4.8363,4.8401,4.7868,4.7794,4.8344,0.0,0.0,0.0,0.0,0.0,4.8624,4.8606,4.903,4.9936,5.0824,5.1695,5.2511,5.3385,5.3794,5.3794,5.3794,5.3794,5.3794,5.3794,5.3794,5.3794,5.3794,5.3794,5.3794,5.3794,5.3943,5.4277,5.3518,5.3518,5.3518,5.3518,5.4093,5.4566,5.4566,5.5209,5.5647,5.5716,5.5647,5.5683,5.5683,5.5683,5.5683,5.5683,5.5683,5.5378,5.4634,5.4566,5.4262,5.3551,5.3518,5.3518,5.3518,5.3617,5.3617,5.3518,5.3617,5.3717,5.3717,5.3915,5.398,5.4013,5.4143,5.4207,5.4207,5.4399,5.4494,5.4494,5.4494,5.4494,5.4494,5.4494,5.4494,5.4494,5.4494,5.4494,5.4494,5.4494,5.4494,5.4494,5.4494,5.4494,5.4494,5.4494,5.4926,5.5402,5.5402,5.6213,5.6899,5.6102,5.6343,5.6345,5.4766,5.4399,5.4179,5.3371,5.3203,5.3203,5.3203,5.3167,5.2931,5.2123,5.1977,5.1446,4.9831,4.961,4.926,4.8416,4.8306,4.8344,4.8476,4.8494,4.8532,4.8605,4.8569,4.8569,4.8494,0.0,0.0,4.8605,4.8605,0.0,4.8624,4.8751,4.9194,5.0027,5.0971,5.1825,5.2605,5.3423,5.3794,5.3794,5.3794,5.3794,5.3794,5.3794,5.3794,5.3794,5.3794,5.3794,5.3794,5.3794,5.4314,5.5131,5.4905,5.5006,5.5006,5.5006,5.5209,5.5344,5.5344,5.5547,5.5886,5.6393,5.6461,5.663,5.7137,5.6325,5.5681,5.5681,5.5681,5.5615,5.5378,5.5344,5.504,5.4262,5.4262,5.4025,5.3518,5.3617,5.3684,5.3617,5.3816,5.3948,5.4045,5.411,5.4143,5.4143,5.4335,5.4335,5.4207,5.4399,5.4494,5.4494,5.4494,5.4494,5.4494,5.4494,5.4494,5.4494,5.4494,5.4494,5.4494,5.4494,5.4494,5.4494,5.4494,5.4494,5.4494,5.4494,5.4926,5.5519,5.5915,5.6572,5.7119,5.7266,5.7075,5.6675,5.6161,5.5207,5.4179,5.335,5.3203,5.3203,5.3203,5.3203,5.3093,5.2858,5.2344,5.1793,5.1336,5.0308,4.95,4.9243,4.8731,4.8457,4.8476,4.855,4.8587,4.8605,4.8624,4.8605,4.8569,0.0,0.0,0.0,4.866,0.0,4.8803,4.936,5.0083,5.0971,5.1807,5.2642,5.3423,5.3683,5.3794,5.3794,5.3794,5.3794,5.3794,5.3794,5.3794,5.3794,5.3794,5.3794,5.3868,5.4426,5.4797,5.5206,5.5615,5.5681,5.5681,5.5681,5.5953,5.6122,5.6122,5.6359,5.6697,5.7137,5.7205,5.7374,5.7848,5.707,5.6528,5.6528,5.6528,5.6427,5.6156,5.6122,5.5819,5.5178,5.5041,5.4702,5.4025,5.4159,5.4056,5.3717,5.3948,5.411,5.4207,5.4271,5.4303,5.4335,5.4431,5.4431,5.4335,5.4431,5.4494,5.4494,5.4494,5.4494,5.4494,5.4494,5.4494,5.4494,5.4494,5.4494,5.4494,5.4494,5.4494,5.4494,5.4494,5.4494,5.4494,5.4494,5.4926,5.5513,5.6138,5.6704,5.7241,5.7844,5.7629,5.7189,5.6859,5.5574,5.4252,5.3739,5.3408,5.3203,5.3203,5.3203,5.3203,5.3203,5.2784,5.2344,5.205,5.1132,5.0381,5.0088,4.9394,4.8936,4.8974,4.879,4.8678,4.8714,4.8714,4.8714,4.8714,0.0,4.8714,4.884,4.875,4.8916,4.9336,4.9803,5.0656,5.1862,5.2679,5.3311,5.3794,5.3794,5.3794,5.3794,5.3794,5.3794,5.3794,5.3794,5.3794,5.3794,5.3794,5.3794,5.3905,5.4723,5.5206,5.5689,5.5817,5.5852,5.5852,5.5852,5.6427,5.6867,5.6867,5.7442,5.7881,5.7881,5.7881,5.7881,5.7881,5.7881,5.7881,5.7881,5.7881,5.7611,5.6934,5.6867,5.6635,5.6098,5.5889,5.555,5.5009,5.5143,5.4768,5.3818,5.4078,5.4239,5.4239,5.4399,5.4494,5.4494,5.4494,5.4494,5.4494,5.4494,5.4494,5.4494,5.4494,5.4494,5.4494,5.4494,5.4494,5.4494,5.4494,5.4494,5.4494,5.4494,5.4494,5.4494,5.4494,5.4494,5.4494,5.4494,5.4896,5.549,5.6138,5.6678,5.7191,5.7821,5.7997,5.7776,5.6969,5.5647,5.4546,5.4436,5.3812,5.3298,5.3203,5.3203,5.3203,5.3203,5.3203,5.2931,5.2197,5.2013,5.172,5.0986,5.024,4.9821,4.9879,4.9325,4.9025,4.9076,4.9076,4.9076,0.0,0.0,4.8988,4.9002,4.9002,4.9373,5.019,5.0265,5.1082,5.2679,5.346,5.3794,5.3794,5.3794,5.3794,5.3794,5.3794,5.3794,5.3794,5.3794,5.3794,5.3794,5.3794,5.3831,5.398,5.4797,5.5652,5.6506,5.7273,5.7374,5.7374,5.7374,5.7509,5.7645,5.7645,5.778,5.7881,5.7881,5.7881,5.7881,5.7881,5.7881,5.7881,5.7881,5.7881,5.7814,5.7645,5.7645,5.7414,5.6845,5.681,5.6506,5.5962,5.6097,5.582,5.5163,5.4643,5.4431,5.4431,5.4463,5.4494,5.4494,5.4494,5.4494,5.4494,5.4494,5.4494,5.4494,5.4494,5.4494,5.4494,5.4494,5.4494,5.4494,5.4494,5.4494,5.4494,5.4494,5.4494,5.4494,5.4494,5.4494,5.4494,5.4494,5.4589,5.4957,5.5999,5.6384,5.6731,5.775,5.7997,5.7776,5.6969,5.6528,5.5904,5.4656,5.4252,5.3922,5.3314,5.3203,5.3203,5.3203,5.3203,5.3151,5.2931,5.238,5.1944,5.1805,5.1205,5.0785,5.0861,5.0805,5.0804,0.0,0.0,5.0822,5.0822,5.0804,5.0507,4.9856,4.9819,5.0228,5.1082,5.1714,5.2531,5.3534,5.372,5.3794,5.3794,5.3794,5.3794,5.3794,5.3794,5.3794,5.3794,5.3794,5.3794,5.3794,5.3794,5.4203,5.4834,5.5689,5.6506,5.7323,5.7814,5.7881,5.7881,5.7881,5.7881,5.7881,5.7881,5.7881,5.7881,5.7881,5.7881,5.7881,5.7881,5.7881,5.7881,5.7881,5.7881,5.7881,5.7881,5.7881,5.7821,5.7627,5.7593,5.7359,5.6816,5.6918,5.6709,5.615,5.5391,5.5012,5.5012,5.4667,5.4494,5.4494,5.4494,5.4494,5.4494,5.4494,5.4494,5.4494,5.4494,5.4494,5.4494,5.4494,5.4494,5.4494,5.4494,5.4494,5.4494,5.4494,5.4494,5.4494,5.4494,5.4494,5.4557,5.4834,5.4745,5.4803,5.624,5.6492,5.6572,5.7726,5.7997,5.7886,5.7446,5.7079,5.6565,5.5684,5.4913,5.4289,5.3849,5.3445,5.3203,5.3203,5.3203,5.3188,5.3251,5.2842,5.259,5.2716,5.2095,5.1673,5.1731,5.1547,5.1416,5.1416,5.1416,0.0,5.1416,5.1416,5.1193,5.0711,5.0711,5.1119,5.1936,5.2754,5.3385,5.3794,5.3794,5.3794,5.3794,5.3794,5.3794,5.3794,5.3794,5.3794,5.3794,5.3794,5.3794,5.3794,5.3794,5.4314,5.5131,5.5986,5.6803,5.7641,5.7881,5.7881,5.7881,5.7881,5.7983,5.8051,5.8051,5.8152,5.822,5.822,5.822,5.822,5.822,5.8118,5.8051,5.8051,5.7986,5.7918,5.7881,5.7881,5.7991,5.8171,5.8241,5.8041,5.7602,5.7604,5.7431,5.6978,5.6184,5.5805,5.577,5.515,5.4805,5.4667,5.4667,5.4598,5.4494,5.4494,5.4494,5.4494,5.4494,5.4494,5.4494,5.4494,5.4494,5.4494,5.4494,5.4494,5.4494,5.4494,5.4494,5.4494,5.4494,5.4494,5.4652,5.5343,5.5104,5.5018,5.6642,5.6835,5.6783,5.775,5.7997,5.7997,5.7997,5.7483,5.6969,5.6822,5.5721,5.4693,5.4436,5.3849,5.3314,5.3203,5.3225,5.323,5.3297,5.3272,5.3314,5.3518,5.291,5.2542,5.2602,5.2104,5.1751,5.1751,5.1751,5.1751,5.1751,5.1751,5.1751,5.1751,5.1639,5.1974,5.2791,5.346,5.3794,5.3794,5.3794,5.3794,5.3794,5.3794,5.3794,5.3794,5.3794,5.3794,5.3794,5.3794,5.3794,5.3831,5.3943,5.45,5.5317,5.6172,5.6989,5.785,5.7881,5.7881,5.7881,5.7881,5.8423,5.8829,5.8829,5.937,5.9742,5.9742,5.9742,5.9742,5.9742,5.9201,5.8829,5.8829,5.84,5.8063,5.7918,5.7881,5.7991,5.8171,5.8384,5.8492,5.8564,5.8084,5.7806,5.7736,5.6978,5.6598,5.6598,5.6495,5.6081,5.546,5.546,5.5081,5.4494,5.4494,5.4494,5.4494,5.4494,5.4494,5.4494,5.4494,5.4494,5.4494,5.4494,5.4494,5.4494,5.4494,5.4494,5.4494,5.4494,5.4494,5.4745,5.583,5.5716,5.5513,5.6747,5.7425,5.7774,5.7973,5.7997,5.7997,5.7997,5.7886,5.7629,5.6932,5.6602,5.6014,5.4656,5.4289,5.3995,5.3314,5.3251,5.3297,5.3297,5.338,5.3518,5.3637,5.3563,5.3511,5.357,5.3478,5.3423,5.3423,5.3423,5.3423,5.3423,5.3423,5.3423,5.3423,5.2791,5.2791,5.3608,5.3757,5.3794,5.3794,5.3794,5.3794,5.3794,5.3794,5.3794,5.3794,5.3794,5.3794,5.3794,5.3794,5.3794,5.3868,5.4574,5.5354,5.6209,5.7026,5.7905,5.8733,5.9066,5.9066,5.9066,5.9066,5.937,5.9607,5.9607,5.9877,6.0114,6.0114,6.0114,6.0114,6.0114,5.981,5.9644,5.979,5.9562,5.9225,5.8853,5.8337,5.8099,5.8205,5.8384,5.8631,5.8909,5.8599,5.8495,5.8495,5.7771,5.7391,5.7391,5.6978,5.6598,5.6253,5.6253,5.5839,5.5115,5.5115,5.4874,5.4494,5.4494,5.4494,5.4494,5.4494,5.4494,5.4494,5.4494,5.4494,5.4494,5.4494,5.4494,5.4494,5.4494,5.4494,5.4745,5.5943,5.6546,5.6861,5.7065,5.7546,5.7997,5.7997,5.7997,5.7997,5.7997,5.7997,5.7886,5.7519,5.7116,5.6565,5.5831,5.5354,5.4766,5.3995,5.3897,5.3817,5.3474,5.3461,5.3541,5.3735,5.3696,5.3753,5.3775,5.3794,5.3794,5.3794,5.3794,5.3794,5.3794,5.3794,5.3794,5.3794,5.346,5.3423,5.3794,5.3794,5.3794,5.3794,5.3794,5.3794,5.3794,5.3794,5.3794,5.3794,5.3794,5.3794,5.3794,5.3794,5.4054,5.45,5.4871,5.58,5.6989,5.736,5.8091,5.8942,6.0114,6.0114,6.0114,6.0114,6.025,6.0385,6.0385,6.052,6.0622,6.0622,6.0622,6.0622,6.0622,6.0486,6.0461,6.0721,6.0588,6.0288,5.9891,5.9238,5.8689,5.8277,5.8455,5.8701,5.8978,5.9012,5.9012,5.9012,5.8426,5.815,5.815,5.7598,5.7219,5.7047,5.7047,5.6633,5.5908,5.5908,5.546,5.477,5.477,5.4667,5.4494,5.4494,5.4494,5.4494,5.4494,5.4494,5.4494,5.4494,5.4494,5.4494,5.4494,5.4589,5.4926,5.5999,5.7127,5.7927,5.7449,5.7655,5.7997,5.7997,5.7997,5.7997,5.7997,5.7997,5.7997,5.7997,5.7519,5.7042,5.6822,5.6308,5.5611,5.4803,5.458,5.4375,5.383,5.3669,5.362,5.3775,5.3754,5.3735,5.3775,5.3794,5.3794,5.3794,5.3794,5.3794,5.3794,5.3794,5.3794,5.3794,5.3794,5.3794,5.3794,5.3794,5.3794,5.3794,5.3794,5.3794,5.3794,5.3794,5.3794,5.3794,5.3794,5.3794,5.3794,5.3813,5.4296,5.502,5.5225,5.6229,5.7546,5.7752,5.828,5.9022,6.0114,6.0114,6.0114,6.0114,6.0723,6.1231,6.1231,6.1772,6.2212,6.2212,6.2212,6.2212,6.2212,6.1603,6.1274,6.1503,6.0972,6.0674,6.0713,6.0756,6.0105,5.8558,5.8666,5.884,5.9012,5.9012,5.9012,5.9012,5.8944,5.8944,5.8944,5.8875,5.8495,5.784,5.784,5.7426,5.6702,5.6702,5.6253,5.5497,5.5497,5.5115,5.4494,5.4494,5.4494,5.4494,5.4494,5.4494,5.4494,5.4494,5.4494,5.4494,5.4494,5.4896,5.549,5.6111,5.7127,5.7997,5.795,5.7973,5.7997,5.7997,5.7997,5.7997,5.7997,5.7997,5.7997,5.7997,5.796,5.7666,5.6932,5.6748,5.6455,5.5647,5.5049,5.4679,5.4605,5.4121,5.3775,5.3794,5.3775,5.3775,5.3794,5.3794,5.3794,5.3794,5.3794,5.3794,5.3794,5.3794,5.3794,5.3794,5.3794,5.3794,5.3794,5.3794,5.3794,5.3794,5.3794,5.3794,5.3794,5.3794,5.3794,5.3794,5.3794,5.3794,5.3794,5.3944,5.4391,5.5094,5.5973,5.6772,5.7583,5.8466,5.8885,5.912,6.1535,6.1535,6.1535,6.1535,6.1772,6.1975,6.1975,6.2212,6.2381,6.2381,6.2381,6.2381,6.2381,6.2261,6.2246,6.2442,6.2392,6.2164,6.1865,6.176,6.1036,5.942,5.9081,5.8944,5.9012,5.9012,5.9012,5.9012,5.9012,5.9012,5.9012,5.9012,5.8875,5.8599,5.8599,5.8185,5.7495,5.7495,5.7047,5.6357,5.6357,5.5874,5.5184,5.5184,5.4908,5.4494,5.4494,5.4494,5.4494,5.4494,5.4494,5.4494,5.4494,5.4652,5.5013,5.5999,5.7127,5.7997,5.7997,5.7997,5.7997,5.7997,5.7997,5.7997,5.7997,5.7997,5.7997,5.7997,5.7997,5.7923,5.7593,5.7556,5.7322,5.6603,5.6329,5.5845,5.4966,5.4662,5.4351,5.3868,5.3794,5.3794,5.3794,5.3794,5.3794,5.3794,5.3794,5.3794,5.3794,5.3794,5.3794,5.3794,5.3794,5.3794,5.3794,5.3794,5.3794,5.3794,5.3794,5.3794,5.3794,5.3794,5.3794,5.3794,5.3794,5.4129,5.467,5.4708,5.5528,5.676,5.7134,5.7749,5.8475,5.8831,5.9041,5.9215,6.2381,6.2381,6.2381,6.2381,6.2381,6.2381,6.2381,6.2381,6.2381,6.2381,6.2381,6.2381,6.2381,6.2576,6.277,6.3,6.3189,6.3171,6.2875,6.249,6.1659,6.0281,5.9701,5.9392,5.9392,5.915,5.9012,5.9012,5.9012,5.9012,5.9012,5.9012,5.9012,5.9012,5.9012,5.8737,5.8254,5.8254,5.784,5.715,5.715,5.6702,5.5977,5.5977,5.5529,5.4874,5.4874,5.4701,5.4494,5.4494,5.4494,5.4494,5.4494,5.4741,5.5313,5.6492,5.7376,5.7997,5.7997,5.7997,5.7997,5.7997,5.7997,5.7997,5.7997,5.7997,5.7997,5.7997,5.7997,5.7997,5.7997,5.7997,5.7859,5.7457,5.7198,5.6752,5.5805,5.5498,5.5094,5.4277,5.4203,5.4091,5.3831,5.3794,5.3794,5.3794,5.3794,5.3794,5.3794,5.3794,5.3794,5.3794,5.3794,5.3794,5.3794,5.3794,5.3794,5.3794,5.3794,5.3794,5.3794,5.3794,5.3794,5.3831,5.4129,5.4596,5.5211,5.5548,5.65,5.7808,5.7827,5.8313,5.9004,5.9024,5.9178,5.9399,6.2381,6.2381,6.2381,6.2381,6.2381,6.2381,6.2381,6.2381,6.2381,6.2381,6.2381,6.2381,6.2381,6.2576,6.277,6.3,6.3189,6.3377,6.36,6.291,6.2079,6.1036,6.0493,6.022,6.022,5.9426,5.9012,5.9012,5.9012,5.9012,5.9012,5.9012,5.9012,5.9012,5.9012,5.9012,5.9012,5.9012,5.8599,5.7909,5.7909,5.746,5.6805,5.6805,5.6322,5.5632,5.5632,5.515,5.4529,5.4529,5.4529,5.4494,5.4494,5.5343,5.6519,5.7679,5.7997,5.7997,5.7997,5.7997,5.7997,5.7997,5.7997,5.7997,5.7997,5.7997,5.7997,5.7997,5.7997,5.7997,5.7997,5.7997,5.8042,5.8156,5.7567,5.7159,5.7286,5.6722,5.5986,5.5112,5.502,5.4686,5.3905,5.3831,5.3831,5.3794,5.3794,5.3794,5.3794,5.3794,5.3794,5.3794,5.3794,5.3794,5.3794,5.3794,5.3794,5.3794,5.3794,5.3794,5.3831,5.3831,5.3831,5.3868,5.4801,5.5211,5.5305,5.6295,5.7136,5.7827,5.7903,5.8371,5.9004,5.9158,5.9363,5.9668,6.2381,6.2381,6.2381,6.2381,6.2381,6.2381,6.2381,6.2381,6.2381,6.2381,6.2381,6.2459,6.2576,6.277,6.3,6.3189,6.3377,6.3526,6.36,6.3393,6.3151,6.2837,6.1632,6.0978,6.0978,6.022,5.984,5.984,5.9288,5.9012,5.9012,5.9012,5.9012,5.9012,5.9012,5.9012,5.9012,5.9012,5.8875,5.8668,5.8668,5.8254,5.7564,5.7564,5.7116,5.646,5.646,5.5943,5.5352,5.5754,5.5558,5.5194,5.5629,5.5999,5.6438,5.7141,5.7679,5.7997,5.7997,5.7997,5.7997,5.7997,5.7997,5.7997,5.7997,5.7997,5.7997,5.7997,5.7997,5.7997,5.7997,5.8065,5.8156,5.8327,5.8215,5.7915,5.7522,5.7266,5.684,5.6023,5.5912,5.5577,5.4723,5.4648,5.4426,5.3831,5.3794,5.3794,5.3794,5.3794,5.3794,5.3794,5.3794,5.3794,5.3794,5.3794,5.3794,5.3794,5.3794,5.4091,5.4648,5.4648,5.5022,5.5657,5.59,5.6462,5.7192,5.7492,5.8256,5.918,5.897,5.9174,5.954,5.9345,5.9452,5.9788,6.2381,6.2381,6.2381,6.2381,6.2381,6.2381,6.2381,6.2381,6.242,6.2498,6.242,6.2498,6.277,6.2923,6.3076,6.3265,6.3489,6.36,6.36,6.36,6.36,6.36,6.2703,6.2082,6.1772,6.1013,6.0634,6.0634,5.9875,5.9461,5.9461,5.915,5.9012,5.9012,5.9012,5.9012,5.9012,5.9012,5.9012,5.9012,5.9012,5.8737,5.8357,5.8357,5.7874,5.7253,5.7253,5.6736,5.6178,5.6768,5.6634,5.6283,5.651,5.6625,5.6731,5.7266,5.7726,5.7997,5.7997,5.7997,5.7997,5.7997,5.7997,5.7997,5.7997,5.7997,5.802,5.8065,5.8042,5.802,5.8133,5.8156,5.8223,5.84,5.8486,5.8365,5.8009,5.7992,5.7695,5.6878,5.6766,5.6432,5.5614,5.5503,5.5317,5.4834,5.4797,5.4648,5.4314,5.4611,5.4648,5.4314,5.4611,5.4797,5.4797,5.4797,5.4611,5.4277,5.4611,5.5057,5.5503,5.5503,5.5859,5.6441,5.6777,5.736,5.8035,5.8372,5.902,5.9793,5.9575,5.9711,5.9946,5.9739,5.9884,6.0185,6.2381,6.2381,6.2381,6.2381,6.2381,6.2381,6.242,6.242,6.2498,6.2693,6.2576,6.2615,6.3,6.3038,6.3114,6.3302,6.3489,6.36,6.36,6.36,6.36,6.36,6.36,6.3289,6.2599,6.1806,6.1392,6.1392,6.0668,6.0254,6.0185,5.9461,5.9081,5.9012,5.9012,5.9012,5.9012,5.9012,5.9012,5.9012,5.9012,5.9012,5.9012,5.9012,5.8599,5.8012,5.8012,5.7529,5.7006,5.7565,5.7729,5.7639,5.7376,5.725,5.7325,5.7857,5.7997,5.7997,5.7997,5.7997,5.7997,5.7997,5.7997,5.7997,5.7997,5.7997,5.8042,5.8156,5.8088,5.8088,5.8349,5.8327,5.829,5.8486,5.8492,5.8572,5.8677,5.8698,5.8438,5.7695,5.7621,5.7286,5.6506,5.6357,5.632,5.632,5.632,5.5949,5.5169,5.5874,5.5949,5.5131,5.5874,5.632,5.632,5.6357,5.5986,5.5131,5.5912,5.6357,5.6395,5.6395,5.6491,5.6684,5.7546,5.7997,5.8166,5.899,5.954,5.9858,5.9858,5.9985,6.0259,6.0231,6.0406,6.0704,6.2381,6.2381,6.2381,6.2381,6.2381,6.2459,6.2576,6.2615,6.2693,6.2923,6.2923,6.2962,6.3189,6.3227,6.3302,6.3526,6.3563,6.36,6.36,6.36,6.36,6.36,6.36,6.3531,6.3358,6.2599,6.222,6.222,6.1461,6.0771,6.0185,6.0013,5.9599,5.9012,5.9012,5.9012,5.9012,5.9012,5.9012,5.9012,5.9012,5.9012,5.9012,5.9012,5.8909,5.8771,5.8771,5.8288,5.7763,5.8224,5.8749,5.9092,5.8835,5.8421,5.8039,5.8004,5.7997,5.7997,5.7997,5.7997,5.7997,5.7997,5.7997,5.7997,5.7997,5.7997,5.8042,5.8156,5.8193,5.8215,5.8371,5.84,5.8465,5.8471,5.8593,5.8656,5.8677,5.8698,5.8661,5.8475,5.8438,5.8141,5.7323,5.6655,5.632,5.632,5.632,5.6209,5.6023,5.6209,5.6209,5.6023,5.6209,5.632,5.632,5.6952,5.684,5.6023,5.6209,5.6617,5.7249,5.7292,5.7727,5.8442,5.8763,5.8953,5.9065,5.9499,5.9868,6.0118,6.0118,6.03,6.0558,6.03,6.0406,6.0727,6.2381,6.2381,6.2381,6.2381,6.2381,6.2459,6.2688,6.2727,6.2808,6.3114,6.3076,6.3114,6.3414,6.334,6.3377,6.36,6.36,6.36,6.36,6.36,6.36,6.36,6.36,6.36,6.36,6.322,6.3013,6.3013,6.2255,6.1668,6.1289,6.0909,6.0323,5.9564,5.9564,5.9357,5.9012,5.9012,5.9012,5.9012,5.9012,5.9012,5.9012,5.9012,5.9012,5.9012,5.9012,5.9139,5.9354,5.9531,6.0033,6.0478,5.992,5.9566,5.92,5.8734,5.8584,5.851,5.8107,5.7997,5.7997,5.7997,5.8042,5.8088,5.8088,5.8088,5.8133,5.8312,5.8312,5.8349,5.8523,5.8529,5.8492,5.8593,5.8656,5.8698,5.8698,5.8698,5.8698,5.8698,5.8698,5.8549,5.8103,5.7695,5.7435,5.7435,5.7435,5.7286,5.6878,5.7249,5.7286,5.6878,5.7249,5.7435,5.7435,5.7881,5.7881,5.7435,5.7435,5.7715,5.8185,5.8189,5.8532,5.9119,5.9158,5.9234,5.9327,5.966,5.9977,6.0231,6.0366,6.0618,6.086,6.07,6.0734,6.0931,6.2415,6.2381,6.2381,6.2381,6.242,6.2498,6.2693,6.277,6.2923,6.3302,6.3227,6.3227,6.3563,6.3452,6.3414,6.36,6.36,6.36,6.36,6.36,6.36,6.36,6.36,6.36,6.36,6.36,6.36,6.36,6.2979,6.2599,6.2461,6.1806,6.1116,6.0392,6.0254,5.984,5.9219,5.9081,5.9012,5.9012,5.9012,5.9012,5.9012,5.9012,5.9012,5.9012,5.9012,5.9806,6.0896,6.0882,6.1324,6.1667,6.086,6.0603,6.0456,5.9625,5.9294,5.9038,5.84,5.8107,5.7997,5.7997,5.8088,5.8215,5.8238,5.8223,5.8268,5.8486,5.8443,5.848,5.8656,5.8614,5.8572,5.8677,5.8698,5.8698,5.8698,5.8698,5.8698,5.8698,5.8698,5.8698,5.8698,5.8698,5.8698,5.8698,5.8698,5.8401,5.7732,5.8364,5.8401,5.7732,5.8364,5.8698,5.8698,5.8698,5.8698,5.8698,5.8719,5.8797,5.8899,5.892,5.9039,5.9196,5.9196,5.929,5.9418,5.9723,6.0015,6.0326,6.063,6.0882,6.1118,6.1118,6.1118,6.1118,6.2516,6.2381,6.2381,6.2381,6.2537,6.2731,6.2923,6.3114,6.3302,6.3526,6.3526,6.3563,6.36,6.36,6.3563,6.36,6.36,6.36,6.36,6.36,6.36,6.36,6.36,6.36,6.36,6.36,6.36,6.36,6.3496,6.3117,6.2496,6.2393,6.191,6.1116,6.0496,6.0151,5.9978,5.9323,5.9012,5.9012,5.9012,5.9012,5.9012,5.9012,5.9012,5.9012,5.9012,5.9806,6.0967,6.1559,6.2126,6.2511,6.1704,6.1447,6.1263,6.0456,5.9758,5.9184,5.9074,5.8547,5.7997,5.7997,5.8088,5.8238,5.8349,5.8371,5.8415,5.8486,5.8508,5.8529,5.8656,5.8677,5.8677,5.8677,5.8698,5.8698,5.8698,5.8698,5.8698,5.8698,5.8698,5.8698,5.8698,5.8698,5.8698,5.8698,5.8698,5.8661,5.8549,5.8661,5.8661,5.8549,5.8661,5.8698,5.8698,5.8698,5.8698,5.8698,5.8818,5.8879,5.8899,5.8962,5.9081,5.9196,5.9272,5.9472,5.9777,6.003,6.0326,6.0642,6.0951,6.1051,6.1118,6.1118,6.1118,6.1118,6.37,6.3632,6.3632,6.3632,6.3792,6.3995,6.4191,6.4042,6.3996,6.4183,6.3841,6.36,6.36,6.36,6.36,6.36,6.36,6.36,6.36,6.36,6.36,6.36,6.36,6.36,6.36,6.36,6.36,6.36,6.36,6.3427,6.3117,6.3117,6.2703,6.1944,6.1634,6.122,6.0771,6.0013,5.9668,5.9633,5.9185,5.9012,5.9012,5.9012,5.9012,5.9115,5.9806,6.0432,6.1026,6.2059,6.2567,6.2768,6.2401,6.2291,6.2108,6.13,6.0823,6.0456,6.0015,5.9281,5.8694,5.875,5.8532,5.8349,5.8422,5.8508,5.8588,5.8614,5.8614,5.8635,5.8677,5.8698,5.8698,5.8698,5.8698,5.8698,5.8698,5.8698,5.8698,5.8698,5.8698,5.8698,5.8698,5.8698,5.8698,5.8698,5.8698,5.8698,5.8698,5.8698,5.8698,5.8698,5.8698,5.8698,5.8698,5.8698,5.8698,5.8698,5.8838,5.892,5.8962,5.9061,5.9177,5.9272,5.9272,5.947,5.9842,6.0089,6.0393,6.0727,6.1002,6.1118,6.1118,6.1118,6.1118,6.1118]}]]